[[{"header":{"parameterUnit":"m.s-1","parameterCategory":1,"la1":30.6,"la2":29.2853,"lo1":-89.7004,"lo2":-87.6739,"dy":0.0162,"dx":0.0183,"nx":112,"ny":82,"refTime":"2024-12-05T18:00:00:Z","depth":0,"parameterNumber":2,"parameterNumberName":"U-component_of_WINDS"},"data":[0.0,0.0,0.0,0.0,0.0,0.0,0.0,0.0,0.0,0.0,0.0,0.0,0.0,0.0,0.0,0.0,0.0,0.0,0.0,0.0,0.0,0.0,0.0,0.0,0.0,0.0,0.0,0.0,0.0,0.0,0.0,0.0,0.0,0.0,0.0,0.0,0.0,0.0,0.0,0.0,0.0,0.0,0.0,0.0,0.0,0.0,0.0,0.0,0.0,0.0,0.0,0.0,0.0,0.0,0.0,0.0,0.0,0.0,0.0,0.0,0.0,0.0,0.0,0.0,0.0,0.0,0.0,0.0,0.0,0.0,0.0,0.0,0.0,0.0,0.0,0.0,0.0,0.0,0.0,0.0,0.0,0.0,0.0,0.0,0.0,0.0,0.0,0.0,0.0,0.0,0.0,-3.9739,-4.2756,-4.3802,-4.1925,-4.1555,-3.9524,-3.509,0.0,0.0,0.0,0.0,0.0,0.0,0.0,0.0,0.0,0.0,0.0,0.0,0.0,0.0,0.0,0.0,0.0,0.0,0.0,0.0,0.0,0.0,0.0,0.0,0.0,0.0,0.0,0.0,0.0,0.0,0.0,0.0,0.0,0.0,0.0,0.0,0.0,0.0,0.0,0.0,0.0,0.0,0.0,0.0,0.0,0.0,0.0,0.0,0.0,0.0,0.0,0.0,0.0,0.0,0.0,0.0,0.0,0.0,0.0,0.0,0.0,0.0,0.0,0.0,0.0,0.0,0.0,0.0,0.0,0.0,0.0,0.0,0.0,0.0,0.0,0.0,0.0,0.0,0.0,0.0,0.0,0.0,0.0,0.0,0.0,0.0,0.0,0.0,0.0,0.0,0.0,0.0,0.0,0.0,0.0,0.0,0.0,0.0,0.0,0.0,0.0,0.0,0.0,0.0,-3.7307,-4.1678,-4.3587,-4.4018,-4.2571,-4.137,-3.94,-3.6384,0.0,0.0,0.0,0.0,0.0,0.0,0.0,0.0,0.0,0.0,0.0,0.0,0.0,0.0,0.0,0.0,0.0,0.0,0.0,0.0,0.0,0.0,0.0,0.0,0.0,0.0,0.0,0.0,0.0,0.0,0.0,0.0,0.0,0.0,0.0,0.0,0.0,0.0,0.0,0.0,0.0,0.0,0.0,0.0,0.0,0.0,0.0,0.0,0.0,0.0,0.0,0.0,0.0,0.0,0.0,0.0,0.0,0.0,0.0,0.0,0.0,0.0,0.0,0.0,0.0,0.0,0.0,0.0,0.0,0.0,0.0,0.0,0.0,0.0,0.0,0.0,0.0,0.0,0.0,0.0,0.0,0.0,0.0,0.0,0.0,0.0,0.0,0.0,0.0,0.0,0.0,0.0,0.0,0.0,0.0,0.0,0.0,0.0,0.0,0.0,0.0,0.0,0.0,-3.7002,-3.9062,-4.2725,-4.3716,-4.3648,-4.2694,-4.1001,-3.8816,-3.6107,-3.2752,0.0,0.0,0.0,0.0,0.0,0.0,0.0,0.0,0.0,0.0,0.0,0.0,0.0,0.0,0.0,0.0,0.0,0.0,0.0,0.0,0.0,0.0,0.0,0.0,0.0,0.0,0.0,0.0,0.0,0.0,0.0,0.0,0.0,0.0,0.0,0.0,0.0,0.0,0.0,0.0,0.0,0.0,0.0,0.0,0.0,0.0,0.0,0.0,0.0,0.0,0.0,0.0,0.0,0.0,0.0,0.0,0.0,0.0,0.0,0.0,0.0,0.0,0.0,0.0,0.0,0.0,0.0,0.0,0.0,0.0,0.0,0.0,0.0,0.0,0.0,0.0,0.0,0.0,0.0,0.0,0.0,0.0,0.0,0.0,0.0,0.0,0.0,0.0,0.0,0.0,0.0,0.0,0.0,0.0,0.0,0.0,0.0,0.0,0.0,0.0,0.0,0.0,-3.9946,-4.1001,-4.3562,-4.3685,-4.3347,-4.2663,-4.0416,-3.8015,-3.5675,-3.2013,0.0,0.0,0.0,0.0,0.0,0.0,0.0,0.0,0.0,0.0,0.0,0.0,0.0,0.0,0.0,0.0,0.0,0.0,0.0,0.0,0.0,0.0,0.0,0.0,0.0,0.0,0.0,0.0,0.0,0.0,0.0,0.0,0.0,0.0,0.0,0.0,0.0,0.0,0.0,0.0,0.0,0.0,0.0,0.0,0.0,0.0,0.0,0.0,0.0,0.0,0.0,0.0,0.0,0.0,0.0,0.0,0.0,0.0,0.0,0.0,0.0,0.0,0.0,0.0,0.0,0.0,0.0,0.0,0.0,0.0,0.0,0.0,0.0,0.0,0.0,0.0,0.0,0.0,0.0,0.0,0.0,0.0,0.0,0.0,0.0,0.0,0.0,0.0,0.0,0.0,0.0,0.0,0.0,0.0,0.0,0.0,0.0,0.0,0.0,0.0,0.0,0.0,-4.0297,-4.2232,-4.4295,-4.3994,-4.3347,-4.2663,-3.9554,-3.703,-3.5614,-3.112,0.0,0.0,0.0,0.0,0.0,0.0,0.0,0.0,0.0,0.0,0.0,0.0,0.0,0.0,0.0,0.0,0.0,0.0,0.0,0.0,0.0,0.0,0.0,0.0,0.0,0.0,0.0,0.0,0.0,0.0,0.0,0.0,0.0,0.0,0.0,0.0,0.0,0.0,0.0,0.0,0.0,0.0,0.0,0.0,0.0,0.0,0.0,0.0,0.0,0.0,0.0,0.0,0.0,0.0,0.0,0.0,0.0,0.0,0.0,0.0,0.0,0.0,0.0,0.0,0.0,0.0,0.0,0.0,0.0,0.0,0.0,0.0,0.0,0.0,0.0,0.0,0.0,0.0,0.0,0.0,0.0,0.0,0.0,0.0,0.0,0.0,0.0,0.0,0.0,0.0,0.0,0.0,0.0,0.0,0.0,0.0,0.0,0.0,0.0,0.0,0.0,0.0,-4.0598,-4.1886,0.0,-4.3634,-4.2509,-4.1401,-3.9339,-3.6815,-3.3767,0.0,0.0,0.0,0.0,0.0,0.0,0.0,0.0,0.0,0.0,0.0,0.0,0.0,0.0,0.0,0.0,0.0,0.0,0.0,0.0,0.0,0.0,0.0,0.0,0.0,0.0,0.0,0.0,0.0,0.0,0.0,0.0,0.0,0.0,0.0,0.0,0.0,0.0,0.0,0.0,0.0,0.0,0.0,0.0,0.0,0.0,0.0,0.0,0.0,0.0,0.0,0.0,0.0,0.0,0.0,0.0,0.0,0.0,0.0,0.0,0.0,0.0,0.0,0.0,0.0,0.0,0.0,0.0,0.0,0.0,0.0,0.0,0.0,0.0,0.0,0.0,0.0,0.0,0.0,0.0,0.0,0.0,0.0,0.0,0.0,0.0,0.0,0.0,0.0,0.0,0.0,0.0,0.0,0.0,0.0,0.0,0.0,0.0,0.0,0.0,0.0,0.0,-4.023,-4.1406,-4.2582,0.0,-4.3948,-4.2587,-4.0945,-3.937,-3.678,-3.2846,0.0,0.0,0.0,0.0,0.0,0.0,0.0,0.0,0.0,0.0,0.0,0.0,0.0,0.0,0.0,0.0,0.0,0.0,0.0,0.0,0.0,0.0,0.0,0.0,0.0,0.0,0.0,0.0,0.0,0.0,0.0,0.0,0.0,0.0,0.0,0.0,0.0,0.0,0.0,0.0,0.0,0.0,0.0,0.0,0.0,0.0,0.0,0.0,0.0,0.0,0.0,0.0,0.0,0.0,0.0,0.0,0.0,0.0,0.0,0.0,0.0,0.0,0.0,0.0,0.0,0.0,0.0,0.0,0.0,0.0,0.0,0.0,0.0,0.0,0.0,0.0,0.0,0.0,0.0,0.0,0.0,0.0,0.0,0.0,0.0,0.0,0.0,0.0,0.0,0.0,0.0,0.0,0.0,0.0,0.0,0.0,0.0,0.0,0.0,0.0,0.0,0.0,-3.9894,-4.2751,-4.4718,-4.5596,-4.5079,-4.3814,-4.1686,-3.9574,-3.686,0.0,0.0,0.0,0.0,0.0,0.0,0.0,0.0,0.0,0.0,0.0,0.0,0.0,0.0,0.0,0.0,0.0,0.0,0.0,0.0,0.0,0.0,0.0,0.0,0.0,0.0,0.0,0.0,0.0,0.0,0.0,0.0,0.0,0.0,0.0,0.0,0.0,0.0,0.0,0.0,0.0,0.0,0.0,0.0,0.0,0.0,0.0,0.0,0.0,0.0,0.0,0.0,0.0,0.0,0.0,0.0,0.0,0.0,0.0,0.0,0.0,0.0,0.0,0.0,0.0,0.0,0.0,0.0,0.0,0.0,0.0,0.0,0.0,0.0,0.0,0.0,0.0,0.0,0.0,0.0,0.0,0.0,0.0,0.0,0.0,0.0,0.0,0.0,0.0,0.0,0.0,0.0,0.0,0.0,0.0,0.0,0.0,0.0,0.0,0.0,0.0,0.0,0.0,-4.0956,-4.3161,-4.4555,-4.531,-4.4787,-4.3296,-4.0672,-3.9957,-3.7391,-3.2,0.0,0.0,0.0,0.0,0.0,0.0,0.0,0.0,0.0,0.0,0.0,0.0,0.0,0.0,0.0,0.0,0.0,0.0,0.0,0.0,0.0,0.0,0.0,0.0,0.0,0.0,0.0,0.0,0.0,0.0,0.0,0.0,0.0,0.0,0.0,0.0,0.0,0.0,0.0,0.0,0.0,0.0,0.0,0.0,0.0,0.0,0.0,0.0,0.0,0.0,0.0,0.0,0.0,0.0,0.0,0.0,0.0,0.0,0.0,0.0,0.0,0.0,0.0,0.0,0.0,0.0,0.0,0.0,0.0,0.0,0.0,0.0,0.0,0.0,0.0,0.0,0.0,0.0,0.0,0.0,0.0,0.0,0.0,0.0,0.0,0.0,0.0,0.0,0.0,0.0,0.0,0.0,0.0,0.0,0.0,0.0,0.0,0.0,0.0,0.0,0.0,0.0,-4.1379,-4.3748,-4.5146,-4.5656,-4.5306,-4.391,-4.1098,-4.0847,-3.8469,-3.2802,0.0,0.0,0.0,0.0,0.0,0.0,0.0,0.0,0.0,0.0,0.0,0.0,0.0,0.0,0.0,0.0,0.0,0.0,0.0,0.0,0.0,0.0,0.0,0.0,0.0,0.0,0.0,0.0,0.0,0.0,0.0,0.0,0.0,0.0,0.0,0.0,0.0,0.0,0.0,0.0,0.0,0.0,0.0,0.0,0.0,0.0,0.0,0.0,0.0,0.0,0.0,0.0,0.0,0.0,0.0,0.0,0.0,0.0,0.0,0.0,0.0,0.0,0.0,0.0,0.0,0.0,0.0,0.0,0.0,0.0,0.0,0.0,0.0,0.0,0.0,0.0,0.0,0.0,0.0,0.0,0.0,0.0,0.0,0.0,0.0,0.0,0.0,0.0,0.0,0.0,0.0,0.0,0.0,0.0,0.0,0.0,0.0,0.0,0.0,0.0,0.0,0.0,-4.1264,-4.4352,-4.6124,-4.6246,-4.6243,-4.5163,-4.2377,-4.1986,-3.9808,-3.4997,0.0,0.0,0.0,0.0,0.0,0.0,0.0,0.0,0.0,0.0,0.0,0.0,0.0,0.0,0.0,0.0,0.0,0.0,0.0,0.0,0.0,0.0,0.0,0.0,0.0,0.0,0.0,0.0,0.0,0.0,0.0,0.0,0.0,0.0,0.0,0.0,0.0,0.0,0.0,0.0,0.0,0.0,0.0,0.0,0.0,0.0,0.0,0.0,0.0,0.0,0.0,0.0,0.0,0.0,0.0,0.0,0.0,0.0,0.0,0.0,-3.7795,0.0,0.0,0.0,0.0,0.0,0.0,0.0,0.0,0.0,0.0,0.0,0.0,0.0,0.0,0.0,0.0,0.0,0.0,0.0,0.0,0.0,0.0,0.0,0.0,0.0,0.0,0.0,0.0,0.0,0.0,0.0,0.0,0.0,0.0,0.0,0.0,0.0,0.0,0.0,0.0,0.0,-4.11,-4.4112,-4.5844,-4.5875,-4.5906,-4.4981,-4.2613,-4.1986,-4.0165,-3.639,-3.4121,0.0,0.0,0.0,0.0,0.0,0.0,0.0,0.0,0.0,0.0,0.0,0.0,0.0,0.0,0.0,0.0,0.0,0.0,0.0,0.0,0.0,0.0,0.0,0.0,0.0,0.0,0.0,0.0,0.0,0.0,0.0,0.0,0.0,0.0,0.0,0.0,0.0,0.0,0.0,0.0,0.0,0.0,0.0,0.0,0.0,0.0,0.0,0.0,0.0,0.0,0.0,0.0,0.0,0.0,0.0,0.0,0.0,0.0,0.0,0.0,-3.9308,0.0,0.0,0.0,0.0,0.0,0.0,0.0,0.0,0.0,0.0,0.0,0.0,0.0,0.0,0.0,0.0,0.0,0.0,0.0,0.0,0.0,0.0,0.0,0.0,0.0,0.0,0.0,0.0,0.0,0.0,0.0,0.0,0.0,0.0,0.0,0.0,0.0,0.0,0.0,0.0,-4.0995,-4.4022,-4.5781,-4.5781,-4.5781,-4.5052,-4.3168,-4.246,-4.0906,-3.813,-3.6107,0.0,0.0,0.0,0.0,0.0,0.0,0.0,0.0,0.0,0.0,0.0,0.0,0.0,0.0,0.0,0.0,0.0,0.0,0.0,0.0,0.0,0.0,0.0,0.0,0.0,0.0,0.0,0.0,0.0,0.0,0.0,0.0,0.0,0.0,0.0,0.0,0.0,0.0,0.0,0.0,0.0,0.0,0.0,0.0,0.0,0.0,0.0,0.0,0.0,0.0,0.0,0.0,0.0,-4.5711,-4.5781,-4.5682,-4.6278,-4.6212,-4.5582,-4.439,-4.316,-4.2014,-4.0612,0.0,0.0,0.0,0.0,0.0,0.0,0.0,0.0,0.0,0.0,0.0,0.0,0.0,0.0,0.0,0.0,0.0,0.0,0.0,0.0,0.0,0.0,0.0,0.0,-4.1044,-3.9951,0.0,0.0,0.0,0.0,0.0,0.0,0.0,0.0,0.0,0.0,0.0,0.0,-4.1143,-4.4059,-4.5781,-4.5781,-4.5781,-4.5218,-4.3731,-4.2903,-4.1768,-4.0059,-3.8325,-3.6056,0.0,0.0,0.0,0.0,0.0,0.0,0.0,0.0,0.0,0.0,0.0,0.0,0.0,0.0,0.0,0.0,0.0,0.0,0.0,0.0,0.0,0.0,0.0,0.0,0.0,0.0,0.0,0.0,0.0,0.0,0.0,0.0,-4.217,-4.2307,0.0,0.0,0.0,0.0,0.0,0.0,0.0,0.0,0.0,0.0,0.0,0.0,0.0,-4.3992,-4.5381,-4.7304,-4.8033,-4.7636,-4.9525,-5.0088,-4.9491,-4.9591,-4.9591,-4.9458,-4.9293,0.0,-4.4188,-4.273,0.0,0.0,0.0,0.0,0.0,0.0,0.0,0.0,0.0,0.0,0.0,0.0,0.0,0.0,0.0,0.0,0.0,0.0,0.0,0.0,0.0,0.0,-4.323,-4.3959,-4.3661,-4.3002,0.0,-3.8261,-3.4319,-3.3392,-3.2199,0.0,0.0,0.0,0.0,0.0,0.0,0.0,-4.1877,-4.4357,-4.5781,-4.5781,-4.5781,-4.5218,-4.3731,-4.2903,-4.2402,-4.2104,-3.9553,-3.7864,-3.7392,-3.4403,0.0,0.0,0.0,0.0,0.0,0.0,0.0,0.0,0.0,0.0,0.0,0.0,0.0,0.0,0.0,0.0,0.0,0.0,0.0,0.0,0.0,0.0,0.0,0.0,0.0,0.0,0.0,0.0,0.0,-4.217,-4.3595,-4.3168,-4.2837,-4.2071,0.0,0.0,0.0,0.0,0.0,0.0,0.0,0.0,0.0,-4.5881,-4.6046,-4.6775,-4.8266,-4.9657,-5.0386,-5.0485,-5.1481,-5.1744,-5.1446,-5.1446,-5.1446,-5.1446,-5.1446,-5.0286,-4.8199,-4.5483,-4.3562,-4.2166,0.0,0.0,0.0,0.0,-4.0255,-4.0514,-4.2071,-4.1905,0.0,-3.9852,0.0,0.0,0.0,0.0,0.0,0.0,0.0,0.0,0.0,0.0,0.0,-4.5748,-4.5682,-4.5351,-4.492,-4.2204,-3.899,0.0,-3.5148,-3.4031,-3.1946,0.0,0.0,0.0,0.0,0.0,-4.2142,-4.4059,-4.5185,-4.5185,-4.5185,-4.4754,-4.3698,-4.33,-4.2936,-4.2506,-4.1314,-4.0282,-3.9454,-3.7153,-3.5011,0.0,0.0,0.0,0.0,0.0,0.0,0.0,0.0,0.0,0.0,0.0,0.0,0.0,0.0,0.0,0.0,0.0,0.0,0.0,0.0,0.0,0.0,0.0,0.0,0.0,0.0,0.0,0.0,-4.386,-4.492,-4.3992,-4.436,-4.3827,0.0,0.0,0.0,0.0,0.0,0.0,-4.5483,-4.6245,-4.7073,-4.8001,-4.8564,-4.9458,-5.075,-5.128,-5.1879,-5.2409,-5.2409,-5.2409,-5.2409,-5.2409,-5.2409,-5.2409,-5.2409,-5.2111,-5.1348,-4.8199,-4.6378,-4.5351,-4.3529,-4.27,-4.27,-4.3962,-4.4426,-4.4721,-4.6543,-4.6709,-4.5748,-4.3761,0.0,-4.0939,-3.7798,0.0,0.0,0.0,0.0,-4.1905,-4.3694,-4.5119,-4.6278,-4.7007,-4.7173,-4.6974,-4.6245,-4.5218,-4.3234,0.0,-3.8195,-3.7069,-3.4319,0.0,0.0,0.0,0.0,-4.0547,-4.2506,-4.3893,-4.4688,-4.4688,-4.4688,-4.439,-4.3664,-4.3598,-4.3367,-4.2804,-4.2605,-4.2038,-4.0978,-3.9355,-3.7658,-3.5874,0.0,0.0,0.0,0.0,0.0,0.0,0.0,0.0,0.0,0.0,0.0,0.0,0.0,0.0,0.0,0.0,0.0,0.0,0.0,0.0,0.0,0.0,0.0,0.0,0.0,0.0,0.0,0.0,0.0,-4.4821,-4.651,0.0,0.0,0.0,0.0,-4.5582,-4.6311,-4.7073,-4.7802,-4.8531,-4.9591,-5.105,-5.1116,-5.1514,-5.2274,-5.2343,-5.234,-5.2409,-5.2409,-5.2409,-5.2409,-5.2409,-5.2409,-5.2409,-5.2409,-5.2409,-5.2243,-5.0651,-4.9127,-4.7736,-4.6941,-4.6212,-4.5649,-4.6444,-4.6742,-4.6841,-4.7669,-4.7471,-4.6941,-4.7504,-4.6212,-4.4191,-4.2601,-4.2142,0.0,0.0,-4.28,-4.4655,-4.5483,-4.6245,-4.704,-4.7769,-4.7934,-4.7736,-4.7007,-4.6775,-4.5847,0.0,-4.1143,-4.0177,-4.0011,0.0,-3.9282,-4.0011,-4.0779,-4.1844,-4.3333,-4.4224,-4.4688,-4.4688,-4.4688,-4.439,-4.3664,-4.3598,-4.3565,-4.3532,-4.287,-4.2473,-4.2373,-4.0348,-3.8884,-3.8063,-3.5181,0.0,0.0,0.0,0.0,0.0,0.0,0.0,0.0,0.0,0.0,0.0,0.0,0.0,0.0,0.0,0.0,0.0,0.0,0.0,0.0,0.0,0.0,0.0,0.0,0.0,0.0,0.0,0.0,-4.6874,-4.7934,0.0,-4.5251,-4.5914,-4.6908,-4.7868,-4.9028,-5.022,-5.1413,-5.2175,-5.2605,-5.2638,-5.2638,-5.2572,-5.2409,-5.2409,-5.2409,-5.2409,-5.2409,-5.2409,-5.2409,-5.2409,-5.2409,-5.2409,-5.2409,-5.2409,-5.234,-5.181,-5.1015,-5.0021,-4.9326,-4.8862,-4.873,-4.9458,-4.9723,-4.9857,-5.0551,-5.032,-4.9591,-4.8928,-4.7868,-4.6709,-4.6212,-4.6046,-4.598,-4.5715,-4.6212,-4.6874,-4.7139,-4.7404,-4.7669,-4.7934,-4.8001,-4.7934,-4.7669,-4.7239,-4.6576,-4.5549,-4.3794,-4.2005,-4.0641,-4.0514,-4.0746,-4.1011,-4.1674,-4.2473,-4.3466,-4.383,-4.3992,-4.3992,-4.3992,-4.3863,-4.3598,-4.3168,-4.287,-4.287,-4.2175,-4.1778,-4.1778,-4.0647,-3.968,-3.8917,-3.6936,-3.4508,0.0,0.0,0.0,0.0,0.0,0.0,0.0,0.0,0.0,0.0,0.0,0.0,0.0,0.0,0.0,0.0,0.0,0.0,0.0,0.0,0.0,0.0,0.0,0.0,0.0,0.0,-4.8663,-4.8398,-4.9657,-4.979,-4.7835,-4.8763,-4.9889,-5.085,-5.181,-5.2771,-5.3732,-5.4225,-5.4162,-5.3434,-5.34,-5.3069,-5.2409,-5.2409,-5.2409,-5.2409,-5.2409,-5.2409,-5.2409,-5.2409,-5.2409,-5.2409,-5.2409,-5.2409,-5.2409,-5.2409,-5.2111,-5.1647,-5.1115,-5.0949,-5.1015,-5.1479,-5.168,-5.1746,-5.2243,-5.1945,-5.1149,-5.0154,-4.9359,-4.8763,-4.8763,-4.8763,-4.8763,-4.8763,-4.8564,-4.8365,-4.8365,-4.8199,-4.8001,-4.8001,-4.8001,-4.8001,-4.8001,-4.7636,-4.7206,-4.6941,-4.5317,-4.3529,-4.21,-4.2005,-4.2142,-4.2142,-4.2539,-4.3035,-4.3532,-4.3598,-4.3598,-4.3598,-4.3598,-4.3499,-4.3234,-4.2771,-4.2373,-4.2142,-4.1645,-4.1409,-4.1409,-4.0514,-3.9812,-3.9315,-3.7367,-3.5512,-3.3789,0.0,0.0,0.0,0.0,0.0,0.0,0.0,0.0,0.0,0.0,0.0,0.0,0.0,0.0,0.0,0.0,0.0,0.0,0.0,0.0,0.0,0.0,0.0,-4.5715,-4.8431,-4.9988,-4.9359,-5.1744,-5.2904,-5.1547,-5.3268,-5.449,-5.4523,-5.4523,-5.4523,-5.4593,-5.4523,-5.4192,-5.3467,-5.3434,-5.3069,-5.2409,-5.2409,-5.2409,-5.2409,-5.2409,-5.2409,-5.2409,-5.2409,-5.2409,-5.2409,-5.2409,-5.2409,-5.2409,-5.2409,-5.2409,-5.2409,-5.2409,-5.2409,-5.2409,-5.2409,-5.2409,-5.2409,-5.2409,-5.1945,-5.1348,-5.1348,-5.085,-5.0286,-5.0286,-5.0286,-5.0286,-5.0253,-4.9723,-4.9127,-4.9127,-4.8564,-4.8001,-4.8001,-4.8001,-4.8001,-4.8001,-4.8001,-4.7802,-4.7073,-4.5748,-4.4754,-4.4752,-4.4125,-4.3631,-4.3631,-4.3598,0.0,-4.3598,-4.3598,-4.3598,-4.3598,-4.3598,-4.33,-4.2605,-4.2473,-4.2142,-4.1475,-4.1375,-4.1314,-4.1314,-4.005,-3.9315,-3.9315,-3.6506,-3.5379,-3.6042,0.0,0.0,0.0,0.0,0.0,0.0,0.0,0.0,0.0,0.0,0.0,0.0,0.0,0.0,0.0,0.0,0.0,0.0,0.0,0.0,0.0,0.0,-4.7934,-4.8862,-5.0154,-5.1479,-5.287,-5.3732,-5.4063,-5.3665,-5.4162,-5.4688,-5.5251,-5.5284,-5.5554,-5.6051,-5.562,-5.4953,-5.4229,-5.3699,-5.3069,-5.2409,-5.2409,-5.2409,-5.2409,-5.2409,-5.2409,-5.2409,-5.2409,-5.2409,-5.2409,-5.2409,-5.2409,-5.2409,-5.2409,-5.2409,-5.2409,-5.2409,-5.2409,-5.2409,-5.2409,-5.2409,-5.2409,-5.2409,-5.2277,-5.2111,-5.2111,-5.1943,-5.1777,-5.1777,-5.1777,-5.1678,-5.1148,-5.0452,-4.979,-4.926,-4.8564,-4.8001,-4.8001,-4.8001,-4.8001,-4.8001,-4.8001,-4.7934,-4.7736,-4.6941,-4.6113,-4.5582,-4.4887,-4.439,-4.439,-4.3959,0.0,-4.3598,-4.3598,-4.3598,-4.3598,-4.3598,-4.3499,-4.33,-4.2307,-4.1612,-4.1413,-4.0448,-3.9879,-3.9879,-4.0011,-4.0111,-4.0111,-3.8785,-3.7665,0.0,0.0,0.0,0.0,0.0,0.0,0.0,0.0,0.0,0.0,0.0,0.0,0.0,0.0,0.0,0.0,0.0,0.0,0.0,0.0,0.0,0.0,-4.7669,-5.0485,-5.181,-5.2108,-5.287,-5.4721,-5.4953,-5.5052,-5.5388,-5.5421,-5.562,-5.6051,-5.6084,-5.6249,-5.668,-5.6017,-5.5251,-5.449,-5.3798,-5.3069,-5.2409,-5.2409,-5.2409,-5.2409,-5.2409,-5.2409,-5.2409,-5.2409,-5.2409,0.0,-5.2409,-5.2409,-5.2409,-5.2409,-5.2409,0.0,0.0,0.0,0.0,0.0,-5.2409,-5.2409,-5.2409,-5.2409,-5.2409,-5.2409,-5.2409,-5.2409,-5.2409,-5.2409,-5.231,-5.1879,-5.1015,-5.0121,-4.969,-4.8796,-4.8001,-4.8001,-4.8001,-4.8001,-4.8001,-4.8001,-4.8001,-4.8001,-4.7636,0.0,-4.6808,-4.5847,-4.5152,-4.5152,-4.4787,-4.4522,-4.4522,-4.4522,-4.4522,-4.4522,-4.4257,-4.3959,-4.3631,-4.2506,0.0,0.0,0.0,-3.9721,-3.9501,-4.0167,0.0,0.0,0.0,0.0,0.0,0.0,0.0,0.0,-3.9209,-3.8765,0.0,0.0,0.0,0.0,0.0,0.0,0.0,0.0,0.0,0.0,0.0,0.0,0.0,0.0,0.0,0.0,-5.0452,-5.2208,-5.4229,-5.403,-5.4162,-5.5549,-5.5714,-5.5984,-5.6614,-5.668,-5.668,-5.668,-5.668,-5.6647,-5.6581,0.0,0.0,0.0,0.0,-5.3003,-5.2409,-5.2409,-5.2409,-5.2409,-5.2409,-5.2409,-5.2409,-5.2409,-5.2409,-5.2409,-5.2409,-5.2409,-5.2409,-5.2409,-5.2409,-5.2409,-5.2409,-5.2409,-5.2409,-5.2409,-5.2409,-5.2409,-5.2409,0.0,0.0,-5.2409,-5.2409,-5.2409,-5.2409,-5.2409,-5.2409,-5.2409,-5.138,-5.032,-5.022,-4.916,-4.81,-4.8034,-4.8001,-4.8001,-4.8001,-4.8001,-4.8001,-4.8001,-4.8001,-4.8001,-4.8001,-4.6841,-4.5914,-4.5914,-4.5847,-4.5781,-4.5781,-4.5781,-4.5781,-4.5781,0.0,0.0,-4.3896,-4.3168,-4.2237,-4.0973,-4.0917,-4.0727,-4.0287,-4.0889,-4.1552,-4.2194,-4.239,-4.3427,-4.5303,-4.6136,-4.6907,-4.751,-4.191,-4.1072,0.0,0.0,0.0,0.0,0.0,0.0,0.0,0.0,0.0,0.0,0.0,0.0,0.0,0.0,0.0,-4.8995,-5.1313,-5.3367,-5.4357,-5.4887,-5.5521,-5.6382,-5.6481,-5.6514,-5.668,-5.668,-5.668,-5.668,-5.668,-5.6448,-5.5852,-5.5085,-5.4357,-5.3665,-5.2937,-5.2506,-5.2409,-5.2409,-5.2409,-5.2409,0.0,0.0,-5.2409,-5.2409,-5.2409,-5.2409,-5.2409,-5.2409,-5.2409,-5.2409,-5.2409,-5.2409,-5.2409,-5.2409,-5.2409,-5.2409,-5.2409,-5.2409,-5.2409,-5.2409,-5.2409,-5.2409,-5.2409,-5.2409,-5.2409,-5.2409,0.0,-5.2409,-5.1779,-5.0949,-5.0353,-4.9558,-4.8763,-4.8133,-4.8001,-4.8001,-4.8001,-4.8001,-4.8001,-4.8001,-4.8001,-4.8001,-4.8001,-4.7272,-4.6676,-4.6676,-4.6179,-4.5781,-4.5781,-4.5781,-4.5781,-4.5781,-4.5649,-4.5516,-4.5384,-4.4688,-4.4158,-4.389,-4.3359,-4.3227,-4.3717,-4.3879,-4.3983,-4.4178,-4.5493,-4.6088,-4.5924,-4.7256,-4.8354,-4.9118,-4.7223,-4.6729,0.0,0.0,0.0,0.0,0.0,0.0,0.0,0.0,0.0,0.0,0.0,-4.5052,-4.6179,0.0,-5.0419,-5.1148,-5.3102,-5.4622,-5.4986,-5.5719,-5.6282,-5.6647,-5.668,-5.668,-5.668,-5.668,-5.668,-5.668,-5.668,-5.6382,-5.5615,-5.4887,-5.4162,-5.3434,-5.2738,-5.2409,-5.2409,-5.2409,-5.2409,-5.2409,-5.2409,-5.2409,-5.2409,-5.2409,-5.2409,-5.2409,-5.2409,-5.2409,-5.2409,-5.2409,-5.2409,-5.2409,-5.2409,-5.2409,-5.2409,-5.2409,-5.2409,-5.2409,-5.2409,-5.2409,-5.2409,-5.2409,-5.2409,-5.2409,-5.2409,-5.2409,-5.2409,-5.2409,-5.1879,-5.1216,-5.085,-5.022,-4.9458,-4.873,-4.8564,-4.8465,-4.8067,-4.8001,-4.8001,-4.8001,-4.8001,-4.8001,-4.8001,-4.7703,-4.7438,-4.7438,-4.7139,-4.6908,-4.6908,-4.6908,-4.6908,-4.6908,-4.6576,-4.6344,-4.6344,-4.5443,-4.49,-4.505,-4.4716,-4.4741,-4.5169,-4.5905,-4.6505,-4.684,-4.8039,-4.8642,-4.8675,-4.975,-5.0522,-5.0956,-5.0826,-5.0492,0.0,0.0,0.0,0.0,0.0,0.0,0.0,0.0,-4.3098,-4.4558,-4.5947,-4.7404,-4.9193,-5.0717,-5.2075,-5.3235,-5.4622,-5.5549,-5.5383,-5.6017,-5.6415,-5.6282,-5.6514,-5.668,-5.668,-5.668,-5.668,-5.668,-5.6547,-5.615,-5.5416,-5.4688,-5.3964,-5.3235,-5.2672,-5.2409,-5.2409,-5.2409,-5.2409,-5.2409,-5.2409,-5.2409,-5.2409,-5.2409,-5.2409,-5.2409,-5.2409,-5.2409,-5.2445,-5.2445,-5.2445,-5.2445,-5.2445,-5.2409,-5.2409,-5.2409,-5.2409,-5.2409,-5.2409,-5.2409,-5.2409,-5.2409,-5.2409,-5.2409,-5.2409,-5.2409,-5.2409,-5.2409,-5.1978,-5.1481,-5.1348,-5.085,-5.022,-4.9491,-4.9326,-4.9127,-4.8398,-4.8265,-4.8265,-4.8067,-4.8066,-4.8099,-4.8001,-4.8033,-4.8033,-4.8001,-4.8001,-4.8001,-4.8001,-4.8001,-4.8001,-4.8001,-4.7503,-4.717,-4.7202,-4.6262,-4.5845,-4.6189,-4.6283,-4.641,-4.6634,-4.7781,-4.8692,-4.9331,-5.0071,-5.0779,-5.1389,-5.2099,-5.2503,-5.2536,-5.3011,-5.2774,-4.1036,-3.9668,-3.9125,-4.1757,-4.1922,-4.2633,0.0,0.0,-4.7703,-4.916,-5.0121,-5.0785,-5.1017,-5.2208,-5.3235,-5.3367,-5.4622,-5.535,-5.4688,-5.5251,-5.545,-5.4825,-5.5885,-5.668,-5.668,-5.668,-5.668,-5.668,-5.6084,-5.5383,-5.4655,-5.393,-5.3202,-5.2506,-5.2407,-5.2409,-5.2409,-5.2409,-5.2409,-5.2409,-5.2409,-5.2409,-5.2409,-5.2409,-5.2409,-5.2409,-5.2409,-5.248,-5.2553,-5.2553,-5.2553,-5.2553,-5.2553,-5.2516,-5.2409,-5.2409,-5.2409,-5.2409,-5.2409,-5.2409,-5.2409,-5.2409,-5.2409,-5.2409,-5.2409,-5.2409,-5.2409,-5.2409,-5.2343,-5.2144,-5.1481,-5.1249,-5.0982,-5.0253,-5.0157,-5.0059,-4.9293,-4.9292,-4.919,-4.8328,-4.8324,-4.8356,-4.8066,-4.8131,-4.813,-4.8033,-4.8001,-4.8001,-4.8001,-4.8001,-4.8001,-4.8001,-4.8032,-4.8126,-4.8286,-4.8184,-4.8383,-4.9085,-4.9152,-4.942,-5.0089,-5.029,-5.0424,-5.0524,-5.1395,-5.1932,-5.2,-5.2741,-5.3213,-5.3382,-5.3247,-5.3145,-4.3297,-4.3016,0.0,0.0,-4.4973,-4.6024,-4.8531,-4.8862,-4.9061,-5.0518,-5.1116,-5.1448,-5.1879,-5.2738,-5.34,0.0,-5.4258,-5.4821,-5.4523,-5.4754,-5.4821,-5.456,-5.5057,-5.5421,-5.5421,-5.5421,-5.5421,-5.5421,-5.5156,-5.4622,-5.393,-5.3599,-5.3102,-5.2442,-5.2409,-5.2409,-5.2409,-5.2409,-5.2409,-5.2409,-5.2409,-5.2409,-5.2409,-5.2409,-5.2445,-5.2516,-5.2516,-5.2589,-5.2764,-5.2764,-5.2764,-5.2764,-5.2764,-5.2729,-5.2692,-5.2587,-5.2516,-5.2551,-5.2624,-5.2692,-5.2764,-5.3145,-5.3008,-5.2764,-5.3145,-5.3007,-5.2692,-5.2692,-5.2692,-5.2592,-5.2327,-5.2227,-5.206,-5.1292,-5.116,-5.1028,-5.0259,-5.0192,-5.0124,-4.9724,-4.9676,-4.9531,-4.9024,-4.891,-4.8765,-4.8356,-4.8163,-4.8131,-4.8131,-4.8195,-4.8292,-4.8292,-4.8324,-4.8452,-4.8675,-4.9078,-4.948,-4.9845,-5.0283,-5.0653,-5.0956,-5.1427,-5.1629,-5.1629,-5.2471,-5.291,-5.291,-5.3214,-5.3416,-5.3518,-5.3855,-5.4228,-4.4556,0.0,0.0,-4.6311,-4.7504,-4.8796,-4.9558,-4.9856,-5.032,-5.1382,-5.1614,-5.1779,-5.231,-5.2937,-5.34,-5.34,-5.403,-5.446,-5.4225,-5.4192,-5.4162,-5.3964,-5.393,-5.393,-5.393,-5.4295,-5.449,-5.449,-5.4291,-5.3927,-5.3434,-5.3235,-5.2904,-5.2442,-5.2409,-5.2409,-5.2409,-5.2409,-5.2409,-5.2409,-5.2409,-5.2409,-5.2409,-5.2445,-5.2589,-5.287,-5.2939,-5.3179,-5.3516,-5.3516,-5.3516,-5.3516,-5.3516,-5.3483,-5.3416,-5.3315,-5.3179,-5.2973,-5.3111,-5.3281,-5.3482,-5.4008,-5.3813,-5.3482,-5.4008,-5.3813,-5.3449,-5.3449,-5.3449,-5.3449,-5.3449,-5.3449,-5.3314,-5.2738,-5.2669,-5.2499,-5.1785,-5.1647,-5.1611,-5.1342,-5.1271,-5.0986,-5.0308,-5.0116,-4.9865,-4.9214,-4.9022,-4.8823,-4.8325,-4.842,-4.8515,-4.8578,-4.8578,-4.8742,-4.9135,-4.9641,-5.0177,-5.0676,-5.1217,-5.1623,-5.1826,-5.2367,-5.2638,-5.2638,-5.3213,-5.3518,-5.3518,-5.3518,-5.3619,-5.3822,-5.4329,-5.4975,0.0,0.0,-4.6146,-4.757,-4.9061,-5.032,-5.1083,-5.1812,-5.2307,-5.2376,-5.2376,-5.2376,-5.2409,-5.2937,-5.34,-5.34,-5.403,-5.4262,-5.3496,-5.3434,-5.3202,-5.2539,-5.2475,-5.2475,0.0,-5.3699,-5.449,-5.449,-5.3864,-5.3434,-5.34,-5.2771,-5.2442,-5.2409,-5.2409,-5.2409,-5.2409,-5.2409,-5.2409,-5.2409,-5.2409,-5.2409,-5.2409,-5.2518,-5.2973,-5.3581,-5.3781,-5.4296,-5.5004,-5.5004,-5.5004,-5.5004,-5.5004,-5.4878,-5.4787,-5.4944,-5.4548,-5.3879,-5.3879,-5.4261,-5.4722,-5.4752,-5.4752,-5.4722,-5.4752,-5.4752,-5.4722,-5.4722,-5.4722,-5.4722,-5.4722,-5.4722,-5.4722,-5.4687,-5.4844,-5.479,-5.4051,-5.3993,-5.3841,-5.2984,-5.2923,-5.2723,-5.1806,-5.171,-5.1555,-5.0758,-5.0791,-5.032,-4.8716,-4.8483,-4.8578,-4.8769,-4.8769,-4.9167,-4.9999,-5.0067,-5.071,-5.2131,-5.2266,-5.2638,-5.3416,-5.345,-5.345,-5.345,-5.3484,-5.3518,-5.3518,-5.3518,-5.3856,-5.4566,-5.4566,-5.4972,0.0,0.0,-4.7603,-4.9094,-5.0187,-5.1115,-5.1879,-5.2243,-5.2277,-5.1779,-5.168,-5.1547,-5.1015,-5.1512,-5.2009,-5.2009,-5.2605,-5.3003,-5.2771,-5.2738,-5.2638,-5.2442,-5.2409,0.0,0.0,0.0,0.0,-5.3102,-5.287,-5.2738,-5.2738,-5.2506,-5.2409,-5.2409,-5.2409,-5.2409,-5.2409,-5.2409,-5.2409,-5.2409,-5.2516,-5.2765,-5.3213,-5.3382,-5.3878,-5.4606,-5.4672,-5.4948,-5.5278,-5.5278,-5.5278,-5.5278,-5.5278,-5.5249,-5.5219,-5.5278,-5.5367,-5.5455,-5.5039,-5.5039,-5.5243,-5.5652,-5.5507,-5.5243,-5.5652,-5.5507,-5.5184,-5.5184,-5.5184,-5.5184,-5.5184,-5.5184,-5.5184,-5.5184,-5.5249,-5.5238,-5.4992,-5.4952,-5.4911,-5.4636,-5.4173,-5.3591,-5.2873,-5.2337,-5.1813,-5.1119,-5.099,-5.0821,-5.0349,-5.0313,-5.0313,-5.0377,-5.0377,-5.0511,-5.0811,-5.1285,-5.1758,-5.2266,-5.2807,-5.3213,-5.3484,-5.3518,-5.3718,-5.4074,-5.4074,-5.4074,-5.4074,-5.4588,-5.4691,-5.4485,-5.5479,-5.6556,-4.6179,-4.7669,-4.9094,-5.0286,-5.1148,-5.1846,-5.231,-5.221,-5.1812,-5.1048,-5.0684,-5.0286,-4.9558,-5.0021,-5.0585,-5.085,-5.1547,-5.2111,-5.234,-5.2409,-5.2409,-5.2409,-5.2409,-5.2409,0.0,0.0,0.0,-5.2409,-5.2409,-5.2409,-5.2409,-5.2409,-5.2409,-5.2409,-5.2409,-5.2409,-5.2409,-5.2409,-5.2409,-5.248,-5.3009,-5.3449,-5.3714,-5.4136,-5.473,-5.542,-5.5478,-5.5716,-5.6027,-5.6027,-5.6027,-5.6027,-5.6027,-5.6027,-5.6027,-5.6027,-5.6311,-5.6528,-5.595,-5.5858,-5.6083,-5.6501,-5.6366,-5.6111,-5.6501,-5.6366,-5.6027,-5.6027,-5.6027,-5.6027,-5.6027,-5.6027,-5.6027,-5.6027,-5.6027,-5.6027,-5.6027,-5.6027,-5.6027,-5.6027,-5.5636,-5.5086,-5.4484,-5.3739,-5.3125,-5.276,-5.2635,-5.2243,-5.1317,-5.1185,-5.1185,-5.1185,-5.1185,-5.1319,-5.1589,-5.2029,-5.2435,-5.2706,-5.3412,-5.3816,-5.3816,-5.3816,-5.4011,-5.4391,-5.4391,-5.4391,-5.4391,-5.5095,-5.5359,-5.5181,-5.6435,-5.7464,-4.7669,-4.9127,-5.0452,-5.1183,-5.1879,-5.2409,-5.2376,-5.1779,-5.1015,-5.0253,-4.9525,-4.8763,0.0,0.0,-4.9326,-5.0055,-5.0817,-5.1614,-5.231,-5.2409,-5.2409,0.0,0.0,0.0,0.0,0.0,0.0,-5.2409,0.0,-5.2409,-5.2409,-5.2409,-5.2409,-5.2409,-5.2445,-5.2445,-5.2445,-5.2516,-5.2553,-5.2729,-5.4006,-5.4388,-5.4008,-5.4826,-5.5507,-5.6067,-5.6248,-5.6661,-5.7188,-5.7188,-5.7188,-5.7188,-5.7188,-5.7188,-5.7188,-5.7188,-5.7188,-5.7112,-5.6528,-5.6714,-5.7188,-5.7188,-5.7188,-5.7188,-5.7188,-5.7188,-5.7188,-5.7188,-5.7188,-5.7188,-5.7188,-5.7188,-5.7188,-5.7188,-5.7188,-5.7188,-5.7188,-5.7188,-5.7188,-5.7188,-5.7163,-5.6984,-5.6366,-5.578,-5.5402,-5.5402,-5.5402,-5.4425,-5.1745,-5.1415,-5.1415,-5.1415,-5.1383,-5.1656,-5.2365,-5.24,-5.2706,-5.345,-5.4076,-5.4391,-5.4391,-5.4391,-5.4422,-5.4516,-5.4454,-5.4454,-5.4516,-5.5164,-5.5883,-5.6556,-5.7359,-5.7811,-4.8431,-4.9889,-5.1181,-5.1945,-5.2277,-5.2277,-5.1713,-5.1015,-5.0121,-4.8829,-4.7968,-4.7239,0.0,0.0,0.0,-4.9359,-5.0916,0.0,-5.2376,-5.2409,0.0,-5.2409,0.0,-5.2409,-5.2409,-5.2409,0.0,0.0,-5.2409,-5.2409,-5.2409,-5.2409,-5.2409,-5.2409,-5.287,-5.3145,-5.3145,-5.3747,-5.4134,-5.4259,-5.4761,-5.5154,-5.5472,-5.5858,-5.6303,-5.6897,-5.6959,-5.7061,-5.7188,-5.7188,-5.7188,-5.7188,-5.7188,-5.7188,-5.7188,-5.7188,-5.7188,-5.7163,-5.7036,-5.7061,-5.7188,-5.7188,-5.7188,-5.7188,-5.7188,-5.7188,-5.7188,-5.7188,-5.7188,-5.7188,-5.7188,-5.7188,-5.7188,-5.7188,-5.7188,-5.7188,-5.7188,-5.7188,-5.7188,-5.7188,-5.6855,-5.6339,-5.5716,-5.5519,-5.5402,-5.5402,-5.5402,-5.5144,-5.4425,-5.433,-5.433,-5.433,-5.3901,-5.3656,-5.3827,-5.3444,-5.3281,-5.3484,-5.4076,-5.4391,-5.4391,-5.4391,-5.4857,-5.5801,-5.5332,-5.5302,-5.5801,-5.6546,-5.6986,-5.7256,-5.8017,-5.8952,-4.9657,-5.0883,-5.1812,-5.1912,-5.1945,-5.158,-5.0154,-4.9525,-4.863,-4.651,-4.6013,0.0,0.0,0.0,0.0,0.0,0.0,0.0,-5.2307,-5.2409,-5.2409,0.0,-5.2409,0.0,-5.2409,-5.2409,-5.2409,0.0,-5.2409,-5.2409,-5.2409,-5.2659,-5.287,-5.2939,-5.3582,-5.3941,-5.4006,-5.4757,-5.5059,-5.4939,-5.5623,-5.6027,-5.613,-5.6528,-5.6907,-5.7188,0.0,-5.7188,-5.7188,-5.7188,-5.7188,-5.7188,-5.7188,-5.7188,-5.7188,-5.7188,-5.7188,-5.7188,-5.7188,-5.7188,-5.7188,-5.7188,-5.7188,-5.7188,-5.7188,-5.7188,-5.7188,-5.7188,-5.7188,-5.7188,-5.7188,-5.7188,-5.7188,-5.7188,-5.7188,-5.7188,-5.7188,-5.7188,-5.7188,-5.7188,-5.6933,-5.6582,-5.6257,-5.6166,-5.6166,-5.6166,-5.6166,-5.6166,-5.6166,-5.5716,-5.5402,-5.5402,-5.5039,-5.4734,-5.4422,-5.4362,-5.4205,-5.3913,-5.4734,-5.5214,-5.5214,-5.5214,-5.5572,-5.6284,-5.5943,-5.5943,-5.6311,-5.7343,-5.7873,-5.7936,-5.9059,-6.0195,-5.0951,-5.1846,-5.2243,-5.1481,-5.1249,-5.0551,-4.8365,-4.7703,-4.6775,-4.3995,0.0,-4.3661,-4.1773,-4.3661,-4.5814,-4.6742,0.0,-5.0618,-5.2175,-5.2409,-5.2409,-5.2409,-5.2409,-5.2409,-5.2409,-5.2409,-5.2409,-5.2409,-5.2409,-5.2445,-5.2551,-5.3076,-5.3516,-5.3844,-5.4447,-5.4878,-5.5084,-5.5645,-5.5766,-5.5391,-5.6501,-5.6829,-5.642,-5.6984,-5.7188,-5.7188,-5.7188,0.0,-5.7188,-5.7188,-5.7188,-5.7188,-5.7188,-5.7188,-5.7188,-5.7188,-5.7188,-5.7224,-5.7333,-5.7369,-5.7333,-5.7224,-5.7188,-5.7188,-5.7188,-5.7188,-5.7188,-5.7188,-5.7188,-5.7188,-5.7188,-5.7188,-5.7188,-5.7188,-5.7188,-5.7188,-5.7188,-5.7188,-5.7188,-5.7188,-5.7188,-5.7188,-5.7188,-5.7188,-5.7188,-5.7188,-5.7188,-5.7188,-5.7188,-5.6311,-5.5629,-5.5629,-5.5578,-5.5278,-5.4703,-5.5099,-5.5129,-5.4579,-5.5658,-5.6311,-5.6311,-5.6418,-5.6446,-5.642,-5.6553,-5.6589,-5.6599,-5.7897,-5.8673,-5.8927,-6.0339,-6.1435,-5.1284,-5.1846,-5.2243,-5.1481,-5.0817,-4.9823,-4.7603,-4.6146,0.0,0.0,0.0,-4.1872,-4.1475,-4.2804,0.0,-4.6576,0.0,0.0,0.0,0.0,-5.2409,0.0,0.0,0.0,0.0,0.0,0.0,0.0,0.0,-5.2624,-5.3213,-5.3315,-5.3975,-5.5214,-5.5478,-5.5907,-5.6608,-5.6714,-5.6793,-5.6845,-5.7061,-5.7112,-5.7061,-5.7138,-5.7188,-5.7188,-5.7188,0.0,-5.7188,-5.7188,-5.7188,-5.7188,-5.7188,-5.7188,-5.7188,-5.7188,-5.7188,-5.7297,-5.7949,-5.8202,-5.8094,-5.7406,-5.7188,-5.7188,-5.7188,-5.7188,-5.7188,-5.7188,-5.7188,-5.7188,-5.7188,-5.7188,-5.7188,-5.7188,-5.7188,-5.7188,-5.7188,-5.7188,-5.7188,-5.7188,-5.7188,-5.7188,-5.7188,-5.7188,-5.7188,-5.7188,-5.7188,-5.7188,-5.7188,-5.7036,-5.6871,-5.6871,-5.6447,-5.6118,-5.5971,-5.5601,-5.5337,-5.5154,-5.5887,-5.6311,-5.6311,-5.6946,-5.72,-5.7036,-5.7872,-5.8195,-5.8011,-5.8947,-6.0086,-6.1362,-6.1652,-6.2585,-5.1926,-5.2287,-5.2285,-5.1258,-5.0358,-4.8962,-4.6036,0.0,0.0,0.0,0.0,-4.1177,-4.0448,0.0,0.0,0.0,0.0,0.0,0.0,0.0,0.0,0.0,0.0,0.0,0.0,0.0,0.0,0.0,0.0,-5.3179,-5.3482,-5.429,-5.5238,-5.6311,-5.6438,-5.6714,-5.7087,-5.7087,-5.7138,-5.7188,-5.7188,-5.7188,-5.7188,-5.7188,-5.7188,-5.7188,-5.7188,0.0,-5.7188,-5.7188,-5.7188,-5.7188,-5.7188,-5.7188,-5.7261,-5.7659,-5.7804,-5.7949,-5.8746,-5.9035,-5.8963,-5.8565,-5.8456,-5.8456,-5.8456,-5.8166,-5.7804,-5.7804,-5.7514,-5.7188,-5.7188,-5.7188,-5.7188,-5.7188,-5.7188,-5.7297,-5.7732,-5.7804,-5.7804,-5.7804,-5.7804,-5.7695,-5.7261,-5.7188,-5.7188,-5.7188,-5.7188,-5.7188,-5.7188,-5.7188,-5.7188,-5.7188,-5.6959,-5.6635,-5.6339,-5.6339,-5.6193,-5.5858,-5.6805,-5.7414,-5.7414,-5.817,-5.8555,-5.8456,-5.8916,-5.9313,-5.9651,-6.0484,-6.1462,-6.2621,-6.3056,-6.3889,-5.2535,-5.2764,-5.236,-5.1028,-4.9892,-4.8226,-4.4753,-4.366,0.0,0.0,-4.021,-4.0613,-3.9514,0.0,0.0,0.0,0.0,0.0,0.0,0.0,0.0,0.0,0.0,0.0,0.0,0.0,0.0,0.0,0.0,0.0,-5.4068,-5.5408,-5.6465,-5.6984,-5.7112,-5.7188,-5.7188,-5.7188,-5.7188,-5.7188,-5.7043,-5.6935,-5.6935,-5.6935,-5.6935,-5.6935,-5.7116,0.0,0.0,-5.7188,-5.7297,-5.7442,-5.7442,-5.755,-5.7804,-5.842,-5.8673,-5.8782,-5.9579,-5.9868,-5.9905,-6.0086,-5.9905,-5.9615,-5.9615,-5.918,-5.8673,-5.8673,-5.8202,-5.7695,-5.7695,-5.7587,-5.7406,-5.7224,-5.7188,-5.7369,-5.8021,-5.813,-5.8202,-5.8383,-5.8383,-5.8239,-5.7804,-5.7695,-5.7695,-5.7695,-5.7695,-5.7695,-5.7695,-5.7695,-5.7695,-5.7695,-5.7406,-5.701,-5.6528,-5.7077,-5.7263,-5.6779,-5.7969,-5.8673,-5.8673,-5.9434,-5.9868,-5.9868,-6.0194,-6.0701,-6.1317,-6.2114,-6.2947,-6.3708,-6.4359,-6.5084,-5.2737,-5.2868,-5.2534,-5.1062,-4.9655,-4.778,-4.4771,0.0,0.0,-3.9834,-3.9495,-3.9448,-3.9315,-3.9481,0.0,0.0,0.0,0.0,0.0,0.0,0.0,0.0,0.0,0.0,0.0,0.0,0.0,0.0,0.0,0.0,-5.5588,-5.6412,-5.6933,-5.6984,-5.7112,-5.7188,-5.7188,-5.7188,-5.7188,-5.7188,-5.6464,-5.6102,-5.6102,-5.6102,-5.6102,-5.6138,-5.6862,0.0,0.0,-5.7188,-5.7623,-5.8275,-5.8275,-5.8746,-5.9398,-5.947,-5.9506,-5.9615,-6.0412,-6.0701,-6.081,-6.1543,-6.0783,-5.9615,-5.9615,-5.9542,-5.9506,-5.9506,-5.9434,-5.9398,-5.9398,-5.8854,-5.8094,-5.7369,-5.7188,-5.7224,-5.7297,-5.7297,-5.7514,-5.8275,-5.8383,-5.8601,-5.9289,-5.9398,-5.9398,-5.9398,-5.9398,-5.9398,-5.9398,-5.9398,-5.9398,-5.9398,-5.8058,-5.7163,-5.7112,-5.7851,-5.8285,-5.8197,-5.9009,-5.9506,-5.9506,-6.0267,-6.0701,-6.0701,-6.2114,-6.2911,-6.2983,-6.378,-6.4577,-6.5374,-6.5446,-6.5917,-5.2135,-5.2808,-5.2774,-5.1327,-4.9814,-4.7838,-4.4913,0.0,-4.1485,-3.9854,-3.9475,-3.9395,-3.9315,-3.9315,-3.9879,0.0,0.0,0.0,0.0,0.0,0.0,0.0,0.0,0.0,0.0,0.0,0.0,0.0,0.0,0.0,-5.6625,-5.6959,-5.7112,-5.7112,-5.7163,-5.7188,-5.7188,-5.6717,-5.6464,-5.6464,-5.5703,-5.5341,-5.5341,-5.5812,-5.5993,-5.6029,-5.6826,0.0,0.0,-5.7732,-5.8094,-5.8456,-5.8927,-5.9325,-5.9651,-6.0158,-6.0339,-6.0448,-6.1245,-6.1507,-6.1471,-6.1326,-6.0819,-6.0339,-6.0339,-5.9651,-5.8891,-5.8891,-5.8528,-5.8166,-5.8166,-5.7913,-5.7587,-5.7261,-5.7188,-5.7333,-5.7804,-5.7913,-5.8021,-5.8347,-5.8782,-5.9072,-5.8927,-5.8891,-5.9035,-5.9542,-5.918,-5.9072,-5.9542,-5.9615,-5.9434,-5.8927,-5.8746,-5.8637,-5.8637,-5.8927,-5.9108,-5.9108,-5.9905,-6.0339,-6.0339,-6.1571,-6.2223,-6.2223,-6.3345,-6.4142,-6.4649,-6.4975,-6.5518,-6.6315,-6.6315,-6.675,-5.1386,-5.2268,-5.237,-5.1455,-4.9805,-4.7757,0.0,0.0,-4.1648,-3.996,-3.9554,-3.9501,-3.9415,-3.9395,-3.9767,0.0,0.0,-4.2223,0.0,0.0,0.0,0.0,0.0,0.0,0.0,0.0,0.0,0.0,0.0,0.0,-5.7163,-5.7188,-5.7188,-5.7188,-5.7188,-5.708,-5.6826,-5.6283,-5.5884,-5.5667,-5.4907,-5.4689,-5.4943,-5.545,-5.5776,-5.6029,-5.6826,0.0,0.0,-5.8166,-5.8673,-5.918,-5.9724,-6.0122,-6.0375,-6.0955,-6.1,-6.0883,-6.1435,-6.1471,-6.1181,-6.0629,-6.0303,-6.0086,-6.0086,-5.947,-5.8746,-5.8746,-5.8347,-5.784,-5.7623,-5.755,-5.7478,-5.7261,-5.7188,-5.7406,-5.8239,-5.8383,-5.8528,-5.9035,-5.9579,-5.9868,-5.9542,-5.947,-5.9651,-6.0231,-5.9832,-5.9687,-6.0267,-6.0339,-6.0086,-5.9542,-5.9977,-6.0013,-5.9325,-5.9687,-5.9977,-5.9977,-6.0955,-6.1498,-6.1498,-6.2838,-6.3671,-6.3889,-6.4468,-6.5156,-6.5953,-6.5953,-6.6243,-6.6822,-6.704,-6.7728,-5.061,-5.1219,-5.1219,-5.1185,-4.9528,-4.7361,0.0,-4.3293,-4.1668,-4.022,-3.9685,-3.9554,-3.9677,-3.9573,-3.9734,-4.05,0.0,0.0,0.0,0.0,0.0,0.0,0.0,0.0,0.0,0.0,0.0,0.0,0.0,0.0,-5.7188,-5.7188,-5.7188,-5.7188,-5.7188,-5.6826,-5.6029,-5.5993,-5.5631,-5.4907,-5.411,-5.4146,-5.4907,-5.4907,-5.5305,0.0,0.0,0.0,0.0,-5.8383,-5.9361,-6.0774,-6.0774,-6.1254,-6.1978,-6.1978,-6.1471,-6.081,-6.081,-6.0303,-5.9615,-5.9615,-5.9072,-5.842,-5.842,-5.8963,-5.9579,-5.9579,-5.9579,-5.9398,-5.8601,-5.8383,-5.8202,-5.7369,-5.7188,-5.7406,-5.8239,-5.8383,-5.8891,-6.0484,-6.0774,-6.1064,-6.1833,-6.1942,-6.1978,-6.1978,-6.1978,-6.1978,-6.1978,-6.1978,-6.1978,-6.1942,-6.1978,-6.1,-5.8637,-5.9868,-6.081,-6.081,-6.2295,-6.3164,-6.3164,-6.3961,-6.4758,-6.5555,-6.5591,-6.5989,-6.6786,-6.6786,-6.6786,-6.6822,-6.7619,-6.885,-4.6989,-4.8206,-4.8683,-4.7699,-4.6549,-4.5196,-4.343,-4.2226,-4.1167,-4.0112,-3.9807,-3.9755,-3.9703,-3.9651,-4.0194,-4.1966,-4.2489,0.0,0.0,0.0,0.0,0.0,0.0,0.0,0.0,0.0,0.0,0.0,0.0,0.0,-5.7188,-5.7188,-5.7188,-5.7188,-5.7188,-5.679,-5.5993,-5.5486,-5.487,-5.4074,-5.382,-5.382,-5.411,-5.516,-5.5776,0.0,0.0,0.0,0.0,-5.8999,-5.9832,-6.0846,-6.1426,-6.1761,-6.1906,-6.1362,-6.1027,-6.081,-6.081,-6.0629,-6.0448,-6.0448,-6.0267,-6.005,-6.005,-5.947,-5.8999,-6.0122,-6.0846,-6.1181,-6.0955,-6.0856,-6.081,-6.0557,-6.0484,-6.0557,-6.081,-6.0856,-6.1,-6.1507,-6.2078,-6.2512,-6.2766,-6.2802,-6.3019,-6.3563,-6.3164,-6.3019,-6.3563,-6.3635,-6.3418,-6.2875,-6.3309,-6.2911,-6.1027,-6.1824,-6.244,-6.244,-6.3418,-6.3997,-6.3997,-6.4794,-6.5337,-6.5591,-6.6134,-6.6822,-6.7619,-6.7619,-6.7909,-6.8452,-6.9249,-6.9901,0.0,-4.5974,-4.6515,-4.5872,-4.4925,-4.3809,-4.2557,-4.1745,-4.0975,-4.0155,-3.9935,-3.9884,-3.9858,-3.9807,-4.0419,-4.2338,-4.2323,0.0,0.0,0.0,0.0,0.0,0.0,0.0,0.0,0.0,0.0,0.0,0.0,0.0,-5.7188,-5.7188,-5.7188,-5.7188,-5.7188,-5.6681,-5.5595,-5.5124,-5.4363,-5.3241,-5.3566,-5.3856,-5.4182,-5.545,-5.6174,0.0,0.0,0.0,0.0,-5.9724,-6.0557,-6.129,-6.1797,-6.1978,-6.1906,-6.11,-6.081,-6.0774,-6.0448,-6.0375,-6.0375,-6.0375,-6.0557,-6.0919,-6.1534,-6.081,-5.9977,-6.0991,-6.1616,-6.1978,-6.1978,-6.1978,-6.1978,-6.1978,-6.1978,-6.2087,-6.2404,-6.244,-6.2549,-6.2875,-6.3309,-6.3635,-6.3635,-6.3635,-6.3816,-6.4323,-6.3961,-6.3816,-6.4323,-6.4396,-6.4215,-6.3708,-6.4106,-6.3997,-6.2983,-6.3345,-6.3635,-6.3635,-6.4396,-6.483,-6.483,-6.5627,-6.6207,-6.6496,-6.7003,-6.7655,-6.8452,-6.8452,-6.885,-6.9678,-7.0185,-7.0553,0.0,-4.431,-4.4513,-4.5128,-4.4248,-4.2997,-4.2286,-4.161,0.0,-4.0248,-3.9986,-3.9969,-4.0223,-4.0054,-4.0448,-4.2099,0.0,0.0,0.0,0.0,0.0,0.0,0.0,0.0,0.0,0.0,0.0,0.0,0.0,0.0,-5.7188,-5.7188,-5.7188,-5.7188,-5.7188,-5.6464,-5.4979,-5.4943,-5.4146,-5.2661,-5.3422,-5.4218,-5.5015,-5.574,-5.65,0.0,0.0,0.0,0.0,-6.0484,-6.1254,-6.1978,-6.1978,-6.1978,-6.1797,-6.1,-6.0738,-6.0629,-5.9868,-5.9651,-5.9724,-5.9832,-6.0412,-6.1353,-6.2875,-6.2802,-6.2159,-6.2231,-6.2304,-6.234,-6.234,-6.234,-6.234,-6.234,-6.234,-6.2549,-6.3273,-6.3454,-6.3671,-6.4432,-6.4577,-6.4577,-6.4577,-6.4577,-6.4577,-6.4577,-6.4577,-6.4577,-6.4577,-6.4577,-6.4577,-6.4577,-6.4577,-6.4577,-6.4577,-6.4504,-6.4468,-6.4468,-6.5229,-6.57,-6.5772,-6.6496,-6.7257,-6.809,-6.8162,-6.8525,-6.9316,-6.9352,-6.975,-7.048,-7.048,-7.0842,-4.0959,0.0,-4.1914,-4.1508,-4.1162,-4.0857,0.0,-4.0485,-4.0316,-4.0146,0.0,-4.04,-4.1576,-4.0865,-4.111,0.0,0.0,0.0,0.0,0.0,0.0,0.0,0.0,0.0,0.0,0.0,0.0,0.0,0.0,-5.7188,-5.7188,-5.7188,-5.7188,-5.7188,-5.7188,-5.6717,-5.574,-5.5196,-5.4725,-5.4363,-5.4544,-5.5015,-5.5776,-5.6573,-5.7007,0.0,0.0,0.0,-5.9651,-6.0484,-6.1254,-6.1978,-6.1978,-6.1616,-6.0964,-6.0194,-5.9905,-5.9868,-5.9687,-6.0013,-6.0738,-6.1933,-6.2911,-6.3744,-6.4722,-6.4468,-6.3961,-6.4577,-6.5192,-6.5663,-6.5663,-6.5663,-6.5663,-6.5663,-6.5663,-6.5736,-6.5917,-6.5953,-6.6025,-6.6207,-6.6243,-6.6243,-6.6243,-6.6243,-6.6243,-6.6243,-6.6243,-6.6243,-6.6243,-6.6243,-6.6243,-6.6243,-6.6243,-6.6243,-6.6243,-6.5663,-6.5301,-6.5301,-6.6062,-6.6786,-6.7402,-6.7619,-6.809,-6.8887,-6.9502,-6.9901,-7.0149,-7.0661,-7.106,-7.1241,-7.1241,-7.1313,-4.0113,-4.0865,-4.161,-4.123,-4.1128,-4.1128,-4.1128,0.0,0.0,0.0,0.0,-4.0451,-4.1576,-4.1136,0.0,0.0,0.0,0.0,0.0,0.0,0.0,0.0,0.0,0.0,0.0,0.0,0.0,0.0,0.0,-5.7188,-5.7188,-5.7188,-5.7188,-5.7188,-5.7188,-5.679,-5.5993,-5.5595,-5.5233,-5.4907,-5.5233,-5.5595,-5.6029,-5.6826,-5.7406,0.0,0.0,0.0,-6.0231,-6.1027,-6.1616,-6.1978,-6.1978,-6.1507,-6.0774,-6.0339,-6.0158,-6.0158,-6.0158,-6.0919,-6.2114,-6.3345,-6.4287,-6.5084,-6.5917,-6.5844,-6.5591,-6.6025,-6.646,-6.6786,-6.6786,-6.6786,-6.6786,-6.6786,-6.6786,-6.6786,-6.6786,-6.6786,-6.6786,-6.6786,-6.6786,-6.6786,-6.6786,-6.7112,-6.7366,-6.7366,-6.7366,-6.7366,-6.7366,-6.704,-6.6786,-6.6786,-6.7148,-6.7366,-6.7366,-6.7293,-6.7076,-6.6714,-6.7112,-6.7728,-6.8525,-6.8561,-6.8923,-6.975,-7.0517,-7.0879,-7.0915,-7.1313,-7.1494,-7.1494,-7.1494,-7.1494,-4.0383,-4.1534,-4.2523,-4.2083,-4.2117,-4.2219,-4.2016,0.0,0.0,0.0,0.0,0.0,0.0,0.0,0.0,0.0,0.0,0.0,0.0,0.0,0.0,0.0,0.0,0.0,0.0,0.0,0.0,0.0,0.0,-5.7188,-5.7188,-5.7188,-5.7188,-5.7188,-5.7188,-5.6862,-5.6174,-5.6066,-5.574,-5.5269,-5.574,-5.6066,-5.621,-5.6899,-5.7623,-5.8456,0.0,0.0,-6.0856,-6.1652,-6.1978,-6.1978,-6.1978,-6.1435,-6.0629,-6.0774,-6.0738,-6.0665,-6.0919,-6.1969,-6.3309,-6.4142,-6.4939,-6.5736,-6.6569,-6.6786,-6.6786,-6.6786,-6.6786,-6.6786,-6.6786,-6.6786,-6.6786,-6.6786,-6.6786,-6.6786,-6.6786,-6.6786,-6.6858,-6.6967,-6.7003,-6.704,-6.7148,-6.7728,-6.8199,-6.8199,-6.8199,-6.8199,-6.8199,-6.7583,-6.7184,-6.7184,-6.7764,-6.8199,-6.8199,-6.8814,-6.8959,-6.8416,-6.8271,-6.8525,-6.9352,-6.9497,-6.9865,-7.0553,-7.1168,-7.1494,-7.1494,-7.1494,-7.1494,-7.1494,-7.1494,-7.1494,-4.161,-4.3091,-4.3633,-4.1094,-4.1399,-4.1948,-4.0722,0.0,0.0,0.0,0.0,0.0,0.0,0.0,0.0,0.0,0.0,0.0,0.0,0.0,0.0,0.0,0.0,0.0,0.0,0.0,0.0,0.0,0.0,0.0,-5.7188,-5.7188,-5.7188,-5.7188,-5.7188,-5.7152,-5.7007,-5.6319,-5.6283,-5.6826,-5.6283,-5.6355,-5.7007,-5.7152,-5.7623,-5.8456,0.0,-6.0086,-6.0856,-6.1652,-6.1978,-6.1978,-6.1978,-6.11,-5.9868,-6.0557,-6.0375,-5.9977,-6.1326,-6.244,-6.3309,-6.4142,-6.4939,-6.5736,-6.6569,-6.6786,-6.6786,-6.6786,-6.6786,-6.6786,-6.6786,-6.6786,-6.6786,-6.6786,-6.6786,-6.6786,-6.6786,-6.6786,-6.7003,-6.7692,-6.7836,-6.8017,-6.8706,-6.8953,-6.9026,-6.9026,-6.9026,-6.9026,-6.9026,-6.8917,-6.8845,-6.8845,-6.8923,-6.9026,-6.9026,-6.9134,-6.9461,-6.9973,-6.9394,-6.9388,-7.0185,-7.0806,-7.1205,-7.1313,-7.1458,-7.1494,-7.1494,-7.1494,-7.1494,-7.1494,-7.1494,-7.1494,-4.0925,-4.2489,-4.3504,-4.1711,-4.2997,-4.4451,-4.3369,0.0,0.0,0.0,0.0,0.0,0.0,0.0,0.0,0.0,0.0,0.0,0.0,0.0,0.0,0.0,0.0,0.0,0.0,0.0,0.0,0.0,0.0,0.0,-5.7188,-5.7188,-5.7188,-5.7188,-5.7188,-5.7188,-5.7188,-5.6826,-5.6826,-5.7188,-5.6826,-5.6826,-5.7188,-5.7188,-5.7876,-5.9072,0.0,-6.0303,-6.1471,-6.1833,-6.1978,-6.1942,-6.1507,-6.0919,-6.0303,-6.0665,-6.0819,-6.1037,-6.2259,-6.3164,-6.3961,-6.4794,-6.5591,-6.6315,-6.6677,-6.6786,-6.6786,-6.6786,-6.6786,-6.6786,-6.6786,-6.6786,-6.6786,-6.6786,-6.6786,-6.6786,-6.6786,-6.7148,-6.7583,-6.7945,-6.8343,-6.8778,-6.9134,-6.9569,-6.9859,-6.9859,-6.9859,-6.9859,-6.9859,-6.9497,-6.9207,-6.9207,-6.9605,-6.9859,-6.9859,-7.0191,-7.0408,-7.0372,-7.0408,-7.0589,-7.0987,-7.1313,-7.1494,-7.1494,-7.1494,-7.1494,-7.1494,-7.1494,-7.1712,-7.2146,-7.2146,-7.24,-4.073,-4.1847,-4.2895,-4.2828,0.0,-4.594,-4.5737,0.0,0.0,0.0,0.0,0.0,0.0,0.0,0.0,0.0,0.0,0.0,0.0,0.0,0.0,0.0,0.0,0.0,0.0,0.0,0.0,0.0,0.0,0.0,-5.7188,-5.7188,-5.7188,-5.7188,-5.7188,-5.7188,-5.7188,-5.7188,-5.7188,-5.7188,-5.7188,-5.7188,-5.7188,-5.7188,-5.7985,-5.9325,-5.9542,-6.0412,-6.1725,-6.1906,-6.1978,-6.1942,-6.1326,-6.1073,-6.1037,-6.0883,-6.1426,-6.2367,-6.2983,-6.3852,-6.4758,-6.541,-6.6134,-6.6786,-6.6786,-6.6786,-6.6786,-6.6786,-6.6786,-6.6786,-6.6786,-6.6786,-6.6858,-6.704,-6.7076,-6.7148,-6.7329,-6.7836,-6.8343,-6.8525,-6.9068,-6.9533,-6.9714,-7.0227,-7.0661,-7.0661,-7.0661,-7.0661,-7.0661,-7.0118,-6.975,-6.975,-7.0263,-7.0661,-7.0661,-7.1168,-7.1277,-7.0661,-7.1205,-7.1494,-7.1494,-7.1494,-7.1494,-7.1494,-7.1494,-7.1494,-7.1494,-7.1712,-7.211,-7.2726,-7.2907,-7.3305,-4.2598,-4.2286,-4.1847,-4.3938,-4.4045,0.0,-4.5399,-4.4519,0.0,-4.5196,0.0,0.0,0.0,0.0,0.0,0.0,0.0,0.0,0.0,0.0,0.0,0.0,0.0,0.0,0.0,0.0,0.0,0.0,0.0,0.0,-5.7188,-5.7188,-5.7188,-5.7188,-5.7188,-5.7188,-5.7188,-5.7188,-5.7188,-5.7188,-5.7188,-5.7188,-5.7188,-5.7188,-5.7659,-5.8528,-5.9289,-6.0086,-6.0955,-6.1688,-6.1978,-6.1978,-6.1942,-6.1906,-6.1797,-6.11,-6.1788,-6.3092,-6.3164,-6.4215,-6.5518,-6.5591,-6.6134,-6.6786,-6.6786,-6.6786,-6.6786,-6.6786,-6.6786,-6.6786,-6.6786,-6.6786,-6.7003,-6.7764,-6.7909,-6.8126,-6.8881,-6.9098,-6.9352,-7.0082,-7.0263,-7.0517,-7.1205,-7.1386,-7.1422,-7.1422,-7.1422,-7.1422,-7.1422,-7.1386,-7.135,-7.135,-7.1386,-7.1422,-7.1422,-7.1458,-7.1494,-7.1422,-7.1458,-7.1494,-7.1494,-7.1494,-7.1494,-7.1494,-7.1494,-7.1494,-7.1494,-7.2255,-7.2653,-7.2726,-7.3486,-7.3849,-4.1756,-4.2158,-4.2578,-4.362,-4.4012,0.0,0.0,-4.6312,-4.6486,0.0,0.0,0.0,0.0,0.0,0.0,0.0,0.0,0.0,0.0,0.0,0.0,0.0,0.0,0.0,0.0,0.0,0.0,0.0,0.0,0.0,0.0,-5.7188,-5.7188,-5.7188,-5.7188,-5.7188,-5.7188,-5.7188,-5.7188,-5.7188,-5.7188,-5.7188,-5.7188,-5.7188,-5.7623,-5.8456,-5.9253,-6.0086,-6.0856,-6.1652,-6.1978,-6.1978,-6.1978,-6.1688,-6.1353,-6.2041,-6.2657,-6.3345,-6.4359,-6.5084,-6.5663,-6.617,-6.6569,-6.6786,-6.6786,-6.6786,-6.6895,-6.7402,-6.7547,-6.7547,-6.7547,-6.7547,-6.7764,-6.8561,-6.8742,-6.8814,-6.9134,-6.9605,-7.004,-7.0335,-7.077,-7.1168,-7.1458,-7.1494,-7.1494,-7.1494,-7.1494,-7.1494,-7.1494,-7.1494,-7.1494,-7.1494,-7.1494,-7.1494,-7.1494,-7.1494,-7.1494,-7.1494,-7.1494,-7.1494,-7.1494,-7.1494,-7.1494,-7.1494,-7.1494,-7.1748,-7.2255,-7.2545,-7.3233,-7.4211,-7.4468,-7.4935,-4.1291,-4.1733,-4.2296,0.0,0.0,0.0,-4.6989,0.0,0.0,0.0,0.0,0.0,0.0,0.0,0.0,0.0,0.0,0.0,0.0,0.0,0.0,0.0,0.0,0.0,0.0,0.0,0.0,0.0,0.0,0.0,0.0,-5.7188,-5.7188,-5.7188,-5.7188,-5.7188,-5.7188,-5.7188,-5.7188,-5.7188,-5.7188,-5.7188,-5.7188,-5.7188,-5.7514,-5.8094,-5.9144,-5.9905,-6.052,-6.1543,-6.1978,-6.1978,-6.1978,-6.1824,-6.1679,-6.2766,-6.349,-6.4106,-6.5229,-6.5772,-6.6062,-6.6641,-6.6786,-6.6786,-6.6786,-6.6967,-6.7293,-6.7873,-6.8199,-6.8452,-6.8706,-6.8561,-6.8561,-6.9388,-6.9605,-6.9642,-6.9865,-7.0335,-7.0734,-7.0734,-7.1132,-7.1494,-7.1494,-7.1494,-7.1494,-7.1494,-7.1494,-7.1494,-7.1494,-7.1494,-7.1494,-7.1494,-7.1494,-7.1494,-7.1494,-7.1748,-7.1893,-7.1893,-7.211,-7.2146,-7.1893,-7.211,-7.2255,-7.2255,-7.2255,-7.2545,-7.3088,-7.3342,-7.403,-7.5083,-7.537,-7.5768,-4.1685,-4.0973,-4.0654,0.0,0.0,0.0,0.0,0.0,0.0,0.0,0.0,0.0,0.0,0.0,0.0,0.0,0.0,0.0,0.0,0.0,0.0,0.0,0.0,0.0,0.0,0.0,0.0,0.0,0.0,0.0,0.0,-5.7188,-5.7188,-5.7188,-5.7188,-5.7188,-5.7188,-5.7188,-5.7188,-5.7188,-5.7188,-5.7188,-5.7188,-5.7188,-5.7188,-5.7297,-5.8891,-5.9615,-5.9724,-6.1326,-6.1978,-6.1978,-6.1978,-6.2476,-6.32,-6.32,-6.4215,-6.5591,-6.5591,-6.6134,-6.6786,-6.6786,-6.6786,-6.6786,-6.6822,-6.7366,-6.8017,-6.8017,-6.8597,-6.9424,-7.0191,-6.9823,-6.9424,-7.0191,-7.0439,-7.0589,-7.135,-7.1494,-7.1494,-7.1494,-7.1494,-7.1494,-7.1494,-7.1494,-7.1494,-7.1494,-7.1494,-7.1494,-7.1494,-7.1531,-7.1531,-7.1531,-7.1531,-7.1531,-7.1531,-7.2255,-7.2726,-7.2726,-7.3486,-7.3559,-7.2762,-7.3486,-7.3921,-7.3921,-7.3921,-7.3921,-7.3888,-7.4685,-7.5083,-7.5119,-7.5913,-7.6275,-4.0882,-4.1076,0.0,0.0,0.0,0.0,0.0,0.0,0.0,0.0,0.0,0.0,0.0,0.0,0.0,0.0,0.0,0.0,0.0,0.0,0.0,0.0,0.0,0.0,0.0,0.0,0.0,0.0,0.0,0.0,0.0,-5.7188,-5.7188,-5.7188,-5.7188,-5.7188,-5.7188,-5.7188,-5.7188,-5.7188,-5.7188,-5.7188,-5.7188,-5.7188,-5.7188,-5.7297,-5.8891,-5.9615,-5.9687,-6.0738,-6.1471,-6.1942,-6.1362,-6.2005,-6.3273,-6.3816,-6.4685,-6.5663,-6.6243,-6.6605,-6.6786,-6.6786,-6.6786,-6.6895,-6.7474,-6.78,-6.8235,-6.9358,-6.9865,-7.0191,-7.0987,-7.0987,-7.0879,-7.1132,-7.1168,-7.1241,-7.1458,-7.1494,-7.1494,-7.1494,-7.1494,-7.1494,-7.1494,-7.1494,-7.1494,-7.1494,-7.1494,-7.1494,-7.1494,-7.2001,-7.2364,-7.2364,-7.2871,-7.3197,-7.3197,-7.3414,-7.3559,-7.3559,-7.4287,-7.4359,-7.3595,-7.3776,-7.3921,-7.3921,-7.3921,-7.4178,-7.4721,-7.4974,-7.5406,-7.5949,-7.6167,-7.6275,-4.1986,0.0,0.0,0.0,0.0,0.0,0.0,0.0,0.0,0.0,0.0,0.0,0.0,0.0,0.0,0.0,0.0,0.0,0.0,0.0,0.0,0.0,0.0,0.0,0.0,0.0,0.0,0.0,0.0,0.0,0.0,0.0,0.0,0.0,-5.7188,-5.7188,-5.7188,-5.7188,-5.7188,-5.7188,-5.7188,-5.7188,-5.7188,-5.7188,-5.7188,-5.7297,-5.8891,-5.9977,-6.0593,-6.0738,-6.1254,-6.1942,-6.1471,-6.2259,-6.3744,-6.4577,-6.5374,-6.6134,-6.6641,-6.6786,-6.6786,-6.6786,-6.6786,-6.6967,-6.7764,-6.8235,-6.8742,-7.0009,-7.0589,-7.0951,-7.1386,-7.1494,-7.1494,-7.1494,-7.1494,-7.1494,-7.1494,-7.1494,-7.1494,-7.1494,-7.1494,-7.1494,-7.1494,-7.1494,-7.1494,-7.1494,-7.1784,-7.211,-7.2436,-7.2871,-7.3197,-7.3197,-7.3631,-7.3921,-7.3921,-7.4211,-7.4359,-7.4359,-7.5152,-7.537,-7.4863,-7.4863,-7.4863,-7.4863,-7.4863,-7.508,-7.5587,-7.5587,-7.5841,-7.6275,-7.6275,-7.6275,-4.4021,0.0,0.0,0.0,0.0,0.0,0.0,0.0,0.0,0.0,0.0,0.0,0.0,0.0,0.0,0.0,0.0,0.0,0.0,0.0,0.0,0.0,0.0,0.0,0.0,0.0,0.0,0.0,0.0,0.0,0.0,0.0,0.0,-5.7188,-5.7188,-5.7188,-5.7188,-5.7188,-5.7188,-5.7188,-5.7188,-5.7188,-5.7188,-5.7188,-5.7261,-5.7514,-5.8963,-6.052,-6.1906,-6.1064,-6.1208,-6.1978,-6.1933,-6.2911,-6.4496,-6.5301,-6.6098,-6.6815,-6.6786,-6.6822,-6.6815,-6.6786,-6.6822,-6.6967,-6.7836,-6.8597,-6.9388,-7.0227,-7.0987,-7.1494,-7.1494,-7.1494,-7.1494,-7.1494,-7.1494,-7.1494,-7.1494,-7.1494,-7.1494,-7.1494,-7.1494,-7.1494,-7.1494,-7.1494,-7.1531,-7.1603,-7.2291,-7.3088,-7.3812,-7.3961,-7.3997,-7.3997,-7.4102,-7.4138,-7.4138,-7.479,-7.5192,-7.5192,-7.5913,-7.6275,-7.6275,-7.6275,-7.6275,-7.6275,-7.6275,-7.6275,-7.6275,-7.6275,-7.6275,-7.6275,-7.6275,-7.6275,0.0,-4.4349,0.0,0.0,0.0,0.0,0.0,0.0,0.0,0.0,0.0,0.0,0.0,0.0,0.0,0.0,0.0,0.0,0.0,0.0,0.0,0.0,0.0,0.0,0.0,0.0,0.0,0.0,0.0,0.0,0.0,0.0,0.0,-5.7188,-5.7188,-5.7188,-5.7188,-5.7188,-5.7188,0.0,-5.7188,-5.7188,-5.7188,-5.7188,-5.7876,-5.9108,-5.947,-6.052,-6.1897,-6.0554,-6.0781,-6.1969,-6.1425,-6.2567,-6.4637,-6.5359,-6.6185,-6.6961,-6.6815,-6.6874,-6.6932,-6.6815,-6.6874,-6.7186,-6.8549,-6.9062,-6.9497,-7.0879,-7.1386,-7.1494,-7.1494,-7.1494,-7.1494,-7.1494,-7.1494,-7.1494,-7.1494,-7.1494,-7.1494,-7.1494,-7.1494,-7.1494,-7.1494,-7.1494,-7.1712,-7.2364,-7.3124,-7.3704,-7.3885,-7.4431,-7.483,-7.483,-7.5406,-7.5768,-7.5768,-7.5949,-7.6022,-7.6022,-7.6203,-7.6275,-7.6275,-7.6275,-7.6275,-7.6275,-7.6275,-7.6275,-7.6275,-7.6275,-7.6275,-7.6275,-7.6275,-7.6275,0.0,0.0,0.0,0.0,0.0,0.0,0.0,0.0,0.0,0.0,0.0,0.0,0.0,0.0,0.0,0.0,0.0,0.0,0.0,0.0,0.0,0.0,0.0,0.0,0.0,0.0,0.0,0.0,0.0,0.0,0.0,-5.7188,-5.7188,-5.7188,-5.7188,-5.7188,-5.7188,-5.7188,-5.7188,-5.7188,-5.7188,-5.7188,-5.7188,-5.7188,-5.7876,-5.9072,-5.9434,-6.0303,-6.1353,-6.0254,-6.0663,-6.1969,-6.1749,-6.2803,-6.4646,-6.5815,-6.654,-6.6903,-6.6903,-6.6932,-6.7019,-6.6932,-6.7215,-6.7789,-6.8875,-6.9497,-7.0009,-7.1168,-7.1494,-7.1494,-7.1494,-7.1494,-7.1494,-7.1494,-7.1494,-7.1494,-7.1494,-7.1494,-7.1494,-7.1494,-7.1494,-7.1494,-7.1494,-7.182,-7.2472,-7.3667,-7.4178,-7.4609,-7.5008,-7.5406,-7.5659,-7.5659,-7.6058,-7.6275,-7.6275,-7.6275,-7.6275,-7.6275,-7.6275,-7.6275,-7.6275,-7.6275,-7.6275,-7.6275,-7.6275,-7.6275,-7.6275,-7.6275,-7.6275,-7.6275,-7.6275,-7.6275,0.0,0.0,0.0,0.0,0.0,0.0,0.0,0.0,0.0,0.0,0.0,0.0,0.0,0.0,0.0,0.0,0.0,0.0,0.0,0.0,0.0,0.0,0.0,0.0,0.0,0.0,0.0,0.0,0.0,0.0,-5.679,-5.679,-5.679,-5.679,-5.6935,-5.6971,-5.6971,-5.7116,-5.7188,-5.7188,-5.7188,-5.7213,-5.7239,-5.7239,-5.7648,-5.8456,-5.9279,-6.0076,-6.0764,-6.0098,-6.0689,-6.2087,-6.2328,-6.3257,-6.4662,-6.6373,-6.6961,-6.6874,-6.699,-6.7048,-6.7076,-6.7193,-6.7673,-6.84,-6.9165,-6.9895,-7.0553,-7.1277,-7.1494,-7.1494,-7.1494,-7.1494,-7.1494,-7.1494,-7.1494,-7.1494,-7.1494,-7.1494,-7.1494,-7.1494,-7.1603,-7.1712,-7.1712,-7.2509,-7.3595,-7.4902,-7.5192,-7.5551,-7.6203,-7.6275,-7.6275,-7.6275,-7.6275,-7.6275,-7.6275,-7.6275,-7.6275,-7.6275,-7.6275,-7.6275,-7.6275,-7.6275,-7.6275,-7.6275,-7.6275,-7.6275,-7.6275,-7.6275,-7.6275,-7.6275,-7.6275,-7.6275,0.0,0.0,0.0,0.0,0.0,0.0,0.0,0.0,0.0,0.0,0.0,0.0,0.0,0.0,0.0,0.0,0.0,0.0,0.0,0.0,0.0,0.0,0.0,0.0,0.0,0.0,0.0,0.0,0.0,0.0,-5.5233,-5.5233,-5.5233,-5.5233,-5.5812,-5.6138,-5.6138,-5.6826,-5.7188,-5.7188,-5.7188,-5.7264,-5.7363,-5.7363,-5.7724,-5.8456,-5.9357,-6.0233,-6.0923,-6.0124,-6.082,-6.2354,-6.2407,-6.3355,-6.494,-6.643,-6.704,-6.7126,-6.7011,-6.719,-6.7496,-6.7906,-6.8197,-6.8619,-6.9848,-7.033,-7.0553,-7.1277,-7.1494,-7.1494,-7.1494,-7.1494,-7.1494,-7.1494,-7.1494,-7.1494,-7.1494,-7.1494,-7.1494,-7.1494,-7.2074,-7.2545,-7.2545,-7.3812,-7.483,-7.5047,-7.5696,-7.6167,-7.6275,-7.6275,-7.6275,-7.6275,-7.6275,-7.6275,-7.6275,-7.6275,-7.6275,-7.6275,-7.6275,-7.6275,-7.6275,-7.6275,-7.6275,-7.6275,-7.6275,-7.6275,-7.6275,-7.6275,-7.6275,-7.6275,-7.6275,-7.6275,0.0,0.0,0.0,0.0,0.0,0.0,0.0,0.0,0.0,0.0,0.0,0.0,0.0,0.0,0.0,0.0,0.0,0.0,0.0,0.0,0.0,0.0,0.0,0.0,0.0,0.0,0.0,0.0,0.0,-5.4907,-5.4907,-5.4907,-5.4907,-5.4907,-5.5196,-5.5595,-5.5993,-5.6355,-5.6754,-5.7188,-5.7264,-5.7338,-5.7388,-5.7534,-5.7704,-5.7931,-5.9292,-6.0082,-6.0321,-6.0085,-6.0683,-6.1777,-6.2369,-6.3257,-6.4366,-6.6509,-6.7275,-6.721,-6.7275,-6.7651,-6.821,-6.8276,-6.8976,-6.985,-7.0247,-7.0661,-7.106,-7.1422,-7.1494,-7.1494,-7.1494,-7.1494,-7.1494,-7.1494,-7.1857,-7.2183,-7.2183,-7.2183,-7.2327,-7.2762,-7.3124,-7.3523,-7.3993,-7.4612,-7.5261,-7.5696,-7.6058,-7.6275,-7.6275,-7.6275,-7.6275,-7.6275,-7.6275,-7.6275,-7.6275,-7.6275,-7.6275,-7.6275,-7.6275,-7.6275,-7.6275,-7.6275,-7.6275,-7.6275,-7.6275,-7.6275,-7.6275,-7.6275,-7.6275,-7.6275,-7.6275,-7.6275,0.0,0.0,0.0,0.0,0.0,0.0,0.0,0.0,0.0,0.0,0.0,0.0,0.0,0.0,0.0,0.0,0.0,0.0,0.0,0.0,0.0,0.0,0.0,0.0,0.0,0.0,0.0,0.0,0.0,-5.4291,-5.4291,-5.4291,-5.4291,-5.4291,-5.4508,-5.4979,-5.5703,-5.6102,-5.6609,-5.7188,-5.7338,-5.7412,-5.7461,-5.7679,-5.7679,-5.7595,-5.9078,-5.9807,-5.9914,-5.9846,-6.0407,-6.1393,-6.2386,-6.3141,-6.3972,-6.6564,-6.7414,-6.7294,-6.7442,-6.8018,-6.8685,-6.8698,-6.9624,-7.0738,-7.0682,-7.106,-7.1494,-7.1494,-7.1494,-7.1494,-7.1494,-7.1494,-7.1567,-7.1748,-7.2255,-7.2762,-7.2979,-7.3016,-7.3197,-7.3776,-7.4102,-7.4395,-7.4974,-7.5264,-7.5623,-7.6203,-7.6275,-7.6275,-7.6275,-7.6275,-7.6275,-7.6275,-7.6275,-7.6275,-7.6275,-7.6275,-7.6275,-7.6275,-7.6275,-7.6275,-7.6275,-7.6275,-7.6275,-7.6275,-7.6275,-7.6275,-7.6275,-7.6275,-7.6275,-7.6275,-7.6275,-7.6275,0.0,0.0,0.0,0.0,0.0,0.0,0.0,0.0,0.0,0.0,0.0,0.0,0.0,0.0,0.0,0.0,0.0,0.0,0.0,0.0,0.0,0.0,0.0,0.0,0.0,0.0,0.0,0.0,0.0,-5.2625,-5.2625,-5.2625,-5.2625,-5.2625,-5.3349,-5.4146,-5.4943,-5.6391,-5.7152,-5.7188,-5.7338,-5.7461,-5.7583,-5.7763,-5.781,-5.7823,-5.8664,-5.9469,-6.0127,-5.9237,-5.992,-6.1643,-6.2423,-6.3152,-6.4077,-6.6591,-6.747,-6.7506,-6.7506,-6.7982,-6.8694,-6.9318,-7.001,-7.0696,-7.1267,-7.1458,-7.1494,-7.1494,-7.1494,-7.1494,-7.1494,-7.1494,-7.1712,-7.2472,-7.269,-7.2907,-7.3704,-7.3849,-7.3849,-7.3921,-7.4504,-7.5047,-7.5083,-7.5732,-7.6239,-7.6275,-7.6275,-7.6275,-7.6275,-7.6275,-7.6275,-7.6275,-7.6275,-7.6275,-7.6275,-7.6275,-7.6275,-7.6275,-7.6275,-7.6275,-7.6275,-7.6275,-7.6275,-7.6275,-7.6275,-7.6275,-7.6275,-7.6275,-7.6275,-7.6275,-7.6275,-7.6275,0.0,0.0,0.0,0.0,0.0,0.0,0.0,0.0,0.0,0.0,0.0,0.0,0.0,0.0,0.0,0.0,0.0,0.0,0.0,0.0,0.0,0.0,0.0,0.0,0.0,0.0,0.0,0.0,0.0,0.0,-5.248,-5.248,-5.248,-5.248,-5.277,-5.3566,-5.4907,-5.6428,-5.7239,-5.7313,-5.7461,-5.7583,-5.7703,-5.7881,-5.7927,-5.7964,-5.877,-5.9529,-6.0188,-5.9944,-6.053,-6.1667,-6.2462,-6.328,-6.427,-6.6753,-6.7633,-6.7679,-6.8083,-6.875,-6.9527,-7.0039,-7.0756,-7.1386,-7.1453,-7.1951,-7.2449,-7.2323,-7.2717,-7.318,-7.3084,-7.3052,-7.3269,-7.4066,-7.4247,-7.4464,-7.5261,-7.5442,-7.5442,-7.5442,-7.5659,-7.5877,-7.5877,-7.6094,-7.6275,-7.6275,-7.6275,-7.6275,-7.6275,-7.6275,-7.6275,-7.6275,-7.6275,-7.6275,-7.6275,-7.6275,-7.6275,-7.6275,-7.6275,-7.6275,-7.6275,-7.6275,-7.6275,-7.6275,-7.6275,-7.6275,-7.6275,-7.6275,-7.6275,-7.6275,-7.6275,-7.6275,-3.4769,0.0,0.0,0.0,0.0,0.0,0.0,0.0,0.0,0.0,0.0,0.0,0.0,0.0,0.0,0.0,0.0,0.0,0.0,0.0,0.0,0.0,0.0,0.0,0.0,0.0,0.0,0.0,0.0,0.0,-5.248,-5.248,-5.2625,-5.2878,-5.3168,-5.3929,-5.5269,-5.6586,-5.7313,-5.7388,-5.7559,-5.7703,-5.781,-5.795,-5.7997,-5.807,-5.9134,-5.9858,-6.0262,-6.0078,-6.0639,-6.1667,-6.2511,-6.3319,-6.4383,-6.6806,-6.7687,-6.7797,-6.8403,-6.9133,-6.9879,-7.0417,-7.1126,-7.1786,-7.1562,-7.22,-7.2948,-7.2758,-7.337,-7.4051,-7.3954,-7.4102,-7.4464,-7.4974,-7.5334,-7.5659,-7.6167,-7.6275,-7.6275,-7.6275,-7.6275,-7.6275,-7.6275,-7.6275,-7.6275,-7.6275,-7.6275,-7.6275,-7.6275,-7.6275,-7.6275,-7.6275,-7.6275,-7.6275,-7.6275,-7.6275,-7.6275,-7.6275,-7.6275,-7.6275,-7.6275,-7.6275,-7.6275,-7.6275,-7.6275,-7.6275,-7.6275,-7.6275,-7.6275,-7.6275,-7.6275,-7.6275,0.0,0.0,0.0,0.0,0.0,0.0,0.0,0.0,0.0,0.0,0.0,0.0,0.0,0.0,0.0,0.0,0.0,0.0,0.0,0.0,0.0,0.0,0.0,0.0,0.0,0.0,0.0,0.0,0.0,-5.248,-5.248,-5.2516,-5.2878,-5.3675,-5.4508,-5.5269,-5.5993,-5.6939,-5.7388,-5.7388,-5.7655,-5.781,-5.7834,-5.795,-5.7997,-5.807,-5.9722,-6.0382,-6.0309,-5.9551,-6.0199,-6.1704,-6.2511,-6.3356,-6.4457,-6.6806,-6.7687,-6.7807,-6.8412,-6.9076,-6.9741,-7.0423,-7.1162,-7.1786,-7.1593,-7.2273,-7.3021,-7.283,-7.3342,-7.3993,-7.3993,-7.454,-7.5119,-7.5119,-7.5732,-7.6275,-7.6275,-7.6275,-7.6275,-7.6275,-7.6275,-7.6275,-7.6275,-7.6275,-7.6275,-7.6275,-7.6275,-7.6275,-7.6275,-7.6275,-7.6275,-7.6275,-7.6275,-7.6275,-7.6275,-7.6275,-7.6275,-7.6275,-7.6275,-7.6275,-7.6275,-7.6275,-7.6275,-7.6275,-7.6275,-7.6275,-7.6275,-7.6275,-7.6275,-7.6275,-7.6275,-7.6275,-3.3502,0.0,0.0,0.0,0.0,0.0,0.0,0.0,0.0,0.0,0.0,0.0,0.0,0.0,0.0,0.0,0.0,0.0,0.0,0.0,0.0,0.0,0.0,0.0,0.0,0.0,0.0,0.0,-5.248,-5.248,-5.248,-5.3059,-5.3458,-5.3675,-5.4979,-5.5776,-5.5993,-5.6939,-5.7437,-5.7534,-5.7739,-5.7857,-5.795,-5.7973,-5.7997,-5.807,-5.9722,-6.0089,-5.9551,-5.9942,-6.1043,-6.2511,-6.2732,-6.4053,-6.5999,-6.7247,-6.8,-6.8476,-6.9291,-6.9952,-7.0572,-7.1344,-7.1745,-7.2006,-7.2439,-7.3229,-7.4056,-7.4348,-7.511,-7.5825,-7.5657,-7.5804,-7.5985,-7.5985,-7.613,-7.6275,-7.6275,-7.6275,-7.6275,-7.6275,-7.6275,-7.6275,-7.6275,-7.6275,-7.6275,-7.6275,-7.6275,-7.6275,-7.6275,-7.6275,-7.6275,-7.6275,-7.6275,-7.6275,-7.6275,-7.6275,-7.6275,-7.6275,-7.6275,-7.6275,-7.6275,-7.6275,-7.6275,-7.6275,-7.6275,-7.6275,-7.6275,-7.6275,-7.6275,-7.6275,-7.6275,-7.6275,0.0,0.0,0.0,0.0,0.0,0.0,0.0,0.0,0.0,0.0,0.0,0.0,0.0,0.0,0.0,0.0,0.0,0.0,0.0,0.0,0.0,0.0,0.0,0.0,0.0,0.0,0.0,-5.248,-5.248,-5.2661,-5.2987,-5.3458,-5.4001,-5.4653,-5.5522,-5.6163,-5.6599,-5.7194,-5.7534,-5.7715,-5.7834,-5.7927,-5.7997,-5.7997,-5.7997,-5.807,-5.9355,-5.9465,-5.8804,-5.9942,-6.1374,-6.2842,-6.3209,-6.464,-6.6623,-6.776,-6.8349,-6.8759,-6.9994,-7.0573,-7.093,-7.1732,-7.2048,-7.223,-7.2824,-7.3655,-7.4483,-7.4965,-7.5762,-7.6445,-7.6345,-7.6275,-7.6275,-7.6275,-7.6275,-7.6275,-7.6275,-7.6275,-7.6275,-7.6275,-7.6275,-7.6275,-7.6275,-7.6275,-7.6275,-7.6275,-7.6275,-7.6275,-7.6275,-7.6275,-7.6275,-7.6275,-7.6275,-7.6275,-7.6275,-7.6275,-7.6275,-7.6275,-7.6275,-7.6275,-7.6275,-7.6275,-7.6275,-7.6275,-7.6275,-7.6275,-7.6275,-7.6275,-7.6275,-7.6275,-7.6275,-7.6275,-3.6399,0.0,0.0,0.0,0.0,0.0,-4.194,-4.1107,0.0,0.0,0.0,0.0,0.0,0.0,0.0,0.0,0.0,0.0,0.0,0.0,0.0,0.0,0.0,0.0,0.0,-5.248,-5.248,-5.248,-5.248,-5.2842,-5.3675,-5.3784,-5.4508,-5.5957,-5.609,-5.6563,-5.7388,-5.7534,-5.7655,-5.781,-5.795,-5.7997,-5.7997,-5.7997,-5.7997,-5.8033,-5.8877,-5.8767,-5.8143,-5.9832,-6.1447,-6.289,-6.3759,-6.5118,-6.6806,-6.8348,-6.8825,-6.897,-7.0543,-7.1041,-7.1106,-7.1799,-7.2181,-7.2533,-7.3,-7.3765,-7.4628,-7.5073,-7.5768,-7.6275,-7.6275,-7.6275,-7.6275,-7.6275,-7.6275,-7.6275,-7.6275,-7.6275,-7.6275,-7.6275,-7.6275,-7.6275,-7.6275,-7.6275,-7.6275,-7.6275,-7.6275,-7.6275,-7.6275,-7.6275,-7.6275,-7.6275,-7.6275,-7.6275,-7.6275,-7.6275,-7.6275,-7.6275,-7.6275,-7.6275,-7.6275,-7.6275,-7.6275,-7.6275,-7.6275,-7.6275,-7.6275,-7.6275,-7.6275,-7.6275,-7.6275,-7.6275,-3.8753,-3.879,0.0,0.0,0.0,0.0,-3.7449,-3.7957,0.0,0.0,0.0,0.0,0.0,0.0,0.0,0.0,0.0,0.0,0.0,0.0,0.0,0.0,0.0,0.0,0.0,-5.248,-5.248,-5.248,-5.248,-5.2842,-5.3675,-5.4327,-5.5088,-5.5957,-5.6708,-5.7218,-5.7388,-5.7631,-5.775,-5.781,-5.795,-5.7997,-5.7997,-5.7997,-5.7997,-5.8033,-5.8877,-5.8767,-5.818,-6.0419,-6.1924,-6.289,-6.3759,-6.5485,-6.7577,-6.8568,-6.9219,-6.9803,-7.0906,-7.1581,-7.205,-7.2197,-7.2709,-7.3337,-7.3801,-7.4538,-7.5342,-7.5907,-7.6167,-7.6275,-7.6275,-7.6275,-7.6275,-7.6275,-7.6275,-7.6275,-7.6275,-7.6275,-7.6275,-7.6275,-7.6275,-7.6275,-7.6275,-7.6275,-7.6275,-7.6275,-7.6275,-7.6275,-7.6275,-7.6275,-7.6275,-7.6275,-7.6275,-7.6275,-7.6275,-7.6275,-7.6275,-7.6275,-7.6275,-7.6275,-7.6275,-7.6275,-7.6275,-7.6275,-7.6275,-7.6275,-7.6275,-7.6275,-7.6275,-7.6275,-7.6275,-7.6275,-4.0274,-3.9948,0.0,-3.9441,0.0,0.0,0.0,0.0,-3.8154,0.0,0.0,0.0,0.0,0.0,0.0,0.0,0.0,0.0,0.0,0.0,0.0,0.0,0.0,0.0,0.0,-5.248,-5.248,-5.248,-5.248,-5.3023,-5.4218,-5.4689,-5.5438,-5.6672,-5.7145,-5.7461,-5.7583,-5.7703,-5.7834,-5.7904,-5.7973,-5.7997,-5.7997,-5.7997,-5.7997,-5.8033,-5.8437,-5.8621,-5.8731,-6.0346,-6.1961,-6.3539,-6.4383,-6.5925,-6.7834,-6.9045,-6.9659,-7.0096,-7.1448,-7.205,-7.2299,-7.2299,-7.2848,-7.3593,-7.4056,-7.495,-7.5937,-7.62,-7.6275,-7.6275,-7.6275,-7.6275,-7.6275,-7.6275,-7.6275,-7.6275,-7.6275,-7.6275,-7.6275,-7.6275,-7.6275,-7.6275,-7.6275,-7.6275,-7.6275,-7.6275,-7.6275,-7.6275,-7.6275,-7.6275,-7.6275,-7.6275,-7.6275,-7.6275,-7.6275,-7.6275,-7.6275,-7.6275,-7.6275,-7.6275,-7.6275,-7.6275,-7.6275,-7.6275,-7.6275,-7.6275,-7.6275,-7.6275,-7.6275,-7.6275,-7.6275,-7.6275,0.0,0.0,0.0,0.0,0.0,-3.9405,0.0,0.0,0.0,-4.0148,0.0,0.0,0.0,0.0,0.0,0.0,0.0,0.0,0.0,0.0,0.0,0.0,0.0,0.0,0.0,-5.1864,-5.1828,-5.2444,-5.1937,-5.2552,-5.4798,-5.4907,-5.5644,-5.7351,-5.7412,-5.7534,-5.781,-5.7834,-5.7904,-5.7997,-5.7997,-5.7997,-5.7997,-5.7997,-5.7997,-5.7997,-5.7997,-5.8474,-5.9258,-6.0236,-6.1998,-6.4163,-6.5007,-6.6292,-6.7871,-6.9486,-7.0026,-7.0189,-7.1916,-7.2409,-7.2329,-7.2233,-7.2832,-7.3696,-7.4392,-7.5393,-7.6275,-7.6275,-7.6275,-7.6275,-7.6275,-7.6275,-7.6275,-7.6275,-7.6275,-7.6275,-7.6275,-7.6275,-7.6275,-7.6275,-7.6275,-7.6275,-7.6275,-7.6275,-7.6275,-7.6275,-7.6275,-7.6275,-7.6275,-7.6275,-7.6275,-7.6275,-7.6275,-7.6275,-7.6275,-7.6275,-7.6275,-7.6275,-7.6275,-7.6275,-7.6275,-7.6275,-7.6275,-7.6275,-7.6275,-7.6275,-7.6275,-7.6275,-7.6275,-7.6275,-7.6275,-7.6275,0.0,0.0,0.0,0.0,-4.252,0.0,0.0,0.0,-3.8608,-3.6817,0.0,0.0,0.0,0.0,0.0,0.0,0.0,0.0,0.0,0.0,0.0,0.0,0.0,0.0,0.0,0.0,-4.9438,-5.2299,-4.9872,-5.0198,-5.4653,-5.4907,-5.5644,-5.7351,-5.751,-5.7631,-5.781,-5.7927,-5.7973,-5.7997,-5.7997,-5.7997,-5.7997,-5.7997,-5.7997,-5.7997,-5.7997,-5.8474,-5.9294,-6.086,-6.2511,-6.4163,-6.5007,-6.6292,-6.7871,-6.9486,-7.011,-7.0302,-7.1945,-7.2467,-7.2409,-7.2108,-7.286,-7.4131,-7.5584,-7.6164,-7.6275,-7.6275,-7.6275,-7.6275,-7.6275,-7.6275,-7.6275,-7.6275,-7.6275,-7.6275,-7.6275,-7.6275,-7.6275,-7.6275,-7.6275,-7.6275,-7.6275,-7.6275,-7.6275,-7.6275,-7.6275,-7.6275,-7.6275,-7.6275,-7.6275,-7.6275,-7.6275,-7.6275,-7.6275,-7.6275,-7.6275,-7.6275,-7.6275,-7.6275,-7.6275,-7.6275,-7.6275,-7.6275,-7.6275,-7.6275,-7.6275,-7.6275,-7.6275,-7.6275,-7.6275,-7.6275,0.0,0.0,0.0,0.0,0.0,0.0,-3.9278,0.0,-3.7305,0.0,0.0,0.0,0.0,0.0,0.0,0.0,0.0,0.0,0.0,0.0,0.0,0.0,0.0,0.0,0.0,0.0,0.0,0.0,0.0,-4.9401,-5.3313,-5.4399,-5.5474,-5.6782,-5.734,-5.7679,-5.7927,-5.7973,-5.7997,-5.7997,-5.7997,-5.7997,-5.7997,-5.7997,-5.7997,-5.8033,-5.851,-5.9171,-6.0015,-6.163,-6.3282,-6.4897,-6.5668,-6.6696,-6.7871,-6.9486,-7.011,-7.033,-7.1945,-7.2496,-7.2585,-7.3173,-7.3924,-7.4826,-7.5949,-7.6275,-7.6275,-7.6275,-7.6275,-7.6275,-7.6275,-7.6275,-7.6275,-7.6275,-7.6275,-7.6275,-7.6275,-7.6275,-7.6275,-7.6275,-7.6275,-7.6275,-7.6275,-7.6275,-7.6275,-7.6275,-7.6275,-7.6275,-7.6275,-7.6275,-7.6275,-7.6275,-7.6275,-7.6275,-7.6275,-7.6275,-7.6275,-7.6275,-7.6275,-7.6275,-7.6275,-7.6275,-7.6275,-7.6275,-7.6275,-7.6275,-7.6275,-7.6275,-7.6275,-7.6275,-7.6275,-7.6275,-4.683,0.0,0.0,0.0,0.0,0.0,0.0,0.0,0.0,0.0,0.0,0.0,0.0,0.0,0.0,0.0,0.0,0.0,0.0,0.0,0.0,0.0,0.0,0.0,0.0,0.0,0.0,0.0,0.0,0.0,-5.2263,-5.3844,-5.5183,-5.6343,-5.7229,-5.7786,-5.7997,-5.7997,-5.7997,-5.7997,-5.7997,-5.7997,-5.7997,-5.8217,-5.8217,-5.807,-5.9098,-5.9869,-6.0529,-6.2401,-6.4016,-6.5411,-6.6439,-6.732,-6.8201,-6.9596,-7.011,-7.033,-7.1945,-7.2585,-7.2871,-7.3988,-7.4692,-7.5261,-7.6125,-7.6378,-7.6378,-7.6378,-7.6378,-7.6378,-7.6309,-7.6275,-7.6275,-7.6275,-7.6275,-7.6275,-7.6275,-7.6275,-7.6275,-7.6275,-7.6275,-7.6275,-7.6275,-7.6275,-7.6275,-7.6275,-7.6275,-7.6275,-7.6275,-7.6275,-7.6275,-7.6275,-7.6275,-7.6275,-7.6275,-7.6275,-7.6275,-7.6275,-7.6275,-7.6275,-7.6275,-7.6275,-7.6275,-7.6275,-7.6275,-7.6275,-7.6275,-7.6275,-7.6275,-7.6275,-7.6275,-7.6275,0.0,0.0,0.0,-4.4314,0.0,0.0,0.0,0.0,-4.0655,0.0,0.0,0.0,0.0,0.0,0.0,0.0,0.0,0.0,0.0,0.0,0.0,0.0,0.0,0.0,0.0,0.0,0.0,0.0,0.0,0.0,-5.2118,-5.3393,-5.4696,-5.6366,-5.7301,-5.7881,-5.7997,-5.7997,-5.7997,-5.7997,-5.7997,-5.7997,-5.8033,-5.8804,-5.8767,-5.807,-5.9685,-6.0382,-6.0603,-6.3062,-6.453,-6.5485,-6.7026,-6.8128,-6.8972,-6.9779,-7.011,-7.033,-7.1945,-7.2805,-7.33,-7.3988,-7.4595,-7.5261,-7.6294,-7.6581,-7.6581,-7.6581,-7.6581,-7.6548,-7.6378,-7.6275,-7.6275,-7.6275,-7.6275,-7.6275,-7.6275,-7.6275,-7.6275,-7.6275,-7.6275,-7.6275,-7.6275,-7.6275,-7.6275,-7.6275,-7.6275,-7.6275,-7.6275,-7.6275,-7.6275,-7.6275,-7.6275,-7.6275,-7.6275,-7.6275,-7.6275,-7.6275,-7.6275,-7.6275,-7.6275,-7.6275,-7.6275,-7.6275,-7.6275,-7.6275,-7.6275,-7.6275,-7.6275,-7.6275,-7.6275,-7.6275,0.0,0.0,-5.2444,-4.7337,0.0,0.0,0.0,0.0,0.0,0.0,0.0,0.0,0.0,0.0,0.0,0.0,0.0,0.0,0.0,0.0,0.0,0.0,0.0,0.0,0.0,0.0,0.0,0.0,0.0,0.0,0.0,-5.2522,-5.414,-5.4732,-5.6729,-5.7834,-5.7881,-5.795,-5.7997,-5.7997,-5.7997,-5.7997,-5.8033,-5.8817,-5.8767,-5.8107,-6.0272,-6.0896,-6.0639,-6.3649,-6.5044,-6.5485,-6.7063,-6.8201,-6.9009,-6.9816,-7.044,-7.1036,-7.2013,-7.3171,-7.422,-7.429,-7.5179,-7.6312,-7.6632,-7.6676,-7.6614,-7.6614,-7.6478,-7.6378,-7.6345,-7.6275,-7.6275,-7.6275,-7.6275,-7.6275,-7.6275,-7.6275,-7.6275,-7.6275,-7.6275,-7.6275,-7.6275,-7.6275,-7.6275,-7.6275,-7.6275,-7.6275,-7.6275,-7.6275,-7.6275,-7.6275,-7.6275,-7.6275,-7.6275,-7.6275,-7.6275,-7.6275,-7.6275,-7.6275,-7.6275,-7.6275,-7.6275,-7.6275,-7.6275,-7.6275,-7.6275,-7.6275,-7.6275,-7.6275,-7.6275,-7.6275,-5.3132,-5.3892,0.0,-4.9619,-4.817,0.0,-4.1723,0.0,0.0,0.0,0.0,0.0,0.0,0.0,0.0,0.0,0.0,0.0,0.0,0.0,0.0,0.0,0.0,0.0,0.0,0.0,-4.0311,-4.3824,0.0,0.0,0.0,0.0,-5.37,-5.4,-5.6543,-5.7881,-5.7881,-5.795,-5.7997,-5.7997,-5.7997,-5.8143,-5.8437,-5.8964,-5.9098,-5.8951,-6.0786,-6.13,-6.108,-6.4053,-6.5301,-6.5485,-6.7063,-6.8348,-6.9376,-6.9926,-7.0779,-7.1757,-7.2475,-7.355,-7.4622,-7.479,-7.5744,-7.6801,-7.6801,-7.6741,-7.6643,-7.6614,-7.6515,-7.6412,-7.6345,-7.6275,-7.6275,-7.6275,-7.6275,-7.6275,-7.6275,-7.6275,-7.6275,-7.6275,-7.6275,-7.6275,-7.6275,-7.6275,-7.6275,-7.6275,-7.6275,-7.6275,-7.6275,-7.6275,-7.6275,-7.6275,-7.6275,-7.6275,-7.6275,-7.6275,-7.6275,-7.6275,-7.6275,-7.6275,-7.6275,-7.6275,-7.6275,-7.6275,-7.6275,-7.6275,-7.6275,-7.6275,-7.6275,-7.6275,-7.6275,-7.6275]},{"header":{"parameterUnit":"m.s-1","parameterCategory":1,"la1":30.6,"la2":29.2853,"lo1":-89.7004,"lo2":-87.6739,"dy":0.0162,"dx":0.0183,"nx":112,"ny":82,"refTime":"2024-12-05T18:00:00:Z","depth":0,"parameterNumber":3,"parameterNumberName":"V-component_of_WINDS"},"data":[0.0,0.0,0.0,0.0,0.0,0.0,0.0,0.0,0.0,0.0,0.0,0.0,0.0,0.0,0.0,0.0,0.0,0.0,0.0,0.0,0.0,0.0,0.0,0.0,0.0,0.0,0.0,0.0,0.0,0.0,0.0,0.0,0.0,0.0,0.0,0.0,0.0,0.0,0.0,0.0,0.0,0.0,0.0,0.0,0.0,0.0,0.0,0.0,0.0,0.0,0.0,0.0,0.0,0.0,0.0,0.0,0.0,0.0,0.0,0.0,0.0,0.0,0.0,0.0,0.0,0.0,0.0,0.0,0.0,0.0,0.0,0.0,0.0,0.0,0.0,0.0,0.0,0.0,0.0,0.0,0.0,0.0,0.0,0.0,0.0,0.0,0.0,0.0,0.0,0.0,0.0,3.1048,3.3404,3.4222,3.2755,3.2466,3.0879,2.7354,0.0,0.0,0.0,0.0,0.0,0.0,0.0,0.0,0.0,0.0,0.0,0.0,0.0,0.0,0.0,0.0,0.0,0.0,0.0,0.0,0.0,0.0,0.0,0.0,0.0,0.0,0.0,0.0,0.0,0.0,0.0,0.0,0.0,0.0,0.0,0.0,0.0,0.0,0.0,0.0,0.0,0.0,0.0,0.0,0.0,0.0,0.0,0.0,0.0,0.0,0.0,0.0,0.0,0.0,0.0,0.0,0.0,0.0,0.0,0.0,0.0,0.0,0.0,0.0,0.0,0.0,0.0,0.0,0.0,0.0,0.0,0.0,0.0,0.0,0.0,0.0,0.0,0.0,0.0,0.0,0.0,0.0,0.0,0.0,0.0,0.0,0.0,0.0,0.0,0.0,0.0,0.0,0.0,0.0,0.0,0.0,0.0,0.0,0.0,0.0,0.0,0.0,0.0,0.0,2.9148,3.2563,3.4054,3.439,3.326,3.2322,3.0783,2.8426,0.0,0.0,0.0,0.0,0.0,0.0,0.0,0.0,0.0,0.0,0.0,0.0,0.0,0.0,0.0,0.0,0.0,0.0,0.0,0.0,0.0,0.0,0.0,0.0,0.0,0.0,0.0,0.0,0.0,0.0,0.0,0.0,0.0,0.0,0.0,0.0,0.0,0.0,0.0,0.0,0.0,0.0,0.0,0.0,0.0,0.0,0.0,0.0,0.0,0.0,0.0,0.0,0.0,0.0,0.0,0.0,0.0,0.0,0.0,0.0,0.0,0.0,0.0,0.0,0.0,0.0,0.0,0.0,0.0,0.0,0.0,0.0,0.0,0.0,0.0,0.0,0.0,0.0,0.0,0.0,0.0,0.0,0.0,0.0,0.0,0.0,0.0,0.0,0.0,0.0,0.0,0.0,0.0,0.0,0.0,0.0,0.0,0.0,0.0,0.0,0.0,0.0,0.0,2.8265,3.0518,3.338,3.4078,3.4102,3.3356,3.2034,3.0326,2.821,2.5588,0.0,0.0,0.0,0.0,0.0,0.0,0.0,0.0,0.0,0.0,0.0,0.0,0.0,0.0,0.0,0.0,0.0,0.0,0.0,0.0,0.0,0.0,0.0,0.0,0.0,0.0,0.0,0.0,0.0,0.0,0.0,0.0,0.0,0.0,0.0,0.0,0.0,0.0,0.0,0.0,0.0,0.0,0.0,0.0,0.0,0.0,0.0,0.0,0.0,0.0,0.0,0.0,0.0,0.0,0.0,0.0,0.0,0.0,0.0,0.0,0.0,0.0,0.0,0.0,0.0,0.0,0.0,0.0,0.0,0.0,0.0,0.0,0.0,0.0,0.0,0.0,0.0,0.0,0.0,0.0,0.0,0.0,0.0,0.0,0.0,0.0,0.0,0.0,0.0,0.0,0.0,0.0,0.0,0.0,0.0,0.0,0.0,0.0,0.0,0.0,0.0,0.0,3.0652,3.2034,3.3958,3.4054,3.379,3.3332,3.1577,2.9701,2.781,2.5011,0.0,0.0,0.0,0.0,0.0,0.0,0.0,0.0,0.0,0.0,0.0,0.0,0.0,0.0,0.0,0.0,0.0,0.0,0.0,0.0,0.0,0.0,0.0,0.0,0.0,0.0,0.0,0.0,0.0,0.0,0.0,0.0,0.0,0.0,0.0,0.0,0.0,0.0,0.0,0.0,0.0,0.0,0.0,0.0,0.0,0.0,0.0,0.0,0.0,0.0,0.0,0.0,0.0,0.0,0.0,0.0,0.0,0.0,0.0,0.0,0.0,0.0,0.0,0.0,0.0,0.0,0.0,0.0,0.0,0.0,0.0,0.0,0.0,0.0,0.0,0.0,0.0,0.0,0.0,0.0,0.0,0.0,0.0,0.0,0.0,0.0,0.0,0.0,0.0,0.0,0.0,0.0,0.0,0.0,0.0,0.0,0.0,0.0,0.0,0.0,0.0,0.0,3.1412,3.2996,3.4607,3.4294,3.379,3.3332,3.0903,2.8931,2.7762,2.4314,0.0,0.0,0.0,0.0,0.0,0.0,0.0,0.0,0.0,0.0,0.0,0.0,0.0,0.0,0.0,0.0,0.0,0.0,0.0,0.0,0.0,0.0,0.0,0.0,0.0,0.0,0.0,0.0,0.0,0.0,0.0,0.0,0.0,0.0,0.0,0.0,0.0,0.0,0.0,0.0,0.0,0.0,0.0,0.0,0.0,0.0,0.0,0.0,0.0,0.0,0.0,0.0,0.0,0.0,0.0,0.0,0.0,0.0,0.0,0.0,0.0,0.0,0.0,0.0,0.0,0.0,0.0,0.0,0.0,0.0,0.0,0.0,0.0,0.0,0.0,0.0,0.0,0.0,0.0,0.0,0.0,0.0,0.0,0.0,0.0,0.0,0.0,0.0,0.0,0.0,0.0,0.0,0.0,0.0,0.0,0.0,0.0,0.0,0.0,0.0,0.0,0.0,3.0178,3.2359,0.0,3.3482,3.3212,3.2346,3.0735,2.8763,2.6382,0.0,0.0,0.0,0.0,0.0,0.0,0.0,0.0,0.0,0.0,0.0,0.0,0.0,0.0,0.0,0.0,0.0,0.0,0.0,0.0,0.0,0.0,0.0,0.0,0.0,0.0,0.0,0.0,0.0,0.0,0.0,0.0,0.0,0.0,0.0,0.0,0.0,0.0,0.0,0.0,0.0,0.0,0.0,0.0,0.0,0.0,0.0,0.0,0.0,0.0,0.0,0.0,0.0,0.0,0.0,0.0,0.0,0.0,0.0,0.0,0.0,0.0,0.0,0.0,0.0,0.0,0.0,0.0,0.0,0.0,0.0,0.0,0.0,0.0,0.0,0.0,0.0,0.0,0.0,0.0,0.0,0.0,0.0,0.0,0.0,0.0,0.0,0.0,0.0,0.0,0.0,0.0,0.0,0.0,0.0,0.0,0.0,0.0,0.0,0.0,0.0,0.0,2.6126,2.9331,3.1437,0.0,3.2151,3.2019,3.1276,2.9668,2.7653,2.5147,0.0,0.0,0.0,0.0,0.0,0.0,0.0,0.0,0.0,0.0,0.0,0.0,0.0,0.0,0.0,0.0,0.0,0.0,0.0,0.0,0.0,0.0,0.0,0.0,0.0,0.0,0.0,0.0,0.0,0.0,0.0,0.0,0.0,0.0,0.0,0.0,0.0,0.0,0.0,0.0,0.0,0.0,0.0,0.0,0.0,0.0,0.0,0.0,0.0,0.0,0.0,0.0,0.0,0.0,0.0,0.0,0.0,0.0,0.0,0.0,0.0,0.0,0.0,0.0,0.0,0.0,0.0,0.0,0.0,0.0,0.0,0.0,0.0,0.0,0.0,0.0,0.0,0.0,0.0,0.0,0.0,0.0,0.0,0.0,0.0,0.0,0.0,0.0,0.0,0.0,0.0,0.0,0.0,0.0,0.0,0.0,0.0,0.0,0.0,0.0,0.0,0.0,2.6846,2.9176,3.059,3.0827,3.0406,3.0112,3.0148,2.7453,2.5333,0.0,0.0,0.0,0.0,0.0,0.0,0.0,0.0,0.0,0.0,0.0,0.0,0.0,0.0,0.0,0.0,0.0,0.0,0.0,0.0,0.0,0.0,0.0,0.0,0.0,0.0,0.0,0.0,0.0,0.0,0.0,0.0,0.0,0.0,0.0,0.0,0.0,0.0,0.0,0.0,0.0,0.0,0.0,0.0,0.0,0.0,0.0,0.0,0.0,0.0,0.0,0.0,0.0,0.0,0.0,0.0,0.0,0.0,0.0,0.0,0.0,0.0,0.0,0.0,0.0,0.0,0.0,0.0,0.0,0.0,0.0,0.0,0.0,0.0,0.0,0.0,0.0,0.0,0.0,0.0,0.0,0.0,0.0,0.0,0.0,0.0,0.0,0.0,0.0,0.0,0.0,0.0,0.0,0.0,0.0,0.0,0.0,0.0,0.0,0.0,0.0,0.0,0.0,2.5345,2.8636,3.0551,2.9848,3.028,3.0106,2.8744,2.7655,2.5939,2.341,0.0,0.0,0.0,0.0,0.0,0.0,0.0,0.0,0.0,0.0,0.0,0.0,0.0,0.0,0.0,0.0,0.0,0.0,0.0,0.0,0.0,0.0,0.0,0.0,0.0,0.0,0.0,0.0,0.0,0.0,0.0,0.0,0.0,0.0,0.0,0.0,0.0,0.0,0.0,0.0,0.0,0.0,0.0,0.0,0.0,0.0,0.0,0.0,0.0,0.0,0.0,0.0,0.0,0.0,0.0,0.0,0.0,0.0,0.0,0.0,0.0,0.0,0.0,0.0,0.0,0.0,0.0,0.0,0.0,0.0,0.0,0.0,0.0,0.0,0.0,0.0,0.0,0.0,0.0,0.0,0.0,0.0,0.0,0.0,0.0,0.0,0.0,0.0,0.0,0.0,0.0,0.0,0.0,0.0,0.0,0.0,0.0,0.0,0.0,0.0,0.0,0.0,2.4801,2.7804,2.9529,2.8807,2.9282,2.9132,2.7786,2.7036,2.5462,2.2755,0.0,0.0,0.0,0.0,0.0,0.0,0.0,0.0,0.0,0.0,0.0,0.0,0.0,0.0,0.0,0.0,0.0,0.0,0.0,0.0,0.0,0.0,0.0,0.0,0.0,0.0,0.0,0.0,0.0,0.0,0.0,0.0,0.0,0.0,0.0,0.0,0.0,0.0,0.0,0.0,0.0,0.0,0.0,0.0,0.0,0.0,0.0,0.0,0.0,0.0,0.0,0.0,0.0,0.0,0.0,0.0,0.0,0.0,0.0,0.0,0.0,0.0,0.0,0.0,0.0,0.0,0.0,0.0,0.0,0.0,0.0,0.0,0.0,0.0,0.0,0.0,0.0,0.0,0.0,0.0,0.0,0.0,0.0,0.0,0.0,0.0,0.0,0.0,0.0,0.0,0.0,0.0,0.0,0.0,0.0,0.0,0.0,0.0,0.0,0.0,0.0,0.0,2.4916,2.698,2.8127,2.7925,2.7854,2.7676,2.7193,2.5982,2.4454,2.2565,0.0,0.0,0.0,0.0,0.0,0.0,0.0,0.0,0.0,0.0,0.0,0.0,0.0,0.0,0.0,0.0,0.0,0.0,0.0,0.0,0.0,0.0,0.0,0.0,0.0,0.0,0.0,0.0,0.0,0.0,0.0,0.0,0.0,0.0,0.0,0.0,0.0,0.0,0.0,0.0,0.0,0.0,0.0,0.0,0.0,0.0,0.0,0.0,0.0,0.0,0.0,0.0,0.0,0.0,0.0,0.0,0.0,0.0,0.0,0.0,2.2878,0.0,0.0,0.0,0.0,0.0,0.0,0.0,0.0,0.0,0.0,0.0,0.0,0.0,0.0,0.0,0.0,0.0,0.0,0.0,0.0,0.0,0.0,0.0,0.0,0.0,0.0,0.0,0.0,0.0,0.0,0.0,0.0,0.0,0.0,0.0,0.0,0.0,0.0,0.0,0.0,0.0,2.5186,2.7297,2.8507,2.8457,2.8407,2.7971,2.6822,2.5982,2.4916,2.3575,2.1321,0.0,0.0,0.0,0.0,0.0,0.0,0.0,0.0,0.0,0.0,0.0,0.0,0.0,0.0,0.0,0.0,0.0,0.0,0.0,0.0,0.0,0.0,0.0,0.0,0.0,0.0,0.0,0.0,0.0,0.0,0.0,0.0,0.0,0.0,0.0,0.0,0.0,0.0,0.0,0.0,0.0,0.0,0.0,0.0,0.0,0.0,0.0,0.0,0.0,0.0,0.0,0.0,0.0,0.0,0.0,0.0,0.0,0.0,0.0,0.0,2.4147,0.0,0.0,0.0,0.0,0.0,0.0,0.0,0.0,0.0,0.0,0.0,0.0,0.0,0.0,0.0,0.0,0.0,0.0,0.0,0.0,0.0,0.0,0.0,0.0,0.0,0.0,0.0,0.0,0.0,0.0,0.0,0.0,0.0,0.0,0.0,0.0,0.0,0.0,0.0,0.0,2.543,2.7441,2.8607,2.8607,2.8607,2.8152,2.704,2.6403,2.5499,2.4117,2.2343,0.0,0.0,0.0,0.0,0.0,0.0,0.0,0.0,0.0,0.0,0.0,0.0,0.0,0.0,0.0,0.0,0.0,0.0,0.0,0.0,0.0,0.0,0.0,0.0,0.0,0.0,0.0,0.0,0.0,0.0,0.0,0.0,0.0,0.0,0.0,0.0,0.0,0.0,0.0,0.0,0.0,0.0,0.0,0.0,0.0,0.0,0.0,0.0,0.0,0.0,0.0,0.0,0.0,2.8425,2.8607,2.8545,2.8918,2.8876,2.8483,2.7738,2.6904,2.5936,2.5009,0.0,0.0,0.0,0.0,0.0,0.0,0.0,0.0,0.0,0.0,0.0,0.0,0.0,0.0,0.0,0.0,0.0,0.0,0.0,0.0,0.0,0.0,0.0,0.0,2.5647,2.4964,0.0,0.0,0.0,0.0,0.0,0.0,0.0,0.0,0.0,0.0,0.0,0.0,2.5709,2.7531,2.8607,2.8607,2.8607,2.8255,2.7392,2.6874,2.6036,2.479,2.3658,2.2203,0.0,0.0,0.0,0.0,0.0,0.0,0.0,0.0,0.0,0.0,0.0,0.0,0.0,0.0,0.0,0.0,0.0,0.0,0.0,0.0,0.0,0.0,0.0,0.0,0.0,0.0,0.0,0.0,0.0,0.0,0.0,0.0,2.6351,2.6501,0.0,0.0,0.0,0.0,0.0,0.0,0.0,0.0,0.0,0.0,0.0,0.0,0.0,2.7489,2.8289,2.9487,2.9942,2.9694,3.0872,3.1298,3.0926,3.0988,3.0988,3.0905,3.0801,0.0,2.7545,2.6636,0.0,0.0,0.0,0.0,0.0,0.0,0.0,0.0,0.0,0.0,0.0,0.0,0.0,0.0,0.0,0.0,0.0,0.0,0.0,0.0,0.0,0.0,2.7013,2.7469,2.7282,2.6936,0.0,2.3908,2.1445,2.0866,2.012,0.0,0.0,0.0,0.0,0.0,0.0,0.0,2.6231,2.7717,2.8607,2.8607,2.8607,2.8255,2.7392,2.6874,2.6496,2.631,2.4716,2.366,2.3309,2.1237,0.0,0.0,0.0,0.0,0.0,0.0,0.0,0.0,0.0,0.0,0.0,0.0,0.0,0.0,0.0,0.0,0.0,0.0,0.0,0.0,0.0,0.0,0.0,0.0,0.0,0.0,0.0,0.0,0.0,2.6351,2.7241,2.704,2.6832,2.6289,0.0,0.0,0.0,0.0,0.0,0.0,0.0,0.0,0.0,2.8669,2.8773,2.9228,3.016,3.1029,3.1485,3.1547,3.2091,3.2333,3.2147,3.2147,3.2147,3.2147,3.2147,3.1422,3.0045,2.8421,2.722,2.6284,0.0,0.0,0.0,0.0,2.5215,2.5316,2.6289,2.6185,0.0,2.4902,0.0,0.0,0.0,0.0,0.0,0.0,0.0,0.0,0.0,0.0,0.0,2.8587,2.8545,2.8338,2.8069,2.6372,2.4364,0.0,2.1963,2.1317,2.001,0.0,0.0,0.0,0.0,0.0,2.6397,2.7531,2.8235,2.8235,2.8235,2.7966,2.7372,2.7123,2.6895,2.6625,2.5879,2.5171,2.4654,2.3103,2.1665,0.0,0.0,0.0,0.0,0.0,0.0,0.0,0.0,0.0,0.0,0.0,0.0,0.0,0.0,0.0,0.0,0.0,0.0,0.0,0.0,0.0,0.0,0.0,0.0,0.0,0.0,0.0,0.0,2.7407,2.8069,2.7489,2.7786,2.7386,0.0,0.0,0.0,0.0,0.0,0.0,2.8421,2.8897,2.9415,2.9994,3.0346,3.0905,3.1712,3.2043,3.2339,3.2669,3.2669,3.2669,3.2669,3.2669,3.2669,3.2669,3.2669,3.2483,3.2008,3.0118,2.898,2.8338,2.72,2.6682,2.6682,2.7537,2.7828,2.7945,2.9083,2.9187,2.8587,2.7345,0.0,2.552,2.3619,0.0,0.0,0.0,0.0,2.6185,2.7303,2.8193,2.8918,2.9373,2.9477,2.9352,2.8897,2.8255,2.7081,0.0,2.3867,2.3163,2.1445,0.0,0.0,0.0,0.0,2.5337,2.6625,2.7427,2.7924,2.7924,2.7924,2.7738,2.7351,2.7309,2.7164,2.6812,2.6687,2.6268,2.5606,2.4592,2.3474,2.22,0.0,0.0,0.0,0.0,0.0,0.0,0.0,0.0,0.0,0.0,0.0,0.0,0.0,0.0,0.0,0.0,0.0,0.0,0.0,0.0,0.0,0.0,0.0,0.0,0.0,0.0,0.0,0.0,0.0,2.8007,2.9063,0.0,0.0,0.0,0.0,2.8483,2.8938,2.9415,2.987,3.0325,3.0988,3.1822,3.1864,3.2112,3.2664,3.2628,3.2706,3.2669,3.2669,3.2669,3.2669,3.2669,3.2669,3.2669,3.2669,3.2669,3.2566,3.165,3.0698,2.9829,2.9332,2.8876,2.8524,2.9021,2.9208,2.927,2.9787,2.9663,2.9332,2.9684,2.8876,2.7614,2.662,2.6397,0.0,0.0,2.6744,2.7903,2.8421,2.8897,2.9394,2.9849,2.9953,2.9829,2.9373,2.9228,2.8649,0.0,2.5709,2.5044,2.4941,0.0,2.4487,2.4941,2.5482,2.621,2.7143,2.7634,2.7924,2.7924,2.7924,2.7738,2.7351,2.7309,2.7289,2.7268,2.6853,2.6604,2.6542,2.5213,2.4239,2.3784,2.1983,0.0,0.0,0.0,0.0,0.0,0.0,0.0,0.0,0.0,0.0,0.0,0.0,0.0,0.0,0.0,0.0,0.0,0.0,0.0,0.0,0.0,0.0,0.0,0.0,0.0,0.0,0.0,0.0,2.929,2.9953,0.0,2.8276,2.869,2.9311,2.9911,3.0636,3.1381,3.2126,3.2602,3.2871,3.2892,3.2892,3.2851,3.2669,3.2669,3.2669,3.2669,3.2669,3.2669,3.2669,3.2669,3.2669,3.2669,3.2669,3.2669,3.2706,3.2375,3.1878,3.1257,3.0822,3.0532,3.045,3.0905,3.1071,3.1078,3.1588,3.1443,3.0988,3.0574,2.9911,2.9187,2.8876,2.8773,2.8731,2.8566,2.8876,2.929,2.9456,2.9622,2.9787,2.9953,2.9994,2.9953,2.9787,2.9518,2.9104,2.8462,2.7365,2.6248,2.5334,2.5316,2.5461,2.5627,2.6041,2.6604,2.7226,2.7455,2.7489,2.7489,2.7489,2.7475,2.7309,2.704,2.6853,2.6853,2.6418,2.6169,2.6169,2.5399,2.4735,2.4259,2.308,2.1511,0.0,0.0,0.0,0.0,0.0,0.0,0.0,0.0,0.0,0.0,0.0,0.0,0.0,0.0,0.0,0.0,0.0,0.0,0.0,0.0,0.0,0.0,0.0,0.0,0.0,0.0,3.0408,3.0243,3.1029,3.1112,2.9891,3.047,3.1174,3.1774,3.2375,3.2975,3.3575,3.3966,3.3844,3.3389,3.3368,3.3161,3.2669,3.2669,3.2669,3.2669,3.2669,3.2669,3.2669,3.2669,3.2669,3.2669,3.2669,3.2669,3.2669,3.2669,3.2483,3.2194,3.194,3.1836,3.1878,3.2168,3.2215,3.2256,3.2566,3.238,3.1884,3.134,3.0843,3.047,3.047,3.047,3.047,3.047,3.0346,3.0222,3.0222,3.0118,2.9994,2.9994,2.9994,2.9994,2.9994,2.9766,2.9497,2.9332,2.8317,2.72,2.6243,2.6248,2.6397,2.6397,2.6646,2.6957,2.7268,2.7309,2.7309,2.7309,2.7309,2.7247,2.7081,2.6791,2.6542,2.6397,2.6086,2.5875,2.5875,2.5316,2.4817,2.4507,2.335,2.219,2.1114,0.0,0.0,0.0,0.0,0.0,0.0,0.0,0.0,0.0,0.0,0.0,0.0,0.0,0.0,0.0,0.0,0.0,0.0,0.0,0.0,0.0,0.0,0.0,2.8566,3.0263,3.1236,3.0843,3.2333,3.3058,3.2132,3.3285,3.4132,3.4152,3.4152,3.4152,3.4113,3.4152,3.3945,3.341,3.3389,3.3161,3.2669,3.2669,3.2669,3.2669,3.2669,3.2669,3.2669,3.2669,3.2669,3.2669,3.2669,3.2669,3.2669,3.2669,3.2669,3.2669,3.2669,3.2669,3.2669,3.2669,3.2669,3.2669,3.2669,3.238,3.2008,3.2008,3.1774,3.1422,3.1422,3.1422,3.1422,3.1402,3.1071,3.0698,3.0698,3.0346,2.9994,2.9994,2.9994,2.9994,2.9994,2.9994,2.987,2.9415,2.8587,2.7966,2.7896,2.7572,2.733,2.733,2.7309,0.0,2.7309,2.7309,2.7309,2.7309,2.7309,2.7123,2.6687,2.6604,2.6397,2.5916,2.5854,2.5879,2.5879,2.5026,2.4507,2.4507,2.2811,2.2108,2.2522,0.0,0.0,0.0,0.0,0.0,0.0,0.0,0.0,0.0,0.0,0.0,0.0,0.0,0.0,0.0,0.0,0.0,0.0,0.0,0.0,0.0,0.0,2.9953,3.0532,3.134,3.2168,3.3037,3.3575,3.3782,3.3534,3.3844,3.4256,3.4608,3.4629,3.4714,3.5024,3.4755,3.4422,3.3886,3.3555,3.3161,3.2669,3.2669,3.2669,3.2669,3.2669,3.2669,3.2669,3.2669,3.2669,3.2669,3.2669,3.2669,3.2669,3.2669,3.2669,3.2669,3.2669,3.2669,3.2669,3.2669,3.2669,3.2669,3.2669,3.2587,3.2483,3.2483,3.2457,3.2354,3.2354,3.2354,3.2292,3.1961,3.1526,3.1112,3.0781,3.0346,2.9994,2.9994,2.9994,2.9994,2.9994,2.9994,2.9953,2.9829,2.9332,2.8814,2.8483,2.8048,2.7738,2.7738,2.7469,0.0,2.7309,2.7309,2.7309,2.7309,2.7309,2.7247,2.7123,2.6501,2.6065,2.5941,2.5275,2.4859,2.4859,2.4941,2.5003,2.5003,2.4177,2.3536,0.0,0.0,0.0,0.0,0.0,0.0,0.0,0.0,0.0,0.0,0.0,0.0,0.0,0.0,0.0,0.0,0.0,0.0,0.0,0.0,0.0,0.0,2.9787,3.1547,3.2375,3.2561,3.3037,3.4277,3.4422,3.4484,3.461,3.4631,3.4755,3.5024,3.5045,3.5148,3.5418,3.5004,3.4608,3.4132,3.3617,3.3161,3.2669,3.2669,3.2669,3.2669,3.2669,3.2669,3.2669,3.2669,3.2669,0.0,3.2669,3.2669,3.2669,3.2669,3.2669,0.0,0.0,0.0,0.0,0.0,3.2669,3.2669,3.2669,3.2669,3.2669,3.2669,3.2669,3.2669,3.2669,3.2669,3.2607,3.2339,3.1878,3.1319,3.105,3.0491,2.9994,2.9994,2.9994,2.9994,2.9994,2.9994,2.9994,2.9994,2.9766,0.0,2.9249,2.8649,2.8214,2.8214,2.7986,2.7821,2.7821,2.7821,2.7821,2.7821,2.7655,2.7469,2.733,2.6625,0.0,0.0,0.0,2.452,2.4206,2.4615,0.0,0.0,0.0,0.0,0.0,0.0,0.0,0.0,2.4382,2.4282,0.0,0.0,0.0,0.0,0.0,0.0,0.0,0.0,0.0,0.0,0.0,0.0,0.0,0.0,0.0,0.0,3.1526,3.2623,3.3886,3.3762,3.3844,3.4795,3.4899,3.4983,3.5376,3.5418,3.5418,3.5418,3.5418,3.5397,3.5355,0.0,0.0,0.0,0.0,3.312,3.2669,3.2669,3.2669,3.2669,3.2669,3.2669,3.2669,3.2669,3.2669,3.2669,3.2669,3.2669,3.2669,3.2669,3.2669,3.2669,3.2669,3.2669,3.2669,3.2669,3.2669,3.2669,3.2669,0.0,0.0,3.2669,3.2669,3.2669,3.2669,3.2669,3.2669,3.2669,3.2106,3.1443,3.1381,3.0719,3.0056,3.0015,2.9994,2.9994,2.9994,2.9994,2.9994,2.9994,2.9994,2.9994,2.9994,2.927,2.869,2.869,2.8649,2.8607,2.8607,2.8607,2.8607,2.8607,0.0,0.0,2.7496,2.704,2.6392,2.554,2.5259,2.4897,2.4267,2.463,2.4967,2.5416,2.547,2.6094,2.7221,2.7653,2.8115,2.8476,2.5808,2.5602,0.0,0.0,0.0,0.0,0.0,0.0,0.0,0.0,0.0,0.0,0.0,0.0,0.0,0.0,0.0,3.0615,3.2064,3.3348,3.4049,3.438,3.4693,3.5231,3.5293,3.5314,3.5418,3.5418,3.5418,3.5418,3.5418,3.5273,3.49,3.4505,3.4049,3.3534,3.3078,3.2809,3.2669,3.2669,3.2669,3.2669,0.0,0.0,3.2669,3.2669,3.2669,3.2669,3.2669,3.2669,3.2669,3.2669,3.2669,3.2669,3.2669,3.2669,3.2669,3.2669,3.2669,3.2669,3.2669,3.2669,3.2669,3.2669,3.2669,3.2669,3.2669,3.2669,0.0,3.2669,3.2277,3.1836,3.1464,3.0967,3.047,3.0077,2.9994,2.9994,2.9994,2.9994,2.9994,2.9994,2.9994,2.9994,2.9994,2.9539,2.9166,2.9166,2.8856,2.8607,2.8607,2.8607,2.8607,2.8607,2.8524,2.8442,2.8359,2.7924,2.7593,2.7359,2.7028,2.6946,2.7119,2.7153,2.7284,2.7338,2.781,2.8036,2.8005,2.8746,2.927,2.944,2.8726,2.8635,0.0,0.0,0.0,0.0,0.0,0.0,0.0,0.0,0.0,0.0,0.0,2.8152,2.8856,0.0,3.1505,3.1961,3.3182,3.4214,3.4443,3.4817,3.5169,3.5397,3.5418,3.5418,3.5418,3.5418,3.5418,3.5418,3.5418,3.5231,3.4837,3.438,3.3844,3.3389,3.2954,3.2669,3.2669,3.2669,3.2669,3.2669,3.2669,3.2669,3.2669,3.2669,3.2669,3.2669,3.2669,3.2669,3.2669,3.2669,3.2669,3.2669,3.2669,3.2669,3.2669,3.2669,3.2669,3.2669,3.2669,3.2669,3.2669,3.2669,3.2669,3.2669,3.2669,3.2669,3.2669,3.2669,3.2339,3.1926,3.1774,3.1381,3.0905,3.045,3.0346,3.0284,3.0036,2.9994,2.9994,2.9994,2.9994,2.9994,2.9994,2.9808,2.9642,2.9642,2.9456,2.9311,2.9311,2.9311,2.9311,2.9311,2.9104,2.8959,2.8959,2.819,2.7582,2.7337,2.7134,2.7016,2.714,2.7583,2.7874,2.8075,2.858,2.8867,2.8887,2.9525,2.9908,2.9941,3.0238,3.0339,0.0,0.0,0.0,0.0,0.0,0.0,0.0,0.0,2.6931,2.7911,2.8711,2.9622,3.0739,3.1692,3.254,3.3265,3.4214,3.4795,3.4691,3.5004,3.5252,3.5169,3.5314,3.5418,3.5418,3.5418,3.5418,3.5418,3.5335,3.5086,3.4712,3.4256,3.372,3.3265,3.2913,3.2669,3.2669,3.2669,3.2669,3.2669,3.2669,3.2669,3.2669,3.2669,3.2669,3.2669,3.2669,3.2669,3.2612,3.2612,3.2612,3.2612,3.2612,3.2669,3.2669,3.2669,3.2669,3.2669,3.2669,3.2669,3.2669,3.2669,3.2669,3.2669,3.2669,3.2669,3.2669,3.2669,3.2401,3.2091,3.2008,3.1774,3.1381,3.0926,3.0822,3.0624,3.0169,3.0013,2.994,2.9962,2.9889,2.9837,2.9994,2.9942,2.9942,2.9994,2.9994,2.9994,2.9994,2.9994,2.9994,2.9994,2.9611,2.9332,2.9281,2.835,2.7683,2.7412,2.7331,2.7269,2.7196,2.7865,2.8396,2.8697,2.9055,2.9391,2.9819,3.0231,3.0389,3.0332,3.0993,3.1242,2.5954,2.5699,2.5958,2.7573,2.7748,2.8018,0.0,0.0,2.9808,3.0719,3.1319,3.1657,3.1802,3.2623,3.3265,3.3348,3.4214,3.4671,3.4256,3.4608,3.4733,3.4258,3.4921,3.5418,3.5418,3.5418,3.5418,3.5418,3.5045,3.4691,3.4235,3.3699,3.3244,3.2809,3.2747,3.2669,3.2669,3.2669,3.2669,3.2669,3.2669,3.2669,3.2669,3.2669,3.2669,3.2669,3.2669,3.2555,3.2363,3.2363,3.2363,3.2363,3.2363,3.2498,3.2669,3.2669,3.2669,3.2669,3.2669,3.2669,3.2669,3.2669,3.2669,3.2669,3.2669,3.2669,3.2669,3.2669,3.2628,3.2504,3.2091,3.1946,3.1857,3.1402,3.1114,3.0751,3.0281,2.9985,2.9776,2.9688,2.9396,2.9343,2.9889,2.9784,2.9711,2.9942,2.9994,2.9994,2.9994,2.9994,2.9994,2.9994,2.9723,2.942,2.9157,2.9023,2.9071,2.942,2.946,2.9621,2.9948,3.0068,3.0148,3.0133,3.035,3.0438,3.0478,3.0912,3.1033,3.082,3.1131,3.1305,2.7055,2.7207,0.0,0.0,2.8789,2.9321,3.0473,3.0532,3.0657,3.1567,3.1864,3.207,3.2339,3.2954,3.3368,0.0,3.3986,3.4339,3.4152,3.4297,3.4339,3.4093,3.4403,3.4631,3.4631,3.4631,3.4631,3.4631,3.4465,3.4214,3.3699,3.3492,3.3182,3.269,3.2669,3.2669,3.2669,3.2669,3.2669,3.2669,3.2669,3.2669,3.2669,3.2669,3.2612,3.2498,3.2498,3.2305,3.2018,3.2018,3.2018,3.2018,3.2018,3.2076,3.2211,3.2383,3.2498,3.244,3.2248,3.2211,3.2018,3.1305,3.1536,3.2018,3.1305,3.1614,3.2211,3.2211,3.2211,3.215,3.1909,3.1848,3.1747,3.1355,3.1121,3.0888,3.0423,3.0233,3.0118,3.0099,2.9189,2.8741,2.9748,2.9026,2.8581,2.9343,2.9659,2.9784,2.9784,2.9606,2.9448,2.9448,2.9396,2.9185,2.8887,2.9126,2.9291,2.9288,2.9545,2.9763,2.9941,3.0142,3.026,3.026,3.06,3.0779,3.0779,3.0955,3.0995,3.0898,3.125,3.0994,2.7841,0.0,0.0,2.8938,2.9684,3.0491,3.0967,3.1153,3.1443,3.2029,3.2173,3.2277,3.2607,3.3078,3.3368,3.3368,3.3762,3.4031,3.3966,3.3945,3.3844,3.372,3.3699,3.3699,3.3699,3.3927,3.4132,3.4132,3.4007,3.3779,3.3389,3.3265,3.3058,3.269,3.2669,3.2669,3.2669,3.2669,3.2669,3.2669,3.2669,3.2669,3.2669,3.2612,3.2305,3.1767,3.1652,3.1247,3.0587,3.0587,3.0587,3.0587,3.0587,3.0645,3.0762,3.0937,3.1247,3.1594,3.1363,3.0995,3.0568,2.963,2.9982,3.0568,2.963,2.9982,3.0704,3.0704,3.0704,3.0704,3.0704,3.0704,3.0626,3.0295,3.0179,3.0006,2.9523,2.937,2.9275,2.9196,2.8201,2.7827,2.9192,2.8427,2.7997,2.9279,2.9601,2.9627,2.9469,2.9237,2.9079,2.8973,2.8973,2.8927,2.8799,2.9095,2.9262,2.9258,2.957,2.9805,2.9922,3.0234,3.0391,3.0391,3.0723,3.0898,3.0898,3.0898,3.0957,3.1074,3.1367,3.1024,0.0,0.0,2.8835,2.9725,3.0657,3.1443,3.1843,3.2297,3.2685,3.2649,3.2649,3.2649,3.2669,3.3078,3.3368,3.3368,3.3762,3.3906,3.3509,3.3389,3.3244,3.283,3.2711,3.2711,0.0,3.3555,3.4132,3.4132,3.3658,3.3389,3.3368,3.2975,3.269,3.2669,3.2669,3.2669,3.2669,3.2669,3.2669,3.2669,3.2669,3.2669,3.2669,3.242,3.1594,3.0315,3.0119,2.9098,2.7649,2.7649,2.7649,2.7649,2.7649,2.7811,2.7991,2.7769,2.8623,2.9943,2.9943,2.908,2.8033,2.7973,2.7973,2.8033,2.7973,2.7973,2.8033,2.8033,2.8033,2.8033,2.8033,2.8033,2.8033,2.8015,2.7794,2.7467,2.7023,2.67,2.6479,2.6273,2.5955,2.6359,2.8201,2.8296,2.8577,3.0123,3.0143,2.9789,2.9199,2.9132,2.8973,2.8727,2.8727,2.8745,2.8867,2.8906,2.9277,3.0098,3.0176,3.0391,3.084,3.0859,3.0859,3.0859,3.0879,3.0898,3.0898,3.0898,3.1094,3.1504,3.1504,3.1738,0.0,0.0,2.9746,3.0677,3.136,3.194,3.2339,3.2566,3.2587,3.2277,3.2215,3.2132,3.1878,3.2188,3.2499,3.2499,3.2871,3.312,3.2975,3.2954,3.2892,3.269,3.2669,0.0,0.0,0.0,0.0,3.3182,3.3037,3.2954,3.2954,3.2809,3.2669,3.2669,3.2669,3.2669,3.2669,3.2669,3.2669,3.2669,3.2498,3.194,3.1111,3.082,2.9865,2.8426,2.8385,2.7847,2.7185,2.7185,2.7185,2.7185,2.7185,2.7246,2.7306,2.7185,2.7004,2.6823,2.7667,2.7667,2.7168,2.6321,2.6624,2.7168,2.6321,2.6624,2.7289,2.7289,2.7289,2.7289,2.7289,2.7289,2.7289,2.7289,2.7246,2.7091,2.697,2.6876,2.6782,2.6721,2.6422,2.672,2.8113,2.8122,2.8352,2.9662,2.996,2.9862,2.951,2.9415,2.9415,2.9306,2.9306,2.9309,2.9336,2.9609,2.9883,3.0176,3.0488,3.0723,3.0879,3.0898,3.047,2.9589,2.9589,2.9589,2.9589,2.9871,2.9927,2.9814,3.0358,2.9756,2.8856,2.9787,3.0677,3.1422,3.1961,3.2318,3.2607,3.2545,3.2297,3.1899,3.1671,3.1422,3.0967,3.1257,3.1609,3.1774,3.2132,3.2483,3.2706,3.2669,3.2669,3.2669,3.2669,3.2669,0.0,0.0,0.0,3.2669,3.2669,3.2669,3.2669,3.2669,3.2669,3.2669,3.2669,3.2669,3.2669,3.2669,3.2669,3.2555,3.1459,3.0626,3.0158,2.9394,2.8188,2.6806,2.6685,2.6277,2.5607,2.5607,2.5607,2.5607,2.5607,2.5607,2.5607,2.5607,2.5071,2.4579,2.5867,2.5973,2.5485,2.4641,2.4949,2.5423,2.4641,2.4949,2.5607,2.5607,2.5607,2.5607,2.5607,2.5607,2.5607,2.5607,2.5607,2.5607,2.5607,2.5607,2.5607,2.5607,2.5428,2.5687,2.6942,2.7381,2.7803,2.8572,2.8802,2.9108,2.9553,2.9626,2.9626,2.9626,2.9626,2.9629,2.9785,3.0039,3.0273,3.043,3.0296,3.0216,3.0216,3.0216,2.9785,2.892,2.892,2.892,2.892,2.8757,2.8588,2.842,2.9144,2.8494,2.9787,3.0698,3.1526,3.1905,3.2339,3.2669,3.2649,3.2277,3.1878,3.1402,3.0946,3.047,0.0,0.0,3.0822,3.1278,3.1754,3.2173,3.2607,3.2669,3.2669,0.0,0.0,0.0,0.0,0.0,0.0,3.2669,0.0,3.2669,3.2669,3.2669,3.2669,3.2669,3.2612,3.2612,3.2612,3.2498,3.2363,3.2076,2.9552,2.8842,2.963,2.8086,2.6624,2.533,2.5117,2.427,2.3106,2.3106,2.3106,2.3106,2.3106,2.3106,2.3106,2.3106,2.3106,2.3293,2.4579,2.4147,2.3106,2.3106,2.3106,2.3106,2.3106,2.3106,2.3106,2.3106,2.3106,2.3106,2.3106,2.3106,2.3106,2.3106,2.3106,2.3106,2.3106,2.3106,2.3106,2.3106,2.3168,2.3604,2.4949,2.6233,2.7021,2.7021,2.7021,2.7582,2.9276,2.9461,2.9461,2.9461,2.9517,2.9748,3.0081,3.0177,3.043,3.0859,2.9667,2.892,2.892,2.892,2.8861,2.8683,2.8801,2.8801,2.8683,2.7504,2.7105,2.7508,2.7821,2.7963,3.0263,3.1174,3.1981,3.238,3.2587,3.2587,3.2235,3.1878,3.1319,3.0512,2.9973,2.9518,0.0,0.0,0.0,3.0843,3.1816,0.0,3.2649,3.2669,0.0,3.2669,0.0,3.2669,3.2669,3.2669,0.0,0.0,3.2669,3.2669,3.2669,3.2669,3.2669,3.2669,3.1767,3.1305,3.1305,3.01,2.9316,2.9002,2.8128,2.7349,2.6608,2.5973,2.4994,2.3713,2.3666,2.3417,2.3106,2.3106,2.3106,2.3106,2.3106,2.3106,2.3106,2.3106,2.3106,2.3168,2.3479,2.3417,2.3106,2.3106,2.3106,2.3106,2.3106,2.3106,2.3106,2.3106,2.3106,2.3106,2.3106,2.3106,2.3106,2.3106,2.3106,2.3106,2.3106,2.3106,2.3106,2.3106,2.3914,2.501,2.6277,2.6779,2.7021,2.7021,2.7021,2.7194,2.7582,2.7683,2.7683,2.7683,2.8509,2.9133,2.9226,3.016,3.0762,3.0879,2.9667,2.892,2.892,2.892,2.8026,2.6095,2.6987,2.7048,2.6095,2.6068,2.6045,2.6018,2.6516,2.6247,3.1029,3.1795,3.2297,3.2359,3.238,3.2153,3.134,3.0946,3.0387,2.9063,2.8752,0.0,0.0,0.0,0.0,0.0,0.0,0.0,3.2685,3.2669,3.2669,0.0,3.2669,0.0,3.2669,3.2669,3.2669,0.0,3.2669,3.2669,3.2669,3.219,3.1767,3.1652,3.0392,2.967,2.9552,2.8051,2.7452,2.7692,2.6382,2.5607,2.5285,2.4579,2.379,2.3106,0.0,2.3106,2.3106,2.3106,2.3106,2.3106,2.3106,2.3106,2.3106,2.3106,2.3106,2.3106,2.3106,2.3106,2.3106,2.3106,2.3106,2.3106,2.3106,2.3106,2.3106,2.3106,2.3106,2.3106,2.3106,2.3106,2.3106,2.3106,2.3106,2.3106,2.3106,2.3106,2.3106,2.3106,2.3728,2.4456,2.5194,2.5301,2.5301,2.5301,2.5301,2.5301,2.5301,2.6277,2.7021,2.7021,2.7667,2.8265,2.8861,2.9057,2.9431,2.9962,2.8265,2.7228,2.7228,2.7228,2.6581,2.5133,2.579,2.579,2.5071,2.4859,2.4715,2.4667,2.5221,2.5242,3.176,3.2318,3.2566,3.2091,3.1946,3.1588,3.0222,2.9808,2.9228,2.7558,0.0,2.7282,2.6103,2.7282,2.8628,2.9208,0.0,3.1629,3.2602,3.2669,3.2669,3.2669,3.2669,3.2669,3.2669,3.2669,3.2669,3.2669,3.2669,3.2612,3.244,3.1421,3.0509,2.9846,2.8646,2.7811,2.7314,2.6244,2.6078,2.6866,2.4641,2.3976,2.4826,2.3604,2.3106,2.3106,2.3106,0.0,2.3106,2.3106,2.3106,2.3106,2.3106,2.3106,2.3106,2.3106,2.3106,2.312,2.3164,2.3179,2.3164,2.312,2.3106,2.3106,2.3106,2.3106,2.3106,2.3106,2.3106,2.3106,2.3106,2.3106,2.3106,2.3106,2.3106,2.3106,2.3106,2.3106,2.3106,2.3106,2.3106,2.3106,2.3106,2.3106,2.3106,2.3106,2.3106,2.3106,2.3106,2.5071,2.6459,2.6459,2.6658,2.7185,2.8325,2.7547,2.7486,2.8564,2.6399,2.5071,2.5071,2.5119,2.5058,2.4826,2.5105,2.5121,2.4904,2.4056,2.3706,2.3808,2.4379,2.4899,3.189,3.2318,3.2566,3.2091,3.1754,3.1133,2.9746,2.8835,0.0,0.0,0.0,2.6165,2.5916,2.6812,0.0,2.9104,0.0,0.0,0.0,0.0,3.2669,0.0,0.0,0.0,0.0,0.0,0.0,0.0,0.0,3.2248,3.1189,3.0937,2.9688,2.7228,2.6685,2.5774,2.4394,2.4147,2.3961,2.3837,2.3417,2.3293,2.3417,2.323,2.3106,2.3106,2.3106,0.0,2.3106,2.3106,2.3106,2.3106,2.3106,2.3106,2.3106,2.3106,2.3106,2.3149,2.3413,2.3515,2.3471,2.3193,2.3106,2.3106,2.3106,2.3106,2.3106,2.3106,2.3106,2.3106,2.3106,2.3106,2.3106,2.3106,2.3106,2.3106,2.3106,2.3106,2.3106,2.3106,2.3106,2.3106,2.3106,2.3106,2.3106,2.3106,2.3106,2.3106,2.3106,2.3479,2.3775,2.3775,2.4764,2.5501,2.5729,2.652,2.7065,2.7349,2.5912,2.5071,2.5071,2.5279,2.4797,2.3479,2.5014,2.5153,2.3881,2.3966,2.4276,2.487,2.4987,2.5286,3.1742,3.2199,3.2276,3.1411,3.1011,3.0298,2.8419,0.0,0.0,0.0,0.0,2.573,2.5275,0.0,0.0,0.0,0.0,0.0,0.0,0.0,0.0,0.0,0.0,0.0,0.0,0.0,0.0,0.0,0.0,3.1169,3.0568,2.8943,2.7091,2.5071,2.4687,2.4147,2.3355,2.3355,2.323,2.3106,2.3106,2.3106,2.3106,2.3106,2.3106,2.3106,2.3106,0.0,2.3106,2.3106,2.3106,2.3106,2.3106,2.3106,2.3135,2.3296,2.3354,2.3413,2.3735,2.3852,2.3823,2.3662,2.3618,2.3618,2.3618,2.3501,2.3354,2.3354,2.3237,2.3106,2.3106,2.3106,2.3106,2.3106,2.3106,2.3149,2.3325,2.3354,2.3354,2.3354,2.3354,2.331,2.3135,2.3106,2.3106,2.3106,2.3106,2.3106,2.3106,2.3106,2.3106,2.3106,2.3666,2.4332,2.501,2.501,2.524,2.5973,2.4921,2.4297,2.4297,2.4617,2.4404,2.3618,2.4555,2.472,2.4101,2.4437,2.4832,2.5301,2.5476,2.5813,3.1566,3.2018,3.193,3.0812,3.0275,2.9481,2.7224,2.669,0.0,0.0,2.5065,2.5378,2.4631,0.0,0.0,0.0,0.0,0.0,0.0,0.0,0.0,0.0,0.0,0.0,0.0,0.0,0.0,0.0,0.0,0.0,2.9356,2.6651,2.4625,2.3604,2.3293,2.3106,2.3106,2.3106,2.3106,2.3106,2.3047,2.3003,2.3003,2.3003,2.3003,2.3003,2.3076,0.0,0.0,2.3106,2.3149,2.3208,2.3208,2.3252,2.3354,2.3603,2.3706,2.3749,2.4071,2.4188,2.4203,2.4276,2.4203,2.4086,2.4086,2.391,2.3706,2.3706,2.3515,2.331,2.331,2.3267,2.3193,2.312,2.3106,2.3179,2.3442,2.3486,2.3515,2.3588,2.3588,2.353,2.3354,2.331,2.331,2.331,2.331,2.331,2.331,2.331,2.331,2.331,2.3193,2.3542,2.4579,2.3788,2.3646,2.4688,2.4086,2.3706,2.3706,2.4013,2.4188,2.4188,2.432,2.4525,2.4774,2.5096,2.5432,2.574,2.6003,2.6296,3.1609,3.1845,3.1644,3.0757,2.9836,2.8709,2.6968,0.0,0.0,2.441,2.444,2.459,2.4507,2.4611,0.0,0.0,0.0,0.0,0.0,0.0,0.0,0.0,0.0,0.0,0.0,0.0,0.0,0.0,0.0,0.0,2.6365,2.4748,2.3728,2.3604,2.3293,2.3106,2.3106,2.3106,2.3106,2.3106,2.2813,2.2667,2.2667,2.2667,2.2667,2.2681,2.2974,0.0,0.0,2.3106,2.3281,2.3545,2.3545,2.3735,2.3998,2.4027,2.4042,2.4086,2.4408,2.4525,2.4569,2.4943,2.4635,2.4086,2.4086,2.4057,2.4042,2.4042,2.4013,2.3998,2.3998,2.3779,2.3471,2.3179,2.3106,2.312,2.3149,2.3149,2.3237,2.3545,2.3588,2.3676,2.3954,2.3998,2.3998,2.3998,2.3998,2.3998,2.3998,2.3998,2.3998,2.3998,2.3457,2.3168,2.3293,2.3447,2.3623,2.3735,2.3916,2.4042,2.4042,2.4349,2.4525,2.4525,2.5096,2.5418,2.5447,2.5769,2.6091,2.6413,2.6442,2.6632,3.0557,3.1184,3.1242,3.0234,2.9416,2.8461,2.6654,0.0,2.4927,2.4303,2.4249,2.4378,2.4507,2.4507,2.4859,0.0,0.0,0.0,0.0,0.0,0.0,0.0,0.0,0.0,0.0,0.0,0.0,0.0,0.0,0.0,2.4255,2.3666,2.3293,2.3293,2.3168,2.3106,2.3106,2.2915,2.2813,2.2813,2.2506,2.2359,2.2359,2.255,2.2623,2.2637,2.2959,0.0,0.0,2.3325,2.3471,2.3618,2.3808,2.3969,2.4101,2.4305,2.4379,2.4423,2.4744,2.4929,2.4914,2.4855,2.465,2.4379,2.4379,2.4101,2.3793,2.3793,2.3647,2.3501,2.3501,2.3398,2.3267,2.3135,2.3106,2.3164,2.3354,2.3398,2.3442,2.3574,2.3749,2.3866,2.3808,2.3793,2.3852,2.4057,2.391,2.3866,2.4057,2.4086,2.4013,2.3808,2.3735,2.3691,2.3691,2.3808,2.3881,2.3881,2.4203,2.4379,2.4379,2.4876,2.514,2.514,2.5593,2.5915,2.612,2.6252,2.6471,2.6793,2.6793,2.6969,2.9668,3.0406,3.0618,2.9783,2.9046,2.8061,0.0,0.0,2.4655,2.4129,2.412,2.4206,2.4272,2.4378,2.4669,0.0,0.0,2.6192,0.0,0.0,0.0,0.0,0.0,0.0,0.0,0.0,0.0,0.0,0.0,0.0,2.3168,2.3106,2.3106,2.3106,2.3106,2.3062,2.2959,2.274,2.2579,2.2491,2.2184,2.2096,2.2198,2.2403,2.2535,2.2637,2.2959,0.0,0.0,2.3501,2.3706,2.391,2.413,2.4291,2.4393,2.4627,2.4723,2.4598,2.4899,2.4914,2.4797,2.4496,2.4364,2.4276,2.4276,2.4027,2.3735,2.3735,2.3574,2.3369,2.3281,2.3252,2.3223,2.3135,2.3106,2.3193,2.353,2.3588,2.3647,2.3852,2.4071,2.4188,2.4057,2.4027,2.4101,2.4335,2.4174,2.4115,2.4349,2.4379,2.4276,2.4057,2.4232,2.4247,2.3969,2.4115,2.4232,2.4232,2.4627,2.4847,2.4847,2.5388,2.5725,2.5813,2.6047,2.6325,2.6647,2.6647,2.6764,2.6998,2.7086,2.7364,2.9293,2.9646,2.9646,2.9626,2.8667,2.7344,0.0,2.5248,2.4544,2.3692,2.3904,2.412,2.3841,2.4013,2.4349,2.4819,0.0,0.0,0.0,0.0,0.0,0.0,0.0,0.0,0.0,0.0,0.0,0.0,0.0,0.0,2.3106,2.3106,2.3106,2.3106,2.3106,2.2959,2.2637,2.2623,2.2476,2.2184,2.1862,2.1876,2.2184,2.2184,2.2345,0.0,0.0,0.0,0.0,2.3588,2.3984,2.4554,2.4554,2.4826,2.5119,2.5119,2.4914,2.4569,2.4569,2.4364,2.4086,2.4086,2.3866,2.3603,2.3603,2.3823,2.4071,2.4071,2.4071,2.3998,2.3676,2.3588,2.3515,2.3179,2.3106,2.3193,2.353,2.3588,2.3793,2.4437,2.4554,2.4671,2.5061,2.5105,2.5119,2.5119,2.5119,2.5119,2.5119,2.5119,2.5119,2.5105,2.5119,2.4723,2.3691,2.4188,2.4569,2.4569,2.5169,2.552,2.552,2.5842,2.6164,2.6486,2.65,2.6661,2.6983,2.6983,2.6983,2.6998,2.732,2.7817,2.7129,2.7832,2.8178,2.7539,2.6875,2.6094,2.5011,2.4441,2.4008,2.3569,2.3624,2.3711,2.3797,2.3884,2.427,2.534,2.591,0.0,0.0,0.0,0.0,0.0,0.0,0.0,0.0,0.0,0.0,0.0,0.0,0.0,2.3106,2.3106,2.3106,2.3106,2.3106,2.2945,2.2623,2.2418,2.2169,2.1847,2.1745,2.1745,2.1862,2.2286,2.2535,0.0,0.0,0.0,0.0,2.3837,2.4174,2.4583,2.4818,2.5031,2.509,2.487,2.4657,2.4569,2.4569,2.4496,2.4423,2.4423,2.4349,2.4262,2.4262,2.4027,2.3837,2.4291,2.4583,2.4797,2.4627,2.4665,2.4569,2.4466,2.4437,2.4466,2.4569,2.4665,2.4723,2.4929,2.5081,2.5257,2.5359,2.5374,2.5461,2.5681,2.552,2.5461,2.5681,2.571,2.5622,2.5403,2.5579,2.5418,2.4657,2.4979,2.5227,2.5227,2.5622,2.5857,2.5857,2.6179,2.6398,2.65,2.672,2.6998,2.732,2.732,2.7437,2.7656,2.7978,2.8242,0.0,2.6543,2.6855,2.6484,2.5937,2.5293,2.457,2.4102,2.3717,2.3418,2.3406,2.3493,2.3537,2.3624,2.4047,2.5251,2.543,0.0,0.0,0.0,0.0,0.0,0.0,0.0,0.0,0.0,0.0,0.0,0.0,0.0,2.3106,2.3106,2.3106,2.3106,2.3106,2.2901,2.2462,2.2271,2.1964,2.1511,2.1642,2.1759,2.1891,2.2403,2.2696,0.0,0.0,0.0,0.0,2.413,2.4466,2.4841,2.5046,2.5119,2.509,2.4686,2.4569,2.4554,2.4423,2.4393,2.4393,2.4393,2.4466,2.4613,2.4862,2.4569,2.4232,2.4642,2.4973,2.5119,2.5119,2.5119,2.5119,2.5119,2.5119,2.5163,2.5213,2.5227,2.5271,2.5403,2.5579,2.571,2.571,2.571,2.5783,2.5988,2.5842,2.5783,2.5988,2.6018,2.5944,2.574,2.59,2.5857,2.5447,2.5593,2.571,2.571,2.6018,2.6193,2.6193,2.6515,2.6749,2.6866,2.7071,2.7335,2.7656,2.7656,2.7817,2.8063,2.8268,2.8505,0.0,2.5518,2.5635,2.6055,2.5547,2.4824,2.4414,2.4023,0.0,2.3179,2.3319,2.3426,2.3223,2.3359,2.3767,2.4736,0.0,0.0,0.0,0.0,0.0,0.0,0.0,0.0,0.0,0.0,0.0,0.0,0.0,0.0,2.3106,2.3106,2.3106,2.3106,2.3106,2.2813,2.2213,2.2198,2.1876,2.1276,2.1584,2.1906,2.2228,2.252,2.2828,0.0,0.0,0.0,0.0,2.4437,2.4826,2.5119,2.5119,2.5119,2.5046,2.4723,2.454,2.4496,2.4188,2.4101,2.413,2.4174,2.4408,2.4788,2.5403,2.5374,2.5193,2.5222,2.5251,2.5266,2.5266,2.5266,2.5266,2.5266,2.5266,2.5271,2.5564,2.5637,2.5725,2.6032,2.6091,2.6091,2.6091,2.6091,2.6091,2.6091,2.6091,2.6091,2.6091,2.6091,2.6091,2.6091,2.6091,2.6091,2.6091,2.6061,2.6047,2.6047,2.6354,2.6544,2.6574,2.6866,2.7174,2.751,2.7539,2.7686,2.7917,2.7932,2.8093,2.8476,2.8476,2.8622,2.3588,0.0,2.4199,2.3965,2.3705,2.353,0.0,2.3315,2.3218,2.312,0.0,2.3384,2.4004,2.3594,2.3795,0.0,0.0,0.0,0.0,0.0,0.0,0.0,0.0,0.0,0.0,0.0,0.0,0.0,0.0,2.3106,2.3106,2.3106,2.3106,2.3106,2.3106,2.2915,2.252,2.2301,2.2111,2.1964,2.2037,2.2228,2.2535,2.2857,2.3032,0.0,0.0,0.0,2.4101,2.4437,2.4826,2.5119,2.5119,2.4973,2.4709,2.432,2.4203,2.4188,2.4115,2.4247,2.454,2.5022,2.5418,2.5754,2.6149,2.6047,2.5842,2.6091,2.6339,2.653,2.653,2.653,2.653,2.653,2.653,2.6559,2.6632,2.6647,2.6676,2.6749,2.6764,2.6764,2.6764,2.6764,2.6764,2.6764,2.6764,2.6764,2.6764,2.6764,2.6764,2.6764,2.6764,2.6764,2.6764,2.653,2.6383,2.6383,2.6691,2.6983,2.7232,2.732,2.751,2.7832,2.8081,2.8242,2.8253,2.8549,2.871,2.8783,2.8783,2.8812,2.3101,2.3594,2.4023,2.3744,2.3686,2.3686,2.3686,0.0,0.0,0.0,0.0,2.3296,2.4004,2.375,0.0,0.0,0.0,0.0,0.0,0.0,0.0,0.0,0.0,0.0,0.0,0.0,0.0,0.0,0.0,2.3106,2.3106,2.3106,2.3106,2.3106,2.3106,2.2945,2.2623,2.2462,2.2315,2.2184,2.2315,2.2462,2.2637,2.2959,2.3193,0.0,0.0,0.0,2.4335,2.4657,2.4973,2.5119,2.5119,2.4929,2.4554,2.4379,2.4305,2.4305,2.4305,2.4613,2.5096,2.5593,2.5974,2.6296,2.6632,2.6603,2.65,2.6676,2.6852,2.6983,2.6983,2.6983,2.6983,2.6983,2.6983,2.6983,2.6983,2.6983,2.6983,2.6983,2.6983,2.6983,2.6983,2.7115,2.7217,2.7217,2.7217,2.7217,2.7217,2.7086,2.6983,2.6983,2.713,2.7217,2.7217,2.7188,2.71,2.6954,2.7115,2.7364,2.7686,2.77,2.7847,2.8093,2.8491,2.8637,2.8651,2.8812,2.8886,2.8886,2.8886,2.8886,2.3257,2.3919,2.4551,2.4297,2.4316,2.4375,2.4258,0.0,0.0,0.0,0.0,0.0,0.0,0.0,0.0,0.0,0.0,0.0,0.0,0.0,0.0,0.0,0.0,0.0,0.0,0.0,0.0,0.0,0.0,2.3106,2.3106,2.3106,2.3106,2.3106,2.3106,2.2974,2.2696,2.2652,2.252,2.233,2.252,2.2652,2.271,2.2988,2.3281,2.3618,0.0,0.0,2.4665,2.4987,2.5119,2.5119,2.5119,2.4899,2.4496,2.4554,2.454,2.451,2.4613,2.5037,2.5579,2.5915,2.6237,2.6559,2.6896,2.6983,2.6983,2.6983,2.6983,2.6983,2.6983,2.6983,2.6983,2.6983,2.6983,2.6983,2.6983,2.6983,2.7013,2.7056,2.7071,2.7086,2.713,2.7364,2.7554,2.7554,2.7554,2.7554,2.7554,2.7305,2.7144,2.7144,2.7378,2.7554,2.7554,2.7803,2.7861,2.7642,2.7583,2.7686,2.7932,2.799,2.8227,2.8505,2.8754,2.8886,2.8886,2.8886,2.8886,2.8886,2.8886,2.8886,2.4023,2.4816,2.5128,2.3666,2.3842,2.4219,2.3452,0.0,0.0,0.0,0.0,0.0,0.0,0.0,0.0,0.0,0.0,0.0,0.0,0.0,0.0,0.0,0.0,0.0,0.0,0.0,0.0,0.0,0.0,0.0,2.3106,2.3106,2.3106,2.3106,2.3106,2.3091,2.3032,2.2754,2.274,2.2959,2.274,2.2769,2.3032,2.3091,2.3281,2.3618,0.0,2.4276,2.4665,2.4987,2.5119,2.5119,2.5119,2.4686,2.4188,2.4466,2.4393,2.4232,2.4855,2.5227,2.5579,2.5915,2.6237,2.6559,2.6896,2.6983,2.6983,2.6983,2.6983,2.6983,2.6983,2.6983,2.6983,2.6983,2.6983,2.6983,2.6983,2.6983,2.7071,2.7349,2.7408,2.7481,2.7759,2.7771,2.7801,2.7801,2.7801,2.7801,2.7801,2.7757,2.7728,2.7728,2.7847,2.7801,2.7801,2.7844,2.7976,2.8271,2.8037,2.7947,2.8268,2.8608,2.8769,2.8812,2.8871,2.8886,2.8886,2.8886,2.8886,2.8886,2.8886,2.8886,2.3569,2.4531,2.5117,2.4082,2.4824,2.5664,2.5039,0.0,0.0,0.0,0.0,0.0,0.0,0.0,0.0,0.0,0.0,0.0,0.0,0.0,0.0,0.0,0.0,0.0,0.0,0.0,0.0,0.0,0.0,0.0,2.3106,2.3106,2.3106,2.3106,2.3106,2.3106,2.3106,2.2959,2.2959,2.3106,2.2959,2.2959,2.3106,2.3106,2.3384,2.3866,0.0,2.4364,2.4914,2.5061,2.5119,2.5105,2.4929,2.4613,2.4364,2.451,2.465,2.4738,2.5154,2.552,2.5842,2.6179,2.65,2.6793,2.6939,2.6983,2.6983,2.6983,2.6983,2.6983,2.6983,2.6983,2.6983,2.6983,2.6983,2.6983,2.6983,2.713,2.7305,2.7452,2.7613,2.7788,2.7844,2.802,2.8136,2.8136,2.8136,2.8136,2.8136,2.799,2.7874,2.7874,2.8034,2.8136,2.8136,2.8359,2.8447,2.8432,2.8447,2.852,2.8681,2.8812,2.8886,2.8886,2.8886,2.8886,2.8886,2.8886,2.8973,2.9149,2.9149,2.9251,2.3516,2.416,2.4766,2.4727,0.0,2.6523,2.6406,0.0,0.0,0.0,0.0,0.0,0.0,0.0,0.0,0.0,0.0,0.0,0.0,0.0,0.0,0.0,0.0,0.0,0.0,0.0,0.0,0.0,0.0,0.0,2.3106,2.3106,2.3106,2.3106,2.3106,2.3106,2.3106,2.3106,2.3106,2.3106,2.3106,2.3106,2.3106,2.3106,2.3427,2.3969,2.4057,2.4408,2.5017,2.509,2.5119,2.5105,2.4855,2.4753,2.4738,2.4598,2.4818,2.5198,2.5447,2.5798,2.6164,2.6427,2.672,2.6983,2.6983,2.6983,2.6983,2.6983,2.6983,2.6983,2.6983,2.6983,2.7013,2.7086,2.71,2.713,2.7203,2.7408,2.7613,2.7686,2.7905,2.8005,2.8078,2.8373,2.8549,2.8549,2.8549,2.8549,2.8549,2.833,2.8093,2.8093,2.8388,2.8549,2.8549,2.8754,2.8798,2.8549,2.8769,2.8886,2.8886,2.8886,2.8886,2.8886,2.8886,2.8886,2.8886,2.8973,2.9134,2.9383,2.9456,2.9617,2.4656,2.4414,2.416,2.5304,2.543,0.0,2.6211,2.5703,0.0,2.6094,0.0,0.0,0.0,0.0,0.0,0.0,0.0,0.0,0.0,0.0,0.0,0.0,0.0,0.0,0.0,0.0,0.0,0.0,0.0,0.0,2.3106,2.3106,2.3106,2.3106,2.3106,2.3106,2.3106,2.3106,2.3106,2.3106,2.3106,2.3106,2.3106,2.3106,2.3296,2.3647,2.3954,2.4276,2.4627,2.5002,2.5119,2.5119,2.5105,2.509,2.5046,2.4686,2.4964,2.5491,2.552,2.5944,2.6471,2.65,2.672,2.6983,2.6983,2.6983,2.6983,2.6983,2.6983,2.6983,2.6983,2.6983,2.7071,2.7378,2.7437,2.7525,2.7742,2.783,2.7932,2.8315,2.8388,2.8491,2.8769,2.8842,2.8856,2.8856,2.8856,2.8856,2.8856,2.8842,2.8827,2.8827,2.8842,2.8856,2.8856,2.8871,2.8886,2.8856,2.8871,2.8886,2.8886,2.8886,2.8886,2.8886,2.8886,2.8886,2.8886,2.9193,2.9354,2.9383,2.969,2.9837,2.3926,2.3852,2.3662,2.4994,2.541,0.0,0.0,2.6738,2.6906,0.0,0.0,0.0,0.0,0.0,0.0,0.0,0.0,0.0,0.0,0.0,0.0,0.0,0.0,0.0,0.0,0.0,0.0,0.0,0.0,0.0,0.0,2.3106,2.3106,2.3106,2.3106,2.3106,2.3106,2.3106,2.3106,2.3106,2.3106,2.3106,2.3106,2.3106,2.3281,2.3618,2.394,2.4276,2.4665,2.4987,2.5119,2.5119,2.5119,2.5002,2.4788,2.5066,2.5315,2.5593,2.6003,2.6296,2.653,2.6735,2.6896,2.6983,2.6983,2.6983,2.7027,2.7232,2.7291,2.7291,2.7291,2.7291,2.7378,2.77,2.7773,2.7803,2.7844,2.8034,2.8209,2.8417,2.8593,2.8754,2.8871,2.8886,2.8886,2.8886,2.8886,2.8886,2.8886,2.8886,2.8886,2.8886,2.8886,2.8886,2.8886,2.8886,2.8886,2.8886,2.8886,2.8886,2.8886,2.8886,2.8886,2.8886,2.8886,2.8988,2.9193,2.931,2.9588,2.9983,3.0181,3.0276,2.3242,2.3252,2.3445,0.0,0.0,0.0,2.7129,0.0,0.0,0.0,0.0,0.0,0.0,0.0,0.0,0.0,0.0,0.0,0.0,0.0,0.0,0.0,0.0,0.0,0.0,0.0,0.0,0.0,0.0,0.0,0.0,2.3106,2.3106,2.3106,2.3106,2.3106,2.3106,2.3106,2.3106,2.3106,2.3106,2.3106,2.3106,2.3106,2.3237,2.3471,2.3896,2.4203,2.4452,2.4943,2.5119,2.5119,2.5119,2.4979,2.492,2.5359,2.5652,2.59,2.6354,2.6574,2.6691,2.6925,2.6983,2.6983,2.6983,2.7056,2.7188,2.7422,2.7554,2.7656,2.7759,2.77,2.77,2.7947,2.8034,2.8049,2.8227,2.8417,2.8578,2.8578,2.8739,2.8886,2.8886,2.8886,2.8886,2.8886,2.8886,2.8886,2.8886,2.8886,2.8886,2.8886,2.8886,2.8886,2.8886,2.8988,2.9047,2.9047,2.9134,2.9149,2.9047,2.9134,2.9193,2.9193,2.9193,2.931,2.9529,2.9632,2.991,3.0431,3.0451,3.0612,2.2692,2.277,2.3413,0.0,0.0,0.0,0.0,0.0,0.0,0.0,0.0,0.0,0.0,0.0,0.0,0.0,0.0,0.0,0.0,0.0,0.0,0.0,0.0,0.0,0.0,0.0,0.0,0.0,0.0,0.0,0.0,2.3106,2.3106,2.3106,2.3106,2.3106,2.3106,2.3106,2.3106,2.3106,2.3106,2.3106,2.3106,2.3106,2.3106,2.3149,2.3793,2.4086,2.413,2.4855,2.5119,2.5119,2.5119,2.5242,2.5535,2.5535,2.5944,2.65,2.65,2.672,2.6983,2.6983,2.6983,2.6983,2.6998,2.7217,2.7481,2.7481,2.7715,2.7961,2.8359,2.8122,2.7961,2.8359,2.837,2.852,2.8827,2.8886,2.8886,2.8886,2.8886,2.8886,2.8886,2.8886,2.8886,2.8886,2.8886,2.8886,2.8886,2.89,2.89,2.89,2.89,2.89,2.89,2.9193,2.9383,2.9383,2.969,2.972,2.9398,2.969,2.9866,2.9866,2.9866,2.9866,2.9947,3.0269,3.0431,3.0446,3.0671,3.0817,2.0606,2.048,0.0,0.0,0.0,0.0,0.0,0.0,0.0,0.0,0.0,0.0,0.0,0.0,0.0,0.0,0.0,0.0,0.0,0.0,0.0,0.0,0.0,0.0,0.0,0.0,0.0,0.0,0.0,0.0,0.0,2.3106,2.3106,2.3106,2.3106,2.3106,2.3106,2.3106,2.3106,2.3106,2.3106,2.3106,2.3106,2.3106,2.3106,2.3149,2.3793,2.4086,2.4115,2.454,2.4914,2.5105,2.487,2.5052,2.5564,2.5783,2.6135,2.653,2.6764,2.691,2.6983,2.6983,2.6983,2.7027,2.7261,2.7393,2.7569,2.8022,2.8227,2.8359,2.8681,2.8681,2.8637,2.8739,2.8754,2.8783,2.8871,2.8886,2.8886,2.8886,2.8886,2.8886,2.8886,2.8886,2.8886,2.8886,2.8886,2.8886,2.8886,2.909,2.9237,2.9237,2.9442,2.9573,2.9573,2.9661,2.972,2.972,3.0108,3.0137,2.9734,2.9807,2.9866,2.9866,2.9866,3.0064,3.0284,3.0387,3.0466,3.0685,3.0773,3.0817,1.9858,0.0,0.0,0.0,0.0,0.0,0.0,0.0,0.0,0.0,0.0,0.0,0.0,0.0,0.0,0.0,0.0,0.0,0.0,0.0,0.0,0.0,0.0,0.0,0.0,0.0,0.0,0.0,0.0,0.0,0.0,0.0,0.0,0.0,2.3106,2.3106,2.3106,2.3106,2.3106,2.3106,2.3106,2.3106,2.3106,2.3106,2.3106,2.3149,2.3793,2.4232,2.4481,2.454,2.4826,2.5105,2.4914,2.5154,2.5754,2.6091,2.6413,2.672,2.6925,2.6983,2.6983,2.6983,2.6983,2.7056,2.7378,2.7569,2.7773,2.8286,2.852,2.8666,2.8842,2.8886,2.8886,2.8886,2.8886,2.8886,2.8886,2.8886,2.8886,2.8886,2.8886,2.8886,2.8886,2.8886,2.8886,2.8886,2.9003,2.9134,2.9266,2.9442,2.9573,2.9573,2.9749,2.9866,2.9866,2.9983,3.0137,3.0137,3.0364,3.0451,3.0246,3.0246,3.0246,3.0246,3.0246,3.0334,3.0539,3.0539,3.0642,3.0817,3.0817,3.0817,1.983,0.0,0.0,0.0,0.0,0.0,0.0,0.0,0.0,0.0,0.0,0.0,0.0,0.0,0.0,0.0,0.0,0.0,0.0,0.0,0.0,0.0,0.0,0.0,0.0,0.0,0.0,0.0,0.0,0.0,0.0,0.0,0.0,2.3106,2.3106,2.3106,2.3106,2.3106,2.3106,2.3106,2.3106,2.3106,2.3106,2.3106,2.3135,2.3237,2.3823,2.4452,2.509,2.4671,2.473,2.5119,2.5022,2.5418,2.5976,2.6383,2.6705,2.691,2.6983,2.6998,2.691,2.6983,2.6998,2.7056,2.7408,2.7715,2.7947,2.8373,2.8681,2.8886,2.8886,2.8886,2.8886,2.8886,2.8886,2.8886,2.8886,2.8886,2.8886,2.8886,2.8886,2.8886,2.8886,2.8886,2.89,2.893,2.9208,2.9529,2.9822,2.9976,2.9991,2.9991,2.9939,2.9954,2.9954,3.0217,3.0475,3.0475,3.0671,3.0817,3.0817,3.0817,3.0817,3.0817,3.0817,3.0817,3.0817,3.0817,3.0817,3.0817,3.0817,3.0817,0.0,1.8483,0.0,0.0,0.0,0.0,0.0,0.0,0.0,0.0,0.0,0.0,0.0,0.0,0.0,0.0,0.0,0.0,0.0,0.0,0.0,0.0,0.0,0.0,0.0,0.0,0.0,0.0,0.0,0.0,0.0,0.0,0.0,2.3106,2.3106,2.3106,2.3106,2.3106,2.3106,0.0,2.3106,2.3106,2.3106,2.3106,2.3384,2.3881,2.4027,2.4452,2.5008,2.4159,2.4326,2.5037,2.4506,2.4804,2.5624,2.6241,2.6489,2.6546,2.691,2.6765,2.6619,2.691,2.6765,2.672,2.7522,2.7815,2.799,2.8637,2.8842,2.8886,2.8886,2.8886,2.8886,2.8886,2.8886,2.8886,2.8886,2.8886,2.8886,2.8886,2.8886,2.8886,2.8886,2.8886,2.8973,2.9237,2.9544,2.9778,2.9851,3.0167,3.0328,3.0328,3.0466,3.0612,3.0612,3.0685,3.0715,3.0715,3.0788,3.0817,3.0817,3.0817,3.0817,3.0817,3.0817,3.0817,3.0817,3.0817,3.0817,3.0817,3.0817,3.0817,0.0,0.0,0.0,0.0,0.0,0.0,0.0,0.0,0.0,0.0,0.0,0.0,0.0,0.0,0.0,0.0,0.0,0.0,0.0,0.0,0.0,0.0,0.0,0.0,0.0,0.0,0.0,0.0,0.0,0.0,0.0,2.3106,2.3106,2.3106,2.3106,2.3106,2.3106,2.3106,2.3106,2.3106,2.3106,2.3106,2.3106,2.3106,2.3384,2.3866,2.4013,2.4364,2.4788,2.3963,2.4202,2.5037,2.4324,2.4739,2.5709,2.6257,2.6547,2.6692,2.6692,2.6619,2.6399,2.6619,2.6646,2.6788,2.7653,2.799,2.8286,2.8754,2.8886,2.8886,2.8886,2.8886,2.8886,2.8886,2.8886,2.8886,2.8886,2.8886,2.8886,2.8886,2.8886,2.8886,2.8886,2.9017,2.9281,2.9764,3.0064,3.0144,3.0305,3.0466,3.0568,3.0568,3.0729,3.0817,3.0817,3.0817,3.0817,3.0817,3.0817,3.0817,3.0817,3.0817,3.0817,3.0817,3.0817,3.0817,3.0817,3.0817,3.0817,3.0817,3.0817,3.0817,0.0,0.0,0.0,0.0,0.0,0.0,0.0,0.0,0.0,0.0,0.0,0.0,0.0,0.0,0.0,0.0,0.0,0.0,0.0,0.0,0.0,0.0,0.0,0.0,0.0,0.0,0.0,0.0,0.0,0.0,2.2945,2.2945,2.2945,2.2945,2.3003,2.3018,2.3018,2.3076,2.3106,2.3106,2.3106,2.3043,2.2981,2.2981,2.3218,2.3618,2.3875,2.4196,2.4473,2.3825,2.4136,2.4849,2.4238,2.4758,2.5879,2.6229,2.6546,2.6765,2.6473,2.6326,2.6253,2.6383,2.6657,2.6944,2.7769,2.8151,2.8505,2.8798,2.8886,2.8886,2.8886,2.8886,2.8886,2.8886,2.8886,2.8886,2.8886,2.8886,2.8886,2.8886,2.893,2.8973,2.8973,2.9295,2.9734,3.0357,3.0475,3.0525,3.0788,3.0817,3.0817,3.0817,3.0817,3.0817,3.0817,3.0817,3.0817,3.0817,3.0817,3.0817,3.0817,3.0817,3.0817,3.0817,3.0817,3.0817,3.0817,3.0817,3.0817,3.0817,3.0817,3.0817,0.0,0.0,0.0,0.0,0.0,0.0,0.0,0.0,0.0,0.0,0.0,0.0,0.0,0.0,0.0,0.0,0.0,0.0,0.0,0.0,0.0,0.0,0.0,0.0,0.0,0.0,0.0,0.0,0.0,0.0,2.2315,2.2315,2.2315,2.2315,2.255,2.2681,2.2681,2.2959,2.3106,2.3106,2.3106,2.2918,2.2668,2.2668,2.303,2.3618,2.3681,2.3802,2.4075,2.3759,2.3804,2.417,2.4034,2.4399,2.5172,2.6084,2.6239,2.6019,2.6312,2.596,2.5488,2.6492,2.6606,2.6598,2.7955,2.8326,2.8505,2.8798,2.8886,2.8886,2.8886,2.8886,2.8886,2.8886,2.8886,2.8886,2.8886,2.8886,2.8886,2.8886,2.912,2.931,2.931,2.9822,3.0328,3.0416,3.0583,3.0773,3.0817,3.0817,3.0817,3.0817,3.0817,3.0817,3.0817,3.0817,3.0817,3.0817,3.0817,3.0817,3.0817,3.0817,3.0817,3.0817,3.0817,3.0817,3.0817,3.0817,3.0817,3.0817,3.0817,3.0817,0.0,0.0,0.0,0.0,0.0,0.0,0.0,0.0,0.0,0.0,0.0,0.0,0.0,0.0,0.0,0.0,0.0,0.0,0.0,0.0,0.0,0.0,0.0,0.0,0.0,0.0,0.0,0.0,0.0,2.2184,2.2184,2.2184,2.2184,2.2184,2.2301,2.2462,2.2623,2.2769,2.293,2.3106,2.2918,2.2731,2.2606,2.223,2.244,2.3039,2.3206,2.344,2.3685,2.3215,2.3294,2.3714,2.3474,2.3887,2.4708,2.5447,2.574,2.58,2.574,2.5631,2.5588,2.6294,2.665,2.6988,2.8114,2.8549,2.871,2.8856,2.8886,2.8886,2.8886,2.8886,2.8886,2.8886,2.9032,2.9164,2.9164,2.9164,2.9222,2.9398,2.9544,2.9705,2.9895,3.024,3.0407,3.0583,3.0729,3.0817,3.0817,3.0817,3.0817,3.0817,3.0817,3.0817,3.0817,3.0817,3.0817,3.0817,3.0817,3.0817,3.0817,3.0817,3.0817,3.0817,3.0817,3.0817,3.0817,3.0817,3.0817,3.0817,3.0817,3.0817,0.0,0.0,0.0,0.0,0.0,0.0,0.0,0.0,0.0,0.0,0.0,0.0,0.0,0.0,0.0,0.0,0.0,0.0,0.0,0.0,0.0,0.0,0.0,0.0,0.0,0.0,0.0,0.0,0.0,2.1935,2.1935,2.1935,2.1935,2.1935,2.2023,2.2213,2.2506,2.2667,2.2871,2.3106,2.2731,2.2543,2.2418,2.1853,2.1853,2.2397,2.2678,2.2958,2.3224,2.2748,2.2811,2.3183,2.3093,2.3529,2.4317,2.497,2.5373,2.558,2.5299,2.5431,2.5766,2.6285,2.6814,2.7508,2.8289,2.871,2.8886,2.8886,2.8886,2.8886,2.8886,2.8886,2.8915,2.8988,2.9193,2.9398,2.9486,2.95,2.9573,2.9807,2.9939,3.0152,3.0387,3.0504,3.0554,3.0788,3.0817,3.0817,3.0817,3.0817,3.0817,3.0817,3.0817,3.0817,3.0817,3.0817,3.0817,3.0817,3.0817,3.0817,3.0817,3.0817,3.0817,3.0817,3.0817,3.0817,3.0817,3.0817,3.0817,3.0817,3.0817,3.0817,0.0,0.0,0.0,0.0,0.0,0.0,0.0,0.0,0.0,0.0,0.0,0.0,0.0,0.0,0.0,0.0,0.0,0.0,0.0,0.0,0.0,0.0,0.0,0.0,0.0,0.0,0.0,0.0,0.0,2.1262,2.1262,2.1262,2.1262,2.1262,2.1554,2.1876,2.2198,2.2784,2.3091,2.3106,2.2731,2.2418,2.2104,2.174,2.1614,2.1691,2.2007,2.2308,2.2555,2.2591,2.2552,2.2512,2.3106,2.3612,2.4037,2.4898,2.5226,2.5239,2.5239,2.5417,2.5855,2.6522,2.7225,2.7937,2.8613,2.8871,2.8886,2.8886,2.8886,2.8886,2.8886,2.8886,2.8973,2.9281,2.9369,2.9456,2.9778,2.9837,2.9837,2.9866,3.0196,3.0416,3.0431,3.0598,3.0803,3.0817,3.0817,3.0817,3.0817,3.0817,3.0817,3.0817,3.0817,3.0817,3.0817,3.0817,3.0817,3.0817,3.0817,3.0817,3.0817,3.0817,3.0817,3.0817,3.0817,3.0817,3.0817,3.0817,3.0817,3.0817,3.0817,3.0817,0.0,0.0,0.0,0.0,0.0,0.0,0.0,0.0,0.0,0.0,0.0,0.0,0.0,0.0,0.0,0.0,0.0,0.0,0.0,0.0,0.0,0.0,0.0,0.0,0.0,0.0,0.0,0.0,0.0,0.0,2.1203,2.1203,2.1203,2.1203,2.132,2.1642,2.2184,2.2798,2.2981,2.2793,2.2418,2.2104,2.179,2.1425,2.1299,2.1312,2.1609,2.2035,2.2504,2.2263,2.2256,2.2445,2.2889,2.3267,2.3631,2.4461,2.4784,2.4884,2.537,2.5705,2.6081,2.7149,2.7783,2.821,2.8778,2.8797,2.8813,2.9129,2.9195,2.9196,2.9435,2.9515,2.9603,2.9925,2.9998,3.0086,3.0407,3.0481,3.0481,3.0481,3.0568,3.0656,3.0656,3.0744,3.0817,3.0817,3.0817,3.0817,3.0817,3.0817,3.0817,3.0817,3.0817,3.0817,3.0817,3.0817,3.0817,3.0817,3.0817,3.0817,3.0817,3.0817,3.0817,3.0817,3.0817,3.0817,3.0817,3.0817,3.0817,3.0817,3.0817,3.0817,1.4048,0.0,0.0,0.0,0.0,0.0,0.0,0.0,0.0,0.0,0.0,0.0,0.0,0.0,0.0,0.0,0.0,0.0,0.0,0.0,0.0,0.0,0.0,0.0,0.0,0.0,0.0,0.0,0.0,0.0,2.1203,2.1203,2.1262,2.1364,2.1481,2.1789,2.233,2.2719,2.2793,2.2606,2.2167,2.179,2.1614,2.1235,2.1109,2.1136,2.1523,2.1934,2.2306,2.2015,2.2071,2.2445,2.2752,2.3046,2.3434,2.4315,2.4636,2.4676,2.5405,2.602,2.6475,2.7472,2.8017,2.8368,2.8822,2.8805,2.8827,2.9304,2.9457,2.9543,2.9785,2.9939,3.0086,3.0387,3.0437,3.0568,3.0773,3.0817,3.0817,3.0817,3.0817,3.0817,3.0817,3.0817,3.0817,3.0817,3.0817,3.0817,3.0817,3.0817,3.0817,3.0817,3.0817,3.0817,3.0817,3.0817,3.0817,3.0817,3.0817,3.0817,3.0817,3.0817,3.0817,3.0817,3.0817,3.0817,3.0817,3.0817,3.0817,3.0817,3.0817,3.0817,0.0,0.0,0.0,0.0,0.0,0.0,0.0,0.0,0.0,0.0,0.0,0.0,0.0,0.0,0.0,0.0,0.0,0.0,0.0,0.0,0.0,0.0,0.0,0.0,0.0,0.0,0.0,0.0,0.0,2.1203,2.1203,2.1218,2.1364,2.1686,2.2023,2.233,2.2623,2.2572,2.2606,2.2606,2.1915,2.1614,2.1551,2.1235,2.1109,2.1136,2.1737,2.1977,2.1951,2.1748,2.1911,2.2458,2.2752,2.306,2.346,2.4315,2.4636,2.4764,2.5493,2.617,2.6946,2.7563,2.8032,2.8368,2.8744,2.8834,2.8856,2.9333,2.9632,2.9895,2.9895,3.0211,3.0446,3.0446,3.0598,3.0817,3.0817,3.0817,3.0817,3.0817,3.0817,3.0817,3.0817,3.0817,3.0817,3.0817,3.0817,3.0817,3.0817,3.0817,3.0817,3.0817,3.0817,3.0817,3.0817,3.0817,3.0817,3.0817,3.0817,3.0817,3.0817,3.0817,3.0817,3.0817,3.0817,3.0817,3.0817,3.0817,3.0817,3.0817,3.0817,3.0817,1.3536,0.0,0.0,0.0,0.0,0.0,0.0,0.0,0.0,0.0,0.0,0.0,0.0,0.0,0.0,0.0,0.0,0.0,0.0,0.0,0.0,0.0,0.0,0.0,0.0,0.0,0.0,0.0,2.1203,2.1203,2.1203,2.1437,2.1598,2.1686,2.2213,2.2535,2.2623,2.2572,2.248,2.223,2.1803,2.1488,2.1235,2.1172,2.1109,2.1136,2.1737,2.1871,2.1748,2.1817,2.2218,2.2752,2.2832,2.3313,2.4022,2.4476,2.4918,2.5432,2.5821,2.6503,2.7179,2.7565,2.772,2.7911,2.8626,2.8753,2.8892,2.985,3.0156,3.0155,3.0471,3.0627,3.07,3.07,3.0759,3.0817,3.0817,3.0817,3.0817,3.0817,3.0817,3.0817,3.0817,3.0817,3.0817,3.0817,3.0817,3.0817,3.0817,3.0817,3.0817,3.0817,3.0817,3.0817,3.0817,3.0817,3.0817,3.0817,3.0817,3.0817,3.0817,3.0817,3.0817,3.0817,3.0817,3.0817,3.0817,3.0817,3.0817,3.0817,3.0817,3.0817,0.0,0.0,0.0,0.0,0.0,0.0,0.0,0.0,0.0,0.0,0.0,0.0,0.0,0.0,0.0,0.0,0.0,0.0,0.0,0.0,0.0,0.0,0.0,0.0,0.0,0.0,0.0,2.1203,2.1203,2.1276,2.1408,2.1598,2.1818,2.2081,2.2432,2.262,2.2581,2.2457,2.223,2.1866,2.1551,2.1299,2.1109,2.1109,2.1109,2.1136,2.1603,2.1643,2.1403,2.1817,2.2338,2.2873,2.3006,2.3527,2.4249,2.4663,2.5215,2.5793,2.617,2.6738,2.7228,2.7535,2.7476,2.7546,2.8503,2.8736,2.8871,3.0098,3.0418,3.0499,3.0749,3.0817,3.0817,3.0817,3.0817,3.0817,3.0817,3.0817,3.0817,3.0817,3.0817,3.0817,3.0817,3.0817,3.0817,3.0817,3.0817,3.0817,3.0817,3.0817,3.0817,3.0817,3.0817,3.0817,3.0817,3.0817,3.0817,3.0817,3.0817,3.0817,3.0817,3.0817,3.0817,3.0817,3.0817,3.0817,3.0817,3.0817,3.0817,3.0817,3.0817,3.0817,1.4706,0.0,0.0,0.0,0.0,0.0,1.6945,1.6608,0.0,0.0,0.0,0.0,0.0,0.0,0.0,0.0,0.0,0.0,0.0,0.0,0.0,0.0,0.0,0.0,0.0,2.1203,2.1203,2.1203,2.1203,2.135,2.1686,2.173,2.2023,2.2608,2.2591,2.2566,2.2606,2.223,2.1915,2.1614,2.1235,2.1109,2.1109,2.1109,2.1109,2.1122,2.143,2.139,2.1162,2.1777,2.2365,2.2968,2.3207,2.3701,2.4315,2.4877,2.5391,2.5787,2.6375,2.6826,2.7206,2.7471,2.7347,2.7299,2.848,2.8778,2.8928,3.0141,3.0612,3.0817,3.0817,3.0817,3.0817,3.0817,3.0817,3.0817,3.0817,3.0817,3.0817,3.0817,3.0817,3.0817,3.0817,3.0817,3.0817,3.0817,3.0817,3.0817,3.0817,3.0817,3.0817,3.0817,3.0817,3.0817,3.0817,3.0817,3.0817,3.0817,3.0817,3.0817,3.0817,3.0817,3.0817,3.0817,3.0817,3.0817,3.0817,3.0817,3.0817,3.0817,3.0817,3.0817,1.5657,1.5672,0.0,0.0,0.0,0.0,1.5131,1.5335,0.0,0.0,0.0,0.0,0.0,0.0,0.0,0.0,0.0,0.0,0.0,0.0,0.0,0.0,0.0,0.0,0.0,2.1203,2.1203,2.1203,2.1203,2.135,2.1686,2.195,2.2257,2.2608,2.2624,2.2611,2.2606,2.1978,2.1664,2.1614,2.1235,2.1109,2.1109,2.1109,2.1109,2.1122,2.143,2.139,2.1176,2.1991,2.2539,2.2968,2.3207,2.3834,2.4596,2.4957,2.5451,2.6012,2.6071,2.6497,2.7028,2.7083,2.7275,2.7602,2.8792,2.9267,2.9678,3.0476,3.0773,3.0817,3.0817,3.0817,3.0817,3.0817,3.0817,3.0817,3.0817,3.0817,3.0817,3.0817,3.0817,3.0817,3.0817,3.0817,3.0817,3.0817,3.0817,3.0817,3.0817,3.0817,3.0817,3.0817,3.0817,3.0817,3.0817,3.0817,3.0817,3.0817,3.0817,3.0817,3.0817,3.0817,3.0817,3.0817,3.0817,3.0817,3.0817,3.0817,3.0817,3.0817,3.0817,3.0817,1.6272,1.614,0.0,1.5935,0.0,0.0,0.0,0.0,1.5367,0.0,0.0,0.0,0.0,0.0,0.0,0.0,0.0,0.0,0.0,0.0,0.0,0.0,0.0,0.0,0.0,2.1203,2.1203,2.1203,2.1203,2.1423,2.1906,2.2096,2.2328,2.261,2.2582,2.2418,2.2104,2.179,2.1551,2.1362,2.1172,2.1109,2.1109,2.1109,2.1109,2.1122,2.1269,2.1336,2.1376,2.1964,2.2552,2.3126,2.3434,2.3995,2.469,2.513,2.5612,2.6121,2.6181,2.6581,2.7032,2.7032,2.7237,2.7698,2.8892,2.9713,3.0296,3.069,3.0817,3.0817,3.0817,3.0817,3.0817,3.0817,3.0817,3.0817,3.0817,3.0817,3.0817,3.0817,3.0817,3.0817,3.0817,3.0817,3.0817,3.0817,3.0817,3.0817,3.0817,3.0817,3.0817,3.0817,3.0817,3.0817,3.0817,3.0817,3.0817,3.0817,3.0817,3.0817,3.0817,3.0817,3.0817,3.0817,3.0817,3.0817,3.0817,3.0817,3.0817,3.0817,3.0817,3.0817,0.0,0.0,0.0,0.0,0.0,1.5921,0.0,0.0,0.0,1.6272,0.0,0.0,0.0,0.0,0.0,0.0,0.0,0.0,0.0,0.0,0.0,0.0,0.0,0.0,0.0,2.0955,2.094,2.1189,2.0984,2.1233,2.214,2.2184,2.234,2.2591,2.2543,2.223,2.1614,2.1551,2.1362,2.1109,2.1109,2.1109,2.1109,2.1109,2.1109,2.1109,2.1109,2.1283,2.1641,2.1924,2.2565,2.3354,2.3661,2.4128,2.4703,2.5291,2.5747,2.5981,2.6264,2.6623,2.6953,2.7097,2.7503,2.8197,2.921,3.0079,3.0817,3.0817,3.0817,3.0817,3.0817,3.0817,3.0817,3.0817,3.0817,3.0817,3.0817,3.0817,3.0817,3.0817,3.0817,3.0817,3.0817,3.0817,3.0817,3.0817,3.0817,3.0817,3.0817,3.0817,3.0817,3.0817,3.0817,3.0817,3.0817,3.0817,3.0817,3.0817,3.0817,3.0817,3.0817,3.0817,3.0817,3.0817,3.0817,3.0817,3.0817,3.0817,3.0817,3.0817,3.0817,3.0817,0.0,0.0,0.0,0.0,1.7179,0.0,0.0,0.0,1.5599,1.4922,0.0,0.0,0.0,0.0,0.0,0.0,0.0,0.0,0.0,0.0,0.0,0.0,0.0,0.0,0.0,0.0,1.9974,2.113,2.015,2.0281,2.2081,2.2184,2.234,2.2591,2.2292,2.1978,2.1614,2.1299,2.1172,2.1109,2.1109,2.1109,2.1109,2.1109,2.1109,2.1109,2.1109,2.1283,2.1655,2.2151,2.2752,2.3354,2.3661,2.4128,2.4703,2.5291,2.5518,2.5675,2.6186,2.6465,2.6623,2.7319,2.8517,2.9763,3.0442,3.0676,3.0817,3.0817,3.0817,3.0817,3.0817,3.0817,3.0817,3.0817,3.0817,3.0817,3.0817,3.0817,3.0817,3.0817,3.0817,3.0817,3.0817,3.0817,3.0817,3.0817,3.0817,3.0817,3.0817,3.0817,3.0817,3.0817,3.0817,3.0817,3.0817,3.0817,3.0817,3.0817,3.0817,3.0817,3.0817,3.0817,3.0817,3.0817,3.0817,3.0817,3.0817,3.0817,3.0817,3.0817,3.0817,3.0817,0.0,0.0,0.0,0.0,0.0,0.0,1.5819,0.0,1.5072,0.0,0.0,0.0,0.0,0.0,0.0,0.0,0.0,0.0,0.0,0.0,0.0,0.0,0.0,0.0,0.0,0.0,0.0,0.0,0.0,1.9959,2.154,2.1979,2.2132,2.201,2.2083,2.1853,2.1299,2.1172,2.1109,2.1109,2.1109,2.1109,2.1109,2.1109,2.1109,2.1122,2.1296,2.1537,2.1844,2.2432,2.3033,2.3621,2.3901,2.4275,2.4703,2.5291,2.5518,2.5598,2.6186,2.6386,2.6598,2.7814,2.912,3.0232,3.0685,3.0817,3.0817,3.0817,3.0817,3.0817,3.0817,3.0817,3.0817,3.0817,3.0817,3.0817,3.0817,3.0817,3.0817,3.0817,3.0817,3.0817,3.0817,3.0817,3.0817,3.0817,3.0817,3.0817,3.0817,3.0817,3.0817,3.0817,3.0817,3.0817,3.0817,3.0817,3.0817,3.0817,3.0817,3.0817,3.0817,3.0817,3.0817,3.0817,3.0817,3.0817,3.0817,3.0817,3.0817,3.0817,3.0817,3.0817,1.8921,0.0,0.0,0.0,0.0,0.0,0.0,0.0,0.0,0.0,0.0,0.0,0.0,0.0,0.0,0.0,0.0,0.0,0.0,0.0,0.0,0.0,0.0,0.0,0.0,0.0,0.0,0.0,0.0,0.0,2.1115,2.1686,2.1807,2.1628,2.1825,2.1677,2.1109,2.1109,2.1109,2.1109,2.1109,2.1109,2.1109,2.1189,2.1189,2.1136,2.151,2.179,2.2031,2.2712,2.33,2.3808,2.4182,2.4502,2.4823,2.5331,2.5518,2.5598,2.6186,2.6598,2.7064,2.8309,2.9516,3.0407,3.0563,3.0665,3.0665,3.0665,3.0665,3.0665,3.0734,3.0817,3.0817,3.0817,3.0817,3.0817,3.0817,3.0817,3.0817,3.0817,3.0817,3.0817,3.0817,3.0817,3.0817,3.0817,3.0817,3.0817,3.0817,3.0817,3.0817,3.0817,3.0817,3.0817,3.0817,3.0817,3.0817,3.0817,3.0817,3.0817,3.0817,3.0817,3.0817,3.0817,3.0817,3.0817,3.0817,3.0817,3.0817,3.0817,3.0817,3.0817,0.0,0.0,0.0,1.7848,0.0,0.0,0.0,0.0,1.6477,0.0,0.0,0.0,0.0,0.0,0.0,0.0,0.0,0.0,0.0,0.0,0.0,0.0,0.0,0.0,0.0,0.0,0.0,0.0,0.0,0.0,2.1057,2.1234,2.1339,2.1567,2.1638,2.1425,2.1109,2.1109,2.1109,2.1109,2.1109,2.1109,2.1122,2.1403,2.139,2.1136,2.1724,2.1977,2.2058,2.2953,2.3487,2.3834,2.4396,2.4796,2.5104,2.5398,2.5518,2.5598,2.6186,2.713,2.8137,2.8958,2.976,3.0407,3.0245,3.0263,3.0263,3.0263,3.0263,3.0346,3.0665,3.0817,3.0817,3.0817,3.0817,3.0817,3.0817,3.0817,3.0817,3.0817,3.0817,3.0817,3.0817,3.0817,3.0817,3.0817,3.0817,3.0817,3.0817,3.0817,3.0817,3.0817,3.0817,3.0817,3.0817,3.0817,3.0817,3.0817,3.0817,3.0817,3.0817,3.0817,3.0817,3.0817,3.0817,3.0817,3.0817,3.0817,3.0817,3.0817,3.0817,3.0817,0.0,0.0,2.1189,1.9125,0.0,0.0,0.0,0.0,0.0,0.0,0.0,0.0,0.0,0.0,0.0,0.0,0.0,0.0,0.0,0.0,0.0,0.0,0.0,0.0,0.0,0.0,0.0,0.0,0.0,0.0,0.0,2.0888,2.1258,2.1353,2.1493,2.1551,2.1425,2.1235,2.1109,2.1109,2.1109,2.1109,2.1122,2.148,2.139,2.1149,2.1937,2.2164,2.2071,2.3166,2.3674,2.3834,2.4409,2.4823,2.5117,2.5411,2.5638,2.5943,2.6567,2.7266,2.8027,2.861,2.9236,2.9772,2.9704,2.9914,3.0179,3.0179,3.0415,3.0665,3.0749,3.0817,3.0817,3.0817,3.0817,3.0817,3.0817,3.0817,3.0817,3.0817,3.0817,3.0817,3.0817,3.0817,3.0817,3.0817,3.0817,3.0817,3.0817,3.0817,3.0817,3.0817,3.0817,3.0817,3.0817,3.0817,3.0817,3.0817,3.0817,3.0817,3.0817,3.0817,3.0817,3.0817,3.0817,3.0817,3.0817,3.0817,3.0817,3.0817,3.0817,3.0817,2.1467,2.1774,0.0,2.0047,1.9462,0.0,1.6857,0.0,0.0,0.0,0.0,0.0,0.0,0.0,0.0,0.0,0.0,0.0,0.0,0.0,0.0,0.0,0.0,0.0,0.0,0.0,1.6287,1.7706,0.0,0.0,0.0,0.0,2.0883,2.0864,2.1211,2.1425,2.1425,2.1235,2.1109,2.1109,2.1109,2.1162,2.1269,2.1534,2.151,2.1456,2.2124,2.2311,2.2231,2.3313,2.3768,2.3834,2.4409,2.4877,2.5251,2.5451,2.5849,2.6472,2.7007,2.7591,2.8179,2.8616,2.9075,2.9481,2.9481,2.9747,2.9998,3.0179,3.043,3.0582,3.0749,3.0817,3.0817,3.0817,3.0817,3.0817,3.0817,3.0817,3.0817,3.0817,3.0817,3.0817,3.0817,3.0817,3.0817,3.0817,3.0817,3.0817,3.0817,3.0817,3.0817,3.0817,3.0817,3.0817,3.0817,3.0817,3.0817,3.0817,3.0817,3.0817,3.0817,3.0817,3.0817,3.0817,3.0817,3.0817,3.0817,3.0817,3.0817,3.0817,3.0817,3.0817]}]]